<?xml version="1.0" encoding="UTF-8"?>
<gpx version="1.1" creator="2bulu-scraper" xmlns="http://www.topografix.com/GPX/1/1">
  <metadata><name>夜爬峨眉山:报国寺-金顶</name><desc>source: 2bulu.com trackId=81208579; exported 2026-09-01T16:24:45.400Z</desc>
    <bounds minlat="29.5225665" minlon="103.3268367" maxlat="29.57419" maxlon="103.4413866"/>
    <link href="https://www.2bulu.com/track/t-zl1Q4HMszXjp%252FR2KBg5Tzw%253D%253D.htm"><text>2bulu 源页面</text></link>
  </metadata>
  <wpt lat="29.565663" lon="103.4344033"><ele>536</ele><name>峨眉山起点
        </name></wpt>
  <wpt lat="29.5649686" lon="103.4267293"><ele>606</ele><name>解脱桥
        </name></wpt>
  <wpt lat="29.5653749" lon="103.421227"><ele>791</ele><name>红牛墙
        </name></wpt>
  <wpt lat="29.5694142" lon="103.4125136"><ele>866</ele><name>望雪亭
        </name></wpt>
  <wpt lat="29.5666407" lon="103.407945"><ele>776</ele><name>神水阁
        </name></wpt>
  <wpt lat="29.5720582" lon="103.4012267"><ele>726</ele><name>龙升岗检票口
        </name></wpt>
  <wpt lat="29.5735411" lon="103.3935429"><ele>693</ele><name>广福寺
        </name></wpt>
  <wpt lat="29.5741732" lon="103.3923398"><ele>649</ele><name>清音阁
        </name></wpt>
  <wpt lat="29.5546524" lon="103.3845567"><ele>935</ele><name>晓雨商店
        </name></wpt>
  <wpt lat="29.5496429" lon="103.3686316"><ele>1258</ele><name>九十九道拐
        </name></wpt>
  <wpt lat="29.5493835" lon="103.3663263"><ele>1448</ele><name>茶棚子
        </name></wpt>
  <wpt lat="29.5502834" lon="103.3584854"><ele>1668</ele><name>仙峰寺东
        </name></wpt>
  <wpt lat="29.5503454" lon="103.3569139"><ele>1699</ele><name>九老仙府
        </name></wpt>
  <wpt lat="29.5575892" lon="103.3514929"><ele>1539</ele><name>观音飞瀑
        </name></wpt>
  <wpt lat="29.5593994" lon="103.3506709"><ele>1523</ele><name>遇仙桥
        </name></wpt>
  <wpt lat="29.5607236" lon="103.351535"><ele>1661</ele><name>遇仙寺
        </name></wpt>
  <wpt lat="29.5613689" lon="103.345328"><ele>1768</ele><name>钻天坡
        </name></wpt>
  <wpt lat="29.5613631" lon="103.3453303"><ele>1768</ele><name>钻天坡
        </name></wpt>
  <wpt lat="29.5601076" lon="103.34392"><ele>1905</ele><name>半岩花雨亭
        </name></wpt>
  <wpt lat="29.5588462" lon="103.3442591"><ele>2012</ele><name>洗象池
        </name></wpt>
  <wpt lat="29.546615" lon="103.3371245"><ele>2421</ele><name>云亭小食店
        </name></wpt>
  <wpt lat="29.542266" lon="103.3319944"><ele>2383</ele><name>灵觉寺
        </name></wpt>
  <wpt lat="29.5348018" lon="103.3329636"><ele>2488</ele><name>上山游步道
        </name></wpt>
  <wpt lat="29.5321425" lon="103.3302594"><ele>2651</ele><name>梳妆台
        </name></wpt>
  <wpt lat="29.5296046" lon="103.3278219"><ele>2816</ele><name>太子坪
        </name></wpt>
  <wpt lat="29.5273292" lon="103.332494"><ele>2904</ele><name>天门石
        </name></wpt>
  <trk><name>夜爬峨眉山:报国寺-金顶</name>
      <trkseg>
        <trkpt lat="29.5704368" lon="103.4413866"><ele>491.72</ele><time>2026-03-27T03:03:04.000Z</time></trkpt>
        <trkpt lat="29.5703761" lon="103.4413103"><ele>491.72</ele><time>2026-03-27T03:03:30.000Z</time></trkpt>
        <trkpt lat="29.5702939" lon="103.4412472"><ele>492.61</ele><time>2026-03-27T03:03:40.000Z</time></trkpt>
        <trkpt lat="29.5701977" lon="103.4411871"><ele>493.42</ele><time>2026-03-27T03:03:50.000Z</time></trkpt>
        <trkpt lat="29.5700994" lon="103.4411305"><ele>494.84</ele><time>2026-03-27T03:03:58.000Z</time></trkpt>
        <trkpt lat="29.5700105" lon="103.4410721"><ele>495.37</ele><time>2026-03-27T03:04:06.000Z</time></trkpt>
        <trkpt lat="29.5699247" lon="103.4410228"><ele>495.88</ele><time>2026-03-27T03:04:16.000Z</time></trkpt>
        <trkpt lat="29.5698423" lon="103.4409749"><ele>495.97</ele><time>2026-03-27T03:04:24.000Z</time></trkpt>
        <trkpt lat="29.5697529" lon="103.4409483"><ele>494.2</ele><time>2026-03-27T03:04:32.000Z</time></trkpt>
        <trkpt lat="29.5696591" lon="103.4409283"><ele>493.79</ele><time>2026-03-27T03:04:40.000Z</time></trkpt>
        <trkpt lat="29.5695562" lon="103.4409195"><ele>493.54</ele><time>2026-03-27T03:04:50.000Z</time></trkpt>
        <trkpt lat="29.5694522" lon="103.4409205"><ele>493.5</ele><time>2026-03-27T03:05:00.000Z</time></trkpt>
        <trkpt lat="29.5693493" lon="103.4409198"><ele>493.44</ele><time>2026-03-27T03:05:10.000Z</time></trkpt>
        <trkpt lat="29.569249" lon="103.4409263"><ele>493.62</ele><time>2026-03-27T03:05:22.000Z</time></trkpt>
        <trkpt lat="29.5691458" lon="103.4409432"><ele>493.14</ele><time>2026-03-27T03:05:32.000Z</time></trkpt>
        <trkpt lat="29.5690803" lon="103.4408739"><ele>492.55</ele><time>2026-03-27T03:05:42.000Z</time></trkpt>
        <trkpt lat="29.5690586" lon="103.4407615"><ele>492.29</ele><time>2026-03-27T03:05:50.000Z</time></trkpt>
        <trkpt lat="29.5690537" lon="103.4406256"><ele>492.03</ele><time>2026-03-27T03:06:00.000Z</time></trkpt>
        <trkpt lat="29.5690483" lon="103.440505"><ele>492.07</ele><time>2026-03-27T03:06:08.000Z</time></trkpt>
        <trkpt lat="29.5690476" lon="103.4403894"><ele>492.88</ele><time>2026-03-27T03:06:18.000Z</time></trkpt>
        <trkpt lat="29.5690414" lon="103.4402672"><ele>492.89</ele><time>2026-03-27T03:06:28.000Z</time></trkpt>
        <trkpt lat="29.5690108" lon="103.4401645"><ele>492.11</ele><time>2026-03-27T03:06:38.000Z</time></trkpt>
        <trkpt lat="29.568961" lon="103.4400655"><ele>490.96</ele><time>2026-03-27T03:06:46.000Z</time></trkpt>
        <trkpt lat="29.5688953" lon="103.4399746"><ele>490.86</ele><time>2026-03-27T03:06:54.000Z</time></trkpt>
        <trkpt lat="29.5688325" lon="103.439888"><ele>491.66</ele><time>2026-03-27T03:07:02.000Z</time></trkpt>
        <trkpt lat="29.5687793" lon="103.439802"><ele>492.5</ele><time>2026-03-27T03:07:10.000Z</time></trkpt>
        <trkpt lat="29.568717" lon="103.4397164"><ele>491.59</ele><time>2026-03-27T03:07:18.000Z</time></trkpt>
        <trkpt lat="29.5686345" lon="103.4396278"><ele>491.32</ele><time>2026-03-27T03:07:26.000Z</time></trkpt>
        <trkpt lat="29.568563" lon="103.4395428"><ele>494.26</ele><time>2026-03-27T03:07:34.000Z</time></trkpt>
        <trkpt lat="29.5685043" lon="103.4394576"><ele>498.07</ele><time>2026-03-27T03:07:42.000Z</time></trkpt>
        <trkpt lat="29.5684386" lon="103.4393861"><ele>499.65</ele><time>2026-03-27T03:07:50.000Z</time></trkpt>
        <trkpt lat="29.5683637" lon="103.4393027"><ele>500.93</ele><time>2026-03-27T03:08:00.000Z</time></trkpt>
        <trkpt lat="29.5682786" lon="103.4392182"><ele>501.57</ele><time>2026-03-27T03:08:10.000Z</time></trkpt>
        <trkpt lat="29.5682078" lon="103.4391378"><ele>502.28</ele><time>2026-03-27T03:08:18.000Z</time></trkpt>
        <trkpt lat="29.5681392" lon="103.4390576"><ele>503.35</ele><time>2026-03-27T03:08:26.000Z</time></trkpt>
        <trkpt lat="29.5680766" lon="103.4389812"><ele>502.49</ele><time>2026-03-27T03:08:34.000Z</time></trkpt>
        <trkpt lat="29.5680079" lon="103.4389089"><ele>502.43</ele><time>2026-03-27T03:08:42.000Z</time></trkpt>
        <trkpt lat="29.5679347" lon="103.438833"><ele>502.82</ele><time>2026-03-27T03:08:50.000Z</time></trkpt>
        <trkpt lat="29.5678579" lon="103.4387428"><ele>504.06</ele><time>2026-03-27T03:08:58.000Z</time></trkpt>
        <trkpt lat="29.567803" lon="103.438647"><ele>506.15</ele><time>2026-03-27T03:09:08.000Z</time></trkpt>
        <trkpt lat="29.5677293" lon="103.4385562"><ele>507.04</ele><time>2026-03-27T03:09:18.000Z</time></trkpt>
        <trkpt lat="29.5676593" lon="103.4384815"><ele>508.53</ele><time>2026-03-27T03:09:26.000Z</time></trkpt>
        <trkpt lat="29.5676006" lon="103.4383889"><ele>509.17</ele><time>2026-03-27T03:09:38.000Z</time></trkpt>
        <trkpt lat="29.5675385" lon="103.4383043"><ele>506.65</ele><time>2026-03-27T03:09:48.000Z</time></trkpt>
        <trkpt lat="29.5674849" lon="103.4382051"><ele>504.93</ele><time>2026-03-27T03:09:58.000Z</time></trkpt>
        <trkpt lat="29.5674237" lon="103.4381171"><ele>503.22</ele><time>2026-03-27T03:10:08.000Z</time></trkpt>
        <trkpt lat="29.5673705" lon="103.4380068"><ele>502.34</ele><time>2026-03-27T03:10:16.000Z</time></trkpt>
        <trkpt lat="29.5673175" lon="103.4379106"><ele>504.04</ele><time>2026-03-27T03:10:24.000Z</time></trkpt>
        <trkpt lat="29.5672557" lon="103.4378304"><ele>507.1</ele><time>2026-03-27T03:10:32.000Z</time></trkpt>
        <trkpt lat="29.5671887" lon="103.4377415"><ele>508.64</ele><time>2026-03-27T03:10:42.000Z</time></trkpt>
        <trkpt lat="29.5671254" lon="103.4376609"><ele>507.88</ele><time>2026-03-27T03:10:50.000Z</time></trkpt>
        <trkpt lat="29.5670705" lon="103.4375644"><ele>507.46</ele><time>2026-03-27T03:11:00.000Z</time></trkpt>
        <trkpt lat="29.5670162" lon="103.4374671"><ele>508.72</ele><time>2026-03-27T03:11:10.000Z</time></trkpt>
        <trkpt lat="29.5669646" lon="103.4373614"><ele>510</ele><time>2026-03-27T03:11:20.000Z</time></trkpt>
        <trkpt lat="29.5668937" lon="103.4372564"><ele>510.47</ele><time>2026-03-27T03:11:30.000Z</time></trkpt>
        <trkpt lat="29.5668438" lon="103.4371559"><ele>515.27</ele><time>2026-03-27T03:11:40.000Z</time></trkpt>
        <trkpt lat="29.5667974" lon="103.4370614"><ele>517.86</ele><time>2026-03-27T03:11:50.000Z</time></trkpt>
        <trkpt lat="29.5667516" lon="103.4369691"><ele>518.15</ele><time>2026-03-27T03:12:00.000Z</time></trkpt>
        <trkpt lat="29.566689" lon="103.4368828"><ele>518.88</ele><time>2026-03-27T03:12:08.000Z</time></trkpt>
        <trkpt lat="29.5666242" lon="103.4368022"><ele>518.12</ele><time>2026-03-27T03:12:16.000Z</time></trkpt>
        <trkpt lat="29.5665682" lon="103.4367137"><ele>517.6</ele><time>2026-03-27T03:12:26.000Z</time></trkpt>
        <trkpt lat="29.566502" lon="103.4366122"><ele>516.23</ele><time>2026-03-27T03:12:36.000Z</time></trkpt>
        <trkpt lat="29.5664543" lon="103.4365146"><ele>514.43</ele><time>2026-03-27T03:12:44.000Z</time></trkpt>
        <trkpt lat="29.5664287" lon="103.4364113"><ele>513.87</ele><time>2026-03-27T03:12:52.000Z</time></trkpt>
        <trkpt lat="29.5664515" lon="103.4363116"><ele>513.7</ele><time>2026-03-27T03:13:02.000Z</time></trkpt>
        <trkpt lat="29.5663796" lon="103.4362149"><ele>515.5</ele><time>2026-03-27T03:13:08.000Z</time></trkpt>
        <trkpt lat="29.5663142" lon="103.4361073"><ele>518.95</ele><time>2026-03-27T03:13:16.000Z</time></trkpt>
        <trkpt lat="29.5662792" lon="103.4359832"><ele>520.73</ele><time>2026-03-27T03:13:24.000Z</time></trkpt>
        <trkpt lat="29.5662724" lon="103.4358662"><ele>521.72</ele><time>2026-03-27T03:13:32.000Z</time></trkpt>
        <trkpt lat="29.5662193" lon="103.4357802"><ele>523.31</ele><time>2026-03-27T03:13:40.000Z</time></trkpt>
        <trkpt lat="29.5661882" lon="103.4356681"><ele>525.18</ele><time>2026-03-27T03:13:48.000Z</time></trkpt>
        <trkpt lat="29.5661605" lon="103.435559"><ele>528.94</ele><time>2026-03-27T03:13:58.000Z</time></trkpt>
        <trkpt lat="29.5661345" lon="103.4354483"><ele>529.91</ele><time>2026-03-27T03:14:08.000Z</time></trkpt>
        <trkpt lat="29.5661045" lon="103.4353268"><ele>529.16</ele><time>2026-03-27T03:14:18.000Z</time></trkpt>
        <trkpt lat="29.5660621" lon="103.4352106"><ele>527.27</ele><time>2026-03-27T03:14:28.000Z</time></trkpt>
        <trkpt lat="29.5660231" lon="103.435105"><ele>525.91</ele><time>2026-03-27T03:14:36.000Z</time></trkpt>
        <trkpt lat="29.5659722" lon="103.4350068"><ele>524.12</ele><time>2026-03-27T03:14:46.000Z</time></trkpt>
        <trkpt lat="29.5659049" lon="103.4349161"><ele>522.89</ele><time>2026-03-27T03:14:56.000Z</time></trkpt>
        <trkpt lat="29.5658162" lon="103.4348554"><ele>525.31</ele><time>2026-03-27T03:15:04.000Z</time></trkpt>
        <trkpt lat="29.5657314" lon="103.4347877"><ele>528.31</ele><time>2026-03-27T03:15:14.000Z</time></trkpt>
        <trkpt lat="29.5656517" lon="103.4347272"><ele>530.75</ele><time>2026-03-27T03:15:22.000Z</time></trkpt>
        <trkpt lat="29.5656177" lon="103.4346279"><ele>533.18</ele><time>2026-03-27T03:15:34.000Z</time></trkpt>
        <trkpt lat="29.5656375" lon="103.4345162"><ele>532.73</ele><time>2026-03-27T03:15:44.000Z</time></trkpt>
        <trkpt lat="29.565663" lon="103.4344033"><ele>532.83</ele><time>2026-03-27T03:15:52.000Z</time></trkpt>
        <trkpt lat="29.5657231" lon="103.4343078"><ele>534.3</ele><time>2026-03-27T03:16:28.000Z</time></trkpt>
        <trkpt lat="29.5657971" lon="103.4342195"><ele>537.46</ele><time>2026-03-27T03:16:36.000Z</time></trkpt>
        <trkpt lat="29.5658175" lon="103.4341388"><ele>540.01</ele><time>2026-03-27T03:16:44.000Z</time></trkpt>
        <trkpt lat="29.5658195" lon="103.434038"><ele>541.9</ele><time>2026-03-27T03:17:18.000Z</time></trkpt>
        <trkpt lat="29.5658018" lon="103.4339263"><ele>543.6</ele><time>2026-03-27T03:17:28.000Z</time></trkpt>
        <trkpt lat="29.5658079" lon="103.4338597"><ele>545.26</ele><time>2026-03-27T03:17:36.000Z</time></trkpt>
        <trkpt lat="29.5658003" lon="103.4337681"><ele>545.63</ele><time>2026-03-27T03:17:48.000Z</time></trkpt>
        <trkpt lat="29.565802" lon="103.4336548"><ele>545.81</ele><time>2026-03-27T03:17:58.000Z</time></trkpt>
        <trkpt lat="29.5658203" lon="103.4335357"><ele>546.18</ele><time>2026-03-27T03:18:06.000Z</time></trkpt>
        <trkpt lat="29.565837" lon="103.433427"><ele>546.39</ele><time>2026-03-27T03:18:14.000Z</time></trkpt>
        <trkpt lat="29.5658138" lon="103.4333026"><ele>546.02</ele><time>2026-03-27T03:18:22.000Z</time></trkpt>
        <trkpt lat="29.5657839" lon="103.4331881"><ele>547.19</ele><time>2026-03-27T03:18:30.000Z</time></trkpt>
        <trkpt lat="29.5657582" lon="103.4330705"><ele>548.09</ele><time>2026-03-27T03:18:40.000Z</time></trkpt>
        <trkpt lat="29.5657185" lon="103.4329553"><ele>547.91</ele><time>2026-03-27T03:18:48.000Z</time></trkpt>
        <trkpt lat="29.5656709" lon="103.4328499"><ele>549.3</ele><time>2026-03-27T03:18:56.000Z</time></trkpt>
        <trkpt lat="29.5656373" lon="103.4327504"><ele>551.75</ele><time>2026-03-27T03:19:04.000Z</time></trkpt>
        <trkpt lat="29.5655833" lon="103.4326454"><ele>553.29</ele><time>2026-03-27T03:19:12.000Z</time></trkpt>
        <trkpt lat="29.5654991" lon="103.4325548"><ele>554.48</ele><time>2026-03-27T03:19:20.000Z</time></trkpt>
        <trkpt lat="29.5654968" lon="103.432443"><ele>555.12</ele><time>2026-03-27T03:19:30.000Z</time></trkpt>
        <trkpt lat="29.5654887" lon="103.4323172"><ele>556.3</ele><time>2026-03-27T03:19:40.000Z</time></trkpt>
        <trkpt lat="29.5654755" lon="103.4321882"><ele>559.32</ele><time>2026-03-27T03:19:48.000Z</time></trkpt>
        <trkpt lat="29.5654305" lon="103.4320716"><ele>563.2</ele><time>2026-03-27T03:19:58.000Z</time></trkpt>
        <trkpt lat="29.565383" lon="103.4319752"><ele>565.72</ele><time>2026-03-27T03:20:08.000Z</time></trkpt>
        <trkpt lat="29.5653827" lon="103.431871"><ele>565.29</ele><time>2026-03-27T03:20:20.000Z</time></trkpt>
        <trkpt lat="29.5654139" lon="103.4317632"><ele>563.32</ele><time>2026-03-27T03:20:30.000Z</time></trkpt>
        <trkpt lat="29.5654493" lon="103.4316482"><ele>561.38</ele><time>2026-03-27T03:20:42.000Z</time></trkpt>
        <trkpt lat="29.5654854" lon="103.4315368"><ele>560.29</ele><time>2026-03-27T03:20:52.000Z</time></trkpt>
        <trkpt lat="29.5655192" lon="103.4314321"><ele>561.17</ele><time>2026-03-27T03:21:00.000Z</time></trkpt>
        <trkpt lat="29.5655463" lon="103.4313226"><ele>561.96</ele><time>2026-03-27T03:21:12.000Z</time></trkpt>
        <trkpt lat="29.5655599" lon="103.4311972"><ele>561.97</ele><time>2026-03-27T03:21:22.000Z</time></trkpt>
        <trkpt lat="29.5655935" lon="103.4310896"><ele>562.41</ele><time>2026-03-27T03:21:30.000Z</time></trkpt>
        <trkpt lat="29.5655893" lon="103.4309811"><ele>562.39</ele><time>2026-03-27T03:21:40.000Z</time></trkpt>
        <trkpt lat="29.5655302" lon="103.4308977"><ele>561.75</ele><time>2026-03-27T03:21:48.000Z</time></trkpt>
        <trkpt lat="29.5654539" lon="103.4308316"><ele>562.93</ele><time>2026-03-27T03:21:56.000Z</time></trkpt>
        <trkpt lat="29.5654103" lon="103.430734"><ele>564.41</ele><time>2026-03-27T03:22:06.000Z</time></trkpt>
        <trkpt lat="29.5653898" lon="103.4306264"><ele>567.87</ele><time>2026-03-27T03:22:16.000Z</time></trkpt>
        <trkpt lat="29.5653632" lon="103.4305163"><ele>569.43</ele><time>2026-03-27T03:22:26.000Z</time></trkpt>
        <trkpt lat="29.5653487" lon="103.4303896"><ele>571.68</ele><time>2026-03-27T03:22:36.000Z</time></trkpt>
        <trkpt lat="29.5653564" lon="103.4302647"><ele>574.04</ele><time>2026-03-27T03:25:50.000Z</time></trkpt>
        <trkpt lat="29.5653418" lon="103.430141"><ele>577.01</ele><time>2026-03-27T03:26:02.000Z</time></trkpt>
        <trkpt lat="29.5653279" lon="103.4300226"><ele>579.88</ele><time>2026-03-27T03:26:12.000Z</time></trkpt>
        <trkpt lat="29.5653036" lon="103.4299145"><ele>581.76</ele><time>2026-03-27T03:26:20.000Z</time></trkpt>
        <trkpt lat="29.5652537" lon="103.4298119"><ele>583.63</ele><time>2026-03-27T03:26:28.000Z</time></trkpt>
        <trkpt lat="29.5651945" lon="103.4297085"><ele>585.81</ele><time>2026-03-27T03:26:38.000Z</time></trkpt>
        <trkpt lat="29.565157" lon="103.4296021"><ele>586.6</ele><time>2026-03-27T03:26:46.000Z</time></trkpt>
        <trkpt lat="29.5651182" lon="103.4294949"><ele>586.79</ele><time>2026-03-27T03:26:56.000Z</time></trkpt>
        <trkpt lat="29.5650695" lon="103.4293837"><ele>587.44</ele><time>2026-03-27T03:27:06.000Z</time></trkpt>
        <trkpt lat="29.5650235" lon="103.4292734"><ele>586.46</ele><time>2026-03-27T03:27:16.000Z</time></trkpt>
        <trkpt lat="29.5649979" lon="103.4291551"><ele>586.9</ele><time>2026-03-27T03:27:24.000Z</time></trkpt>
        <trkpt lat="29.5649781" lon="103.4290278"><ele>587.04</ele><time>2026-03-27T03:27:34.000Z</time></trkpt>
        <trkpt lat="29.5649535" lon="103.4289172"><ele>588.25</ele><time>2026-03-27T03:27:42.000Z</time></trkpt>
        <trkpt lat="29.5649309" lon="103.4288083"><ele>589.49</ele><time>2026-03-27T03:27:50.000Z</time></trkpt>
        <trkpt lat="29.5649128" lon="103.4286877"><ele>590.2</ele><time>2026-03-27T03:28:00.000Z</time></trkpt>
        <trkpt lat="29.5648973" lon="103.428567"><ele>589.84</ele><time>2026-03-27T03:28:08.000Z</time></trkpt>
        <trkpt lat="29.5649042" lon="103.4284536"><ele>588.55</ele><time>2026-03-27T03:28:18.000Z</time></trkpt>
        <trkpt lat="29.5649778" lon="103.4283851"><ele>588.12</ele><time>2026-03-27T03:28:28.000Z</time></trkpt>
        <trkpt lat="29.5650767" lon="103.4283377"><ele>588.87</ele><time>2026-03-27T03:28:38.000Z</time></trkpt>
        <trkpt lat="29.5651696" lon="103.4282866"><ele>590.16</ele><time>2026-03-27T03:28:48.000Z</time></trkpt>
        <trkpt lat="29.5652618" lon="103.4282442"><ele>592.23</ele><time>2026-03-27T03:28:56.000Z</time></trkpt>
        <trkpt lat="29.5653527" lon="103.428193"><ele>594.09</ele><time>2026-03-27T03:29:06.000Z</time></trkpt>
        <trkpt lat="29.5654548" lon="103.4281473"><ele>595.43</ele><time>2026-03-27T03:29:16.000Z</time></trkpt>
        <trkpt lat="29.5655182" lon="103.4280647"><ele>598.05</ele><time>2026-03-27T03:29:24.000Z</time></trkpt>
        <trkpt lat="29.5655466" lon="103.4279539"><ele>599.63</ele><time>2026-03-27T03:29:34.000Z</time></trkpt>
        <trkpt lat="29.565528" lon="103.427831"><ele>599.78</ele><time>2026-03-27T03:29:40.000Z</time></trkpt>
        <trkpt lat="29.5654822" lon="103.4277028"><ele>598.49</ele><time>2026-03-27T03:29:48.000Z</time></trkpt>
        <trkpt lat="29.5654496" lon="103.4275886"><ele>596.95</ele><time>2026-03-27T03:29:56.000Z</time></trkpt>
        <trkpt lat="29.5654278" lon="103.4274783"><ele>595.83</ele><time>2026-03-27T03:30:04.000Z</time></trkpt>
        <trkpt lat="29.5654329" lon="103.4273673"><ele>594.84</ele><time>2026-03-27T03:30:12.000Z</time></trkpt>
        <trkpt lat="29.5654201" lon="103.427264"><ele>593.93</ele><time>2026-03-27T03:30:20.000Z</time></trkpt>
        <trkpt lat="29.5653814" lon="103.4271668"><ele>592.73</ele><time>2026-03-27T03:30:30.000Z</time></trkpt>
        <trkpt lat="29.5653082" lon="103.4270675"><ele>592.29</ele><time>2026-03-27T03:30:42.000Z</time></trkpt>
        <trkpt lat="29.5652022" lon="103.4270071"><ele>592.8</ele><time>2026-03-27T03:30:52.000Z</time></trkpt>
        <trkpt lat="29.5651076" lon="103.4269434"><ele>594.4</ele><time>2026-03-27T03:31:00.000Z</time></trkpt>
        <trkpt lat="29.5650139" lon="103.4268851"><ele>595.81</ele><time>2026-03-27T03:31:10.000Z</time></trkpt>
        <trkpt lat="29.5649714" lon="103.4267842"><ele>597.7</ele><time>2026-03-27T03:31:20.000Z</time></trkpt>
        <trkpt lat="29.5649686" lon="103.4267293"><ele>600.65</ele><time>2026-03-27T03:31:25.000Z</time></trkpt>
        <trkpt lat="29.5649998" lon="103.4266452"><ele>602.78</ele><time>2026-03-27T03:32:04.000Z</time></trkpt>
        <trkpt lat="29.5650448" lon="103.4265416"><ele>604.97</ele><time>2026-03-27T03:32:34.000Z</time></trkpt>
        <trkpt lat="29.5650769" lon="103.4264324"><ele>607.93</ele><time>2026-03-27T03:33:04.000Z</time></trkpt>
        <trkpt lat="29.5651148" lon="103.4263174"><ele>610.43</ele><time>2026-03-27T03:35:08.000Z</time></trkpt>
        <trkpt lat="29.5651424" lon="103.4262053"><ele>613.68</ele><time>2026-03-27T03:35:32.000Z</time></trkpt>
        <trkpt lat="29.5651656" lon="103.4261001"><ele>617.06</ele><time>2026-03-27T03:35:50.000Z</time></trkpt>
        <trkpt lat="29.565205" lon="103.4260061"><ele>619.55</ele><time>2026-03-27T03:36:20.000Z</time></trkpt>
        <trkpt lat="29.5651994" lon="103.425906"><ele>625.73</ele><time>2026-03-27T03:37:28.000Z</time></trkpt>
        <trkpt lat="29.5652116" lon="103.4257958"><ele>630.69</ele><time>2026-03-27T03:37:52.000Z</time></trkpt>
        <trkpt lat="29.5652072" lon="103.4256872"><ele>635.84</ele><time>2026-03-27T03:38:16.000Z</time></trkpt>
        <trkpt lat="29.5651547" lon="103.4255823"><ele>641</ele><time>2026-03-27T03:38:28.000Z</time></trkpt>
        <trkpt lat="29.56509" lon="103.425489"><ele>645.26</ele><time>2026-03-27T03:38:36.000Z</time></trkpt>
        <trkpt lat="29.5650073" lon="103.4254206"><ele>647.2</ele><time>2026-03-27T03:38:46.000Z</time></trkpt>
        <trkpt lat="29.5649562" lon="103.4253275"><ele>647.88</ele><time>2026-03-27T03:38:58.000Z</time></trkpt>
        <trkpt lat="29.5648868" lon="103.4252437"><ele>647.63</ele><time>2026-03-27T03:39:06.000Z</time></trkpt>
        <trkpt lat="29.5648056" lon="103.4251759"><ele>647.09</ele><time>2026-03-27T03:39:16.000Z</time></trkpt>
        <trkpt lat="29.564797" lon="103.4250768"><ele>646.52</ele><time>2026-03-27T03:39:28.000Z</time></trkpt>
        <trkpt lat="29.5647997" lon="103.424967"><ele>647.8</ele><time>2026-03-27T03:39:50.000Z</time></trkpt>
        <trkpt lat="29.564783" lon="103.4248533"><ele>649.45</ele><time>2026-03-27T03:41:16.000Z</time></trkpt>
        <trkpt lat="29.5647378" lon="103.4247621"><ele>648.74</ele><time>2026-03-27T03:41:30.000Z</time></trkpt>
        <trkpt lat="29.5646839" lon="103.4246603"><ele>649.23</ele><time>2026-03-27T03:41:42.000Z</time></trkpt>
        <trkpt lat="29.5646716" lon="103.4246122"><ele>648.86</ele><time>2026-03-27T03:41:48.000Z</time></trkpt>
        <trkpt lat="29.5646643" lon="103.4245243"><ele>648.5</ele><time>2026-03-27T03:42:04.000Z</time></trkpt>
        <trkpt lat="29.5646319" lon="103.4244281"><ele>650.38</ele><time>2026-03-27T03:42:22.000Z</time></trkpt>
        <trkpt lat="29.5646207" lon="103.4243143"><ele>651.97</ele><time>2026-03-27T03:42:34.000Z</time></trkpt>
        <trkpt lat="29.5646161" lon="103.4241971"><ele>654.06</ele><time>2026-03-27T03:43:00.000Z</time></trkpt>
        <trkpt lat="29.5645556" lon="103.4241185"><ele>659.02</ele><time>2026-03-27T03:43:22.000Z</time></trkpt>
        <trkpt lat="29.5645142" lon="103.4240142"><ele>661.92</ele><time>2026-03-27T03:43:42.000Z</time></trkpt>
        <trkpt lat="29.5644505" lon="103.4239234"><ele>662.98</ele><time>2026-03-27T03:44:02.000Z</time></trkpt>
        <trkpt lat="29.5643976" lon="103.4238241"><ele>664.21</ele><time>2026-03-27T03:44:20.000Z</time></trkpt>
        <trkpt lat="29.5643664" lon="103.423722"><ele>668.47</ele><time>2026-03-27T03:44:36.000Z</time></trkpt>
        <trkpt lat="29.5643715" lon="103.423616"><ele>671.75</ele><time>2026-03-27T03:44:52.000Z</time></trkpt>
        <trkpt lat="29.5644118" lon="103.4235204"><ele>675.64</ele><time>2026-03-27T03:45:02.000Z</time></trkpt>
        <trkpt lat="29.5644528" lon="103.4234217"><ele>678.65</ele><time>2026-03-27T03:45:18.000Z</time></trkpt>
        <trkpt lat="29.5645088" lon="103.4233309"><ele>680.15</ele><time>2026-03-27T03:45:32.000Z</time></trkpt>
        <trkpt lat="29.56453" lon="103.4232284"><ele>682.31</ele><time>2026-03-27T03:45:54.000Z</time></trkpt>
        <trkpt lat="29.564532" lon="103.4231208"><ele>683.64</ele><time>2026-03-27T03:46:12.000Z</time></trkpt>
        <trkpt lat="29.5645426" lon="103.4230148"><ele>686.05</ele><time>2026-03-27T03:46:30.000Z</time></trkpt>
        <trkpt lat="29.5645644" lon="103.4229089"><ele>688.9</ele><time>2026-03-27T03:46:48.000Z</time></trkpt>
        <trkpt lat="29.5645228" lon="103.4228261"><ele>692.65</ele><time>2026-03-27T03:47:06.000Z</time></trkpt>
        <trkpt lat="29.5644779" lon="103.4227222"><ele>695.26</ele><time>2026-03-27T03:47:24.000Z</time></trkpt>
        <trkpt lat="29.5644436" lon="103.4226184"><ele>699.15</ele><time>2026-03-27T03:47:38.000Z</time></trkpt>
        <trkpt lat="29.5644591" lon="103.4225175"><ele>702.57</ele><time>2026-03-27T03:47:54.000Z</time></trkpt>
        <trkpt lat="29.5644698" lon="103.4224079"><ele>704.94</ele><time>2026-03-27T03:48:14.000Z</time></trkpt>
        <trkpt lat="29.5644649" lon="103.4223026"><ele>706.58</ele><time>2026-03-27T03:48:40.000Z</time></trkpt>
        <trkpt lat="29.5644322" lon="103.4222019"><ele>707.31</ele><time>2026-03-27T03:49:02.000Z</time></trkpt>
        <trkpt lat="29.5644251" lon="103.4220995"><ele>710.62</ele><time>2026-03-27T03:49:20.000Z</time></trkpt>
        <trkpt lat="29.5643872" lon="103.4220089"><ele>715.66</ele><time>2026-03-27T03:49:42.000Z</time></trkpt>
        <trkpt lat="29.564375" lon="103.421905"><ele>719.14</ele><time>2026-03-27T03:50:06.000Z</time></trkpt>
        <trkpt lat="29.5643954" lon="103.4218027"><ele>722.04</ele><time>2026-03-27T03:50:28.000Z</time></trkpt>
        <trkpt lat="29.5643758" lon="103.4217009"><ele>725.56</ele><time>2026-03-27T03:50:52.000Z</time></trkpt>
        <trkpt lat="29.564384" lon="103.4215996"><ele>727.53</ele><time>2026-03-27T03:51:20.000Z</time></trkpt>
        <trkpt lat="29.5643659" lon="103.4214961"><ele>731.95</ele><time>2026-03-27T03:51:46.000Z</time></trkpt>
        <trkpt lat="29.5643537" lon="103.4213911"><ele>736.32</ele><time>2026-03-27T03:52:06.000Z</time></trkpt>
        <trkpt lat="29.5644078" lon="103.4213129"><ele>740.15</ele><time>2026-03-27T03:52:40.000Z</time></trkpt>
        <trkpt lat="29.5645005" lon="103.4212543"><ele>745.2</ele><time>2026-03-27T03:52:54.000Z</time></trkpt>
        <trkpt lat="29.5646008" lon="103.4211982"><ele>749.12</ele><time>2026-03-27T03:53:10.000Z</time></trkpt>
        <trkpt lat="29.5646839" lon="103.4211383"><ele>752.09</ele><time>2026-03-27T03:53:22.000Z</time></trkpt>
        <trkpt lat="29.5647769" lon="103.4211302"><ele>755.81</ele><time>2026-03-27T03:53:48.000Z</time></trkpt>
        <trkpt lat="29.564844" lon="103.4211997"><ele>759.83</ele><time>2026-03-27T03:54:00.000Z</time></trkpt>
        <trkpt lat="29.5649064" lon="103.4212971"><ele>762.88</ele><time>2026-03-27T03:54:14.000Z</time></trkpt>
        <trkpt lat="29.5649539" lon="103.4214104"><ele>766.03</ele><time>2026-03-27T03:54:34.000Z</time></trkpt>
        <trkpt lat="29.5650231" lon="103.4213668"><ele>769.68</ele><time>2026-03-27T03:56:02.000Z</time></trkpt>
        <trkpt lat="29.5651093" lon="103.4213372"><ele>773.52</ele><time>2026-03-27T03:56:34.000Z</time></trkpt>
        <trkpt lat="29.5651994" lon="103.4213103"><ele>776.65</ele><time>2026-03-27T03:56:50.000Z</time></trkpt>
        <trkpt lat="29.5652892" lon="103.4212686"><ele>778.53</ele><time>2026-03-27T03:57:14.000Z</time></trkpt>
        <trkpt lat="29.5653749" lon="103.421227"><ele>782.89</ele><time>2026-03-27T03:57:56.000Z</time></trkpt>
        <trkpt lat="29.5654655" lon="103.4212004"><ele>786.4</ele><time>2026-03-27T03:58:52.000Z</time></trkpt>
        <trkpt lat="29.5655589" lon="103.4211764"><ele>790.46</ele><time>2026-03-27T03:59:08.000Z</time></trkpt>
        <trkpt lat="29.5656503" lon="103.4211577"><ele>792.55</ele><time>2026-03-27T03:59:22.000Z</time></trkpt>
        <trkpt lat="29.5657464" lon="103.4211443"><ele>794.51</ele><time>2026-03-27T03:59:48.000Z</time></trkpt>
        <trkpt lat="29.5658464" lon="103.4211653"><ele>797.47</ele><time>2026-03-27T04:00:14.000Z</time></trkpt>
        <trkpt lat="29.5659478" lon="103.4211782"><ele>800.63</ele><time>2026-03-27T04:00:26.000Z</time></trkpt>
        <trkpt lat="29.5660426" lon="103.4211799"><ele>802.87</ele><time>2026-03-27T04:00:54.000Z</time></trkpt>
        <trkpt lat="29.5661269" lon="103.4212132"><ele>804.54</ele><time>2026-03-27T04:01:18.000Z</time></trkpt>
        <trkpt lat="29.5662111" lon="103.4211912"><ele>806.97</ele><time>2026-03-27T04:01:34.000Z</time></trkpt>
        <trkpt lat="29.5662752" lon="103.4210928"><ele>809.47</ele><time>2026-03-27T04:01:44.000Z</time></trkpt>
        <trkpt lat="29.5663335" lon="103.4209906"><ele>808.7</ele><time>2026-03-27T04:01:54.000Z</time></trkpt>
        <trkpt lat="29.5663402" lon="103.4208763"><ele>808.47</ele><time>2026-03-27T04:02:08.000Z</time></trkpt>
        <trkpt lat="29.5663472" lon="103.4207502"><ele>808.78</ele><time>2026-03-27T04:02:20.000Z</time></trkpt>
        <trkpt lat="29.5663673" lon="103.4206369"><ele>806.48</ele><time>2026-03-27T04:02:28.000Z</time></trkpt>
        <trkpt lat="29.5664183" lon="103.4205426"><ele>805.1</ele><time>2026-03-27T04:02:38.000Z</time></trkpt>
        <trkpt lat="29.5664779" lon="103.4204546"><ele>804.44</ele><time>2026-03-27T04:02:54.000Z</time></trkpt>
        <trkpt lat="29.5665488" lon="103.4203683"><ele>804.35</ele><time>2026-03-27T04:03:06.000Z</time></trkpt>
        <trkpt lat="29.5665985" lon="103.4202705"><ele>803.74</ele><time>2026-03-27T04:03:16.000Z</time></trkpt>
        <trkpt lat="29.566655" lon="103.4201793"><ele>802.28</ele><time>2026-03-27T04:03:26.000Z</time></trkpt>
        <trkpt lat="29.5666934" lon="103.4200791"><ele>799.35</ele><time>2026-03-27T04:03:36.000Z</time></trkpt>
        <trkpt lat="29.5667083" lon="103.4199674"><ele>798.42</ele><time>2026-03-27T04:03:46.000Z</time></trkpt>
        <trkpt lat="29.5667203" lon="103.4198542"><ele>798.2</ele><time>2026-03-27T04:03:58.000Z</time></trkpt>
        <trkpt lat="29.5668108" lon="103.4198887"><ele>798.33</ele><time>2026-03-27T04:05:20.000Z</time></trkpt>
        <trkpt lat="29.5668715" lon="103.4199697"><ele>801.31</ele><time>2026-03-27T04:05:44.000Z</time></trkpt>
        <trkpt lat="29.5669396" lon="103.4200478"><ele>805.87</ele><time>2026-03-27T04:06:20.000Z</time></trkpt>
        <trkpt lat="29.5670078" lon="103.4201182"><ele>813.79</ele><time>2026-03-27T04:06:44.000Z</time></trkpt>
        <trkpt lat="29.5670405" lon="103.4202178"><ele>820.85</ele><time>2026-03-27T04:07:04.000Z</time></trkpt>
        <trkpt lat="29.5670807" lon="103.4203147"><ele>825.24</ele><time>2026-03-27T04:07:38.000Z</time></trkpt>
        <trkpt lat="29.5671475" lon="103.4204012"><ele>828.11</ele><time>2026-03-27T04:08:04.000Z</time></trkpt>
        <trkpt lat="29.5671919" lon="103.4204499"><ele>830.66</ele><time>2026-03-27T04:08:16.000Z</time></trkpt>
        <trkpt lat="29.5672726" lon="103.4204986"><ele>832.61</ele><time>2026-03-27T04:10:32.000Z</time></trkpt>
        <trkpt lat="29.5673651" lon="103.4204765"><ele>834.49</ele><time>2026-03-27T04:10:52.000Z</time></trkpt>
        <trkpt lat="29.5674659" lon="103.4204508"><ele>838.6</ele><time>2026-03-27T04:11:14.000Z</time></trkpt>
        <trkpt lat="29.5675546" lon="103.4204075"><ele>841.98</ele><time>2026-03-27T04:11:38.000Z</time></trkpt>
        <trkpt lat="29.5676445" lon="103.420372"><ele>848.7</ele><time>2026-03-27T04:12:04.000Z</time></trkpt>
        <trkpt lat="29.5677335" lon="103.4203318"><ele>854.7</ele><time>2026-03-27T04:12:30.000Z</time></trkpt>
        <trkpt lat="29.5678122" lon="103.4202638"><ele>860.76</ele><time>2026-03-27T04:12:46.000Z</time></trkpt>
        <trkpt lat="29.5678966" lon="103.4202198"><ele>865.39</ele><time>2026-03-27T04:13:08.000Z</time></trkpt>
        <trkpt lat="29.5679816" lon="103.4201782"><ele>869.19</ele><time>2026-03-27T04:13:32.000Z</time></trkpt>
        <trkpt lat="29.5680693" lon="103.4201397"><ele>872.61</ele><time>2026-03-27T04:13:58.000Z</time></trkpt>
        <trkpt lat="29.5681589" lon="103.4201161"><ele>876.72</ele><time>2026-03-27T04:14:24.000Z</time></trkpt>
        <trkpt lat="29.5682521" lon="103.4201014"><ele>880.84</ele><time>2026-03-27T04:14:42.000Z</time></trkpt>
        <trkpt lat="29.5683464" lon="103.4200966"><ele>882</ele><time>2026-03-27T04:15:06.000Z</time></trkpt>
        <trkpt lat="29.5684387" lon="103.4200865"><ele>884.63</ele><time>2026-03-27T04:15:34.000Z</time></trkpt>
        <trkpt lat="29.5685339" lon="103.4200967"><ele>889.08</ele><time>2026-03-27T04:16:12.000Z</time></trkpt>
        <trkpt lat="29.5686272" lon="103.4201175"><ele>896.1</ele><time>2026-03-27T04:16:26.000Z</time></trkpt>
        <trkpt lat="29.5687193" lon="103.4201003"><ele>900.27</ele><time>2026-03-27T04:16:46.000Z</time></trkpt>
        <trkpt lat="29.5688127" lon="103.4200706"><ele>903.58</ele><time>2026-03-27T04:17:04.000Z</time></trkpt>
        <trkpt lat="29.5688921" lon="103.4200169"><ele>905.61</ele><time>2026-03-27T04:17:22.000Z</time></trkpt>
        <trkpt lat="29.5689746" lon="103.4199517"><ele>907.11</ele><time>2026-03-27T04:17:40.000Z</time></trkpt>
        <trkpt lat="29.5689973" lon="103.4199265"><ele>906.92</ele><time>2026-03-27T04:17:42.000Z</time></trkpt>
        <trkpt lat="29.5690431" lon="103.4198623"><ele>906.77</ele><time>2026-03-27T04:20:46.000Z</time></trkpt>
        <trkpt lat="29.5691355" lon="103.4198346"><ele>904.16</ele><time>2026-03-27T04:20:58.000Z</time></trkpt>
        <trkpt lat="29.5692244" lon="103.4198031"><ele>902.26</ele><time>2026-03-27T04:21:08.000Z</time></trkpt>
        <trkpt lat="29.5693174" lon="103.4197797"><ele>899.72</ele><time>2026-03-27T04:21:22.000Z</time></trkpt>
        <trkpt lat="29.5694091" lon="103.4197733"><ele>895.99</ele><time>2026-03-27T04:21:40.000Z</time></trkpt>
        <trkpt lat="29.5695084" lon="103.4197854"><ele>892.67</ele><time>2026-03-27T04:21:50.000Z</time></trkpt>
        <trkpt lat="29.5696027" lon="103.4197548"><ele>891.89</ele><time>2026-03-27T04:22:00.000Z</time></trkpt>
        <trkpt lat="29.5696947" lon="103.4197332"><ele>890.16</ele><time>2026-03-27T04:22:12.000Z</time></trkpt>
        <trkpt lat="29.5696419" lon="103.419723"><ele>888.99</ele><time>2026-03-27T04:23:06.000Z</time></trkpt>
        <trkpt lat="29.5695567" lon="103.4196559"><ele>889.16</ele><time>2026-03-27T04:23:22.000Z</time></trkpt>
        <trkpt lat="29.5695749" lon="103.4195818"><ele>889.81</ele><time>2026-03-27T04:23:32.000Z</time></trkpt>
        <trkpt lat="29.5696269" lon="103.419492"><ele>889.89</ele><time>2026-03-27T04:23:40.000Z</time></trkpt>
        <trkpt lat="29.5696927" lon="103.4193878"><ele>887.67</ele><time>2026-03-27T04:23:50.000Z</time></trkpt>
        <trkpt lat="29.5697511" lon="103.4192856"><ele>885.09</ele><time>2026-03-27T04:24:00.000Z</time></trkpt>
        <trkpt lat="29.5698076" lon="103.4191748"><ele>882.45</ele><time>2026-03-27T04:24:14.000Z</time></trkpt>
        <trkpt lat="29.5698017" lon="103.4190638"><ele>879.78</ele><time>2026-03-27T04:24:24.000Z</time></trkpt>
        <trkpt lat="29.5697964" lon="103.4189462"><ele>877.87</ele><time>2026-03-27T04:24:34.000Z</time></trkpt>
        <trkpt lat="29.5697948" lon="103.4188347"><ele>877.14</ele><time>2026-03-27T04:24:46.000Z</time></trkpt>
        <trkpt lat="29.5698044" lon="103.4187268"><ele>877.15</ele><time>2026-03-27T04:24:56.000Z</time></trkpt>
        <trkpt lat="29.5698351" lon="103.4186177"><ele>877.84</ele><time>2026-03-27T04:25:06.000Z</time></trkpt>
        <trkpt lat="29.5698609" lon="103.418503"><ele>878.32</ele><time>2026-03-27T04:25:16.000Z</time></trkpt>
        <trkpt lat="29.5698697" lon="103.4183773"><ele>879.07</ele><time>2026-03-27T04:25:30.000Z</time></trkpt>
        <trkpt lat="29.5698883" lon="103.4182566"><ele>879.01</ele><time>2026-03-27T04:25:42.000Z</time></trkpt>
        <trkpt lat="29.5698864" lon="103.4181402"><ele>879.82</ele><time>2026-03-27T04:25:52.000Z</time></trkpt>
        <trkpt lat="29.5699231" lon="103.4180304"><ele>879.62</ele><time>2026-03-27T04:26:04.000Z</time></trkpt>
        <trkpt lat="29.56997" lon="103.4179232"><ele>878.88</ele><time>2026-03-27T04:26:14.000Z</time></trkpt>
        <trkpt lat="29.5700232" lon="103.4178252"><ele>877.87</ele><time>2026-03-27T04:26:24.000Z</time></trkpt>
        <trkpt lat="29.5700698" lon="103.4177275"><ele>876.15</ele><time>2026-03-27T04:26:34.000Z</time></trkpt>
        <trkpt lat="29.5700793" lon="103.4176149"><ele>874.32</ele><time>2026-03-27T04:26:46.000Z</time></trkpt>
        <trkpt lat="29.5700605" lon="103.417508"><ele>872.41</ele><time>2026-03-27T04:26:58.000Z</time></trkpt>
        <trkpt lat="29.5700671" lon="103.4174011"><ele>870.64</ele><time>2026-03-27T04:27:06.000Z</time></trkpt>
        <trkpt lat="29.5700786" lon="103.4172889"><ele>869.09</ele><time>2026-03-27T04:27:16.000Z</time></trkpt>
        <trkpt lat="29.5700993" lon="103.4171676"><ele>869.22</ele><time>2026-03-27T04:27:26.000Z</time></trkpt>
        <trkpt lat="29.5701582" lon="103.4170639"><ele>870.04</ele><time>2026-03-27T04:27:36.000Z</time></trkpt>
        <trkpt lat="29.5702466" lon="103.4170204"><ele>871.21</ele><time>2026-03-27T04:27:48.000Z</time></trkpt>
        <trkpt lat="29.5703441" lon="103.4170188"><ele>871.24</ele><time>2026-03-27T04:28:00.000Z</time></trkpt>
        <trkpt lat="29.5704061" lon="103.4169447"><ele>871.41</ele><time>2026-03-27T04:28:12.000Z</time></trkpt>
        <trkpt lat="29.5704156" lon="103.4168358"><ele>870.77</ele><time>2026-03-27T04:28:26.000Z</time></trkpt>
        <trkpt lat="29.5703881" lon="103.4167281"><ele>870.15</ele><time>2026-03-27T04:28:34.000Z</time></trkpt>
        <trkpt lat="29.5703805" lon="103.416601"><ele>868.91</ele><time>2026-03-27T04:28:46.000Z</time></trkpt>
        <trkpt lat="29.5703898" lon="103.416487"><ele>868.23</ele><time>2026-03-27T04:28:54.000Z</time></trkpt>
        <trkpt lat="29.570401" lon="103.4163685"><ele>867.3</ele><time>2026-03-27T04:29:04.000Z</time></trkpt>
        <trkpt lat="29.570398" lon="103.416255"><ele>866.37</ele><time>2026-03-27T04:29:14.000Z</time></trkpt>
        <trkpt lat="29.570442" lon="103.4161566"><ele>865.6</ele><time>2026-03-27T04:29:24.000Z</time></trkpt>
        <trkpt lat="29.5705249" lon="103.41611"><ele>866.4</ele><time>2026-03-27T04:29:34.000Z</time></trkpt>
        <trkpt lat="29.5706204" lon="103.4160771"><ele>866.21</ele><time>2026-03-27T04:29:46.000Z</time></trkpt>
        <trkpt lat="29.5707165" lon="103.416034"><ele>867.38</ele><time>2026-03-27T04:30:06.000Z</time></trkpt>
        <trkpt lat="29.570789" lon="103.415966"><ele>868.69</ele><time>2026-03-27T04:30:24.000Z</time></trkpt>
        <trkpt lat="29.5707606" lon="103.4158866"><ele>871.4</ele><time>2026-03-27T04:30:42.000Z</time></trkpt>
        <trkpt lat="29.5706846" lon="103.415805"><ele>874.02</ele><time>2026-03-27T04:30:52.000Z</time></trkpt>
        <trkpt lat="29.5705798" lon="103.4157648"><ele>875.22</ele><time>2026-03-27T04:31:02.000Z</time></trkpt>
        <trkpt lat="29.5704851" lon="103.4157067"><ele>876.19</ele><time>2026-03-27T04:31:12.000Z</time></trkpt>
        <trkpt lat="29.5704104" lon="103.4156243"><ele>875.44</ele><time>2026-03-27T04:31:22.000Z</time></trkpt>
        <trkpt lat="29.5703227" lon="103.4155503"><ele>875.97</ele><time>2026-03-27T04:31:34.000Z</time></trkpt>
        <trkpt lat="29.5702564" lon="103.4155191"><ele>876.24</ele><time>2026-03-27T04:31:44.000Z</time></trkpt>
        <trkpt lat="29.5701684" lon="103.4155164"><ele>877.16</ele><time>2026-03-27T04:32:02.000Z</time></trkpt>
        <trkpt lat="29.5700846" lon="103.4154761"><ele>878.28</ele><time>2026-03-27T04:32:14.000Z</time></trkpt>
        <trkpt lat="29.570001" lon="103.4154102"><ele>879.29</ele><time>2026-03-27T04:32:26.000Z</time></trkpt>
        <trkpt lat="29.5699308" lon="103.4153204"><ele>880.05</ele><time>2026-03-27T04:32:36.000Z</time></trkpt>
        <trkpt lat="29.569901" lon="103.4152018"><ele>880.32</ele><time>2026-03-27T04:32:48.000Z</time></trkpt>
        <trkpt lat="29.569912" lon="103.4150828"><ele>882.39</ele><time>2026-03-27T04:32:58.000Z</time></trkpt>
        <trkpt lat="29.5699127" lon="103.4149586"><ele>883.61</ele><time>2026-03-27T04:33:08.000Z</time></trkpt>
        <trkpt lat="29.5698762" lon="103.4148523"><ele>884.12</ele><time>2026-03-27T04:33:18.000Z</time></trkpt>
        <trkpt lat="29.5698104" lon="103.4147713"><ele>885.41</ele><time>2026-03-27T04:33:28.000Z</time></trkpt>
        <trkpt lat="29.5697367" lon="103.4146981"><ele>885.98</ele><time>2026-03-27T04:33:38.000Z</time></trkpt>
        <trkpt lat="29.569634" lon="103.4146734"><ele>886.16</ele><time>2026-03-27T04:33:50.000Z</time></trkpt>
        <trkpt lat="29.5695391" lon="103.4147173"><ele>884.76</ele><time>2026-03-27T04:34:02.000Z</time></trkpt>
        <trkpt lat="29.5694497" lon="103.4147675"><ele>883.67</ele><time>2026-03-27T04:34:12.000Z</time></trkpt>
        <trkpt lat="29.5693502" lon="103.4148166"><ele>883.13</ele><time>2026-03-27T04:34:26.000Z</time></trkpt>
        <trkpt lat="29.5692679" lon="103.4147721"><ele>883.41</ele><time>2026-03-27T04:34:56.000Z</time></trkpt>
        <trkpt lat="29.5692004" lon="103.4146938"><ele>883.6</ele><time>2026-03-27T04:35:04.000Z</time></trkpt>
        <trkpt lat="29.5691866" lon="103.4146402"><ele>883.75</ele><time>2026-03-27T04:35:12.000Z</time></trkpt>
        <trkpt lat="29.5691451" lon="103.4145609"><ele>883.72</ele><time>2026-03-27T04:35:30.000Z</time></trkpt>
        <trkpt lat="29.5691116" lon="103.4144576"><ele>883.25</ele><time>2026-03-27T04:35:38.000Z</time></trkpt>
        <trkpt lat="29.5691257" lon="103.4143478"><ele>881.97</ele><time>2026-03-27T04:35:48.000Z</time></trkpt>
        <trkpt lat="29.5691337" lon="103.4142371"><ele>880.91</ele><time>2026-03-27T04:35:58.000Z</time></trkpt>
        <trkpt lat="29.5691206" lon="103.4141206"><ele>880.06</ele><time>2026-03-27T04:36:10.000Z</time></trkpt>
        <trkpt lat="29.5691301" lon="103.4140119"><ele>879.45</ele><time>2026-03-27T04:36:20.000Z</time></trkpt>
        <trkpt lat="29.5691701" lon="103.4139183"><ele>878.69</ele><time>2026-03-27T04:36:30.000Z</time></trkpt>
        <trkpt lat="29.5691837" lon="103.4138158"><ele>878.72</ele><time>2026-03-27T04:36:42.000Z</time></trkpt>
        <trkpt lat="29.5691487" lon="103.4137188"><ele>878.56</ele><time>2026-03-27T04:36:52.000Z</time></trkpt>
        <trkpt lat="29.5690941" lon="103.4136113"><ele>878.64</ele><time>2026-03-27T04:37:04.000Z</time></trkpt>
        <trkpt lat="29.5690489" lon="103.4135075"><ele>877.76</ele><time>2026-03-27T04:37:16.000Z</time></trkpt>
        <trkpt lat="29.5690255" lon="103.4133982"><ele>877.21</ele><time>2026-03-27T04:37:32.000Z</time></trkpt>
        <trkpt lat="29.5690493" lon="103.4132817"><ele>876.16</ele><time>2026-03-27T04:38:40.000Z</time></trkpt>
        <trkpt lat="29.5690375" lon="103.4131654"><ele>874.91</ele><time>2026-03-27T04:38:56.000Z</time></trkpt>
        <trkpt lat="29.5690904" lon="103.4130739"><ele>874.19</ele><time>2026-03-27T04:39:26.000Z</time></trkpt>
        <trkpt lat="29.5691353" lon="103.4129748"><ele>873.23</ele><time>2026-03-27T04:39:40.000Z</time></trkpt>
        <trkpt lat="29.5691993" lon="103.4128933"><ele>871.48</ele><time>2026-03-27T04:39:52.000Z</time></trkpt>
        <trkpt lat="29.5692734" lon="103.4128199"><ele>870.23</ele><time>2026-03-27T04:40:02.000Z</time></trkpt>
        <trkpt lat="29.5693522" lon="103.4127566"><ele>869.63</ele><time>2026-03-27T04:40:12.000Z</time></trkpt>
        <trkpt lat="29.569444" lon="103.4127004"><ele>869.44</ele><time>2026-03-27T04:40:22.000Z</time></trkpt>
        <trkpt lat="29.569456" lon="103.4126094"><ele>869.32</ele><time>2026-03-27T04:40:34.000Z</time></trkpt>
        <trkpt lat="29.5694142" lon="103.4125136"><ele>868.67</ele><time>2026-03-27T04:40:44.000Z</time></trkpt>
        <trkpt lat="29.5693838" lon="103.4124057"><ele>867.36</ele><time>2026-03-27T04:41:44.000Z</time></trkpt>
        <trkpt lat="29.5693572" lon="103.4122945"><ele>867.71</ele><time>2026-03-27T04:42:06.000Z</time></trkpt>
        <trkpt lat="29.569338" lon="103.4121879"><ele>865.31</ele><time>2026-03-27T04:42:44.000Z</time></trkpt>
        <trkpt lat="29.5692592" lon="103.4121557"><ele>862.5</ele><time>2026-03-27T04:43:04.000Z</time></trkpt>
        <trkpt lat="29.5691621" lon="103.4121567"><ele>860.3</ele><time>2026-03-27T04:43:26.000Z</time></trkpt>
        <trkpt lat="29.5690719" lon="103.4121253"><ele>857.56</ele><time>2026-03-27T04:43:42.000Z</time></trkpt>
        <trkpt lat="29.5689941" lon="103.4120685"><ele>854.32</ele><time>2026-03-27T04:44:00.000Z</time></trkpt>
        <trkpt lat="29.5689409" lon="103.4119802"><ele>851.35</ele><time>2026-03-27T04:44:14.000Z</time></trkpt>
        <trkpt lat="29.5688854" lon="103.4118786"><ele>849.49</ele><time>2026-03-27T04:44:26.000Z</time></trkpt>
        <trkpt lat="29.5687975" lon="103.4118278"><ele>849.08</ele><time>2026-03-27T04:44:38.000Z</time></trkpt>
        <trkpt lat="29.5686991" lon="103.4118117"><ele>848.63</ele><time>2026-03-27T04:44:52.000Z</time></trkpt>
        <trkpt lat="29.5686019" lon="103.4117993"><ele>848.9</ele><time>2026-03-27T04:45:06.000Z</time></trkpt>
        <trkpt lat="29.5685408" lon="103.4117305"><ele>849.54</ele><time>2026-03-27T04:45:32.000Z</time></trkpt>
        <trkpt lat="29.5684748" lon="103.4116583"><ele>847.34</ele><time>2026-03-27T04:45:48.000Z</time></trkpt>
        <trkpt lat="29.568406" lon="103.4115698"><ele>843.09</ele><time>2026-03-27T04:46:00.000Z</time></trkpt>
        <trkpt lat="29.568372" lon="103.4114622"><ele>839.54</ele><time>2026-03-27T04:46:10.000Z</time></trkpt>
        <trkpt lat="29.5683975" lon="103.4113591"><ele>837.6</ele><time>2026-03-27T04:46:20.000Z</time></trkpt>
        <trkpt lat="29.5684444" lon="103.4112534"><ele>835.06</ele><time>2026-03-27T04:46:30.000Z</time></trkpt>
        <trkpt lat="29.5685023" lon="103.4111545"><ele>833.72</ele><time>2026-03-27T04:46:42.000Z</time></trkpt>
        <trkpt lat="29.5685437" lon="103.4110476"><ele>833.19</ele><time>2026-03-27T04:46:52.000Z</time></trkpt>
        <trkpt lat="29.5685591" lon="103.4109365"><ele>833.23</ele><time>2026-03-27T04:47:04.000Z</time></trkpt>
        <trkpt lat="29.5685828" lon="103.4108288"><ele>833.04</ele><time>2026-03-27T04:47:16.000Z</time></trkpt>
        <trkpt lat="29.5686115" lon="103.4107236"><ele>832.64</ele><time>2026-03-27T04:47:42.000Z</time></trkpt>
        <trkpt lat="29.5686448" lon="103.4106153"><ele>830.58</ele><time>2026-03-27T04:47:54.000Z</time></trkpt>
        <trkpt lat="29.5686708" lon="103.4104997"><ele>829.36</ele><time>2026-03-27T04:48:06.000Z</time></trkpt>
        <trkpt lat="29.5686832" lon="103.4103839"><ele>829.04</ele><time>2026-03-27T04:48:16.000Z</time></trkpt>
        <trkpt lat="29.5686744" lon="103.4102609"><ele>828.6</ele><time>2026-03-27T04:48:26.000Z</time></trkpt>
        <trkpt lat="29.5687049" lon="103.410157"><ele>828.5</ele><time>2026-03-27T04:48:36.000Z</time></trkpt>
        <trkpt lat="29.5686798" lon="103.4100576"><ele>828.25</ele><time>2026-03-27T04:48:46.000Z</time></trkpt>
        <trkpt lat="29.5686138" lon="103.4099709"><ele>828.5</ele><time>2026-03-27T04:48:56.000Z</time></trkpt>
        <trkpt lat="29.5685344" lon="103.4099034"><ele>828.32</ele><time>2026-03-27T04:49:06.000Z</time></trkpt>
        <trkpt lat="29.5684437" lon="103.4098626"><ele>828.26</ele><time>2026-03-27T04:49:20.000Z</time></trkpt>
        <trkpt lat="29.5683818" lon="103.409788"><ele>828.12</ele><time>2026-03-27T04:50:22.000Z</time></trkpt>
        <trkpt lat="29.5683442" lon="103.4096848"><ele>826.57</ele><time>2026-03-27T04:50:40.000Z</time></trkpt>
        <trkpt lat="29.5683166" lon="103.4095847"><ele>824.55</ele><time>2026-03-27T04:51:02.000Z</time></trkpt>
        <trkpt lat="29.5682796" lon="103.4094848"><ele>823.41</ele><time>2026-03-27T04:51:22.000Z</time></trkpt>
        <trkpt lat="29.5682355" lon="103.4093869"><ele>822.41</ele><time>2026-03-27T04:51:46.000Z</time></trkpt>
        <trkpt lat="29.5681798" lon="103.4093024"><ele>820.8</ele><time>2026-03-27T04:52:10.000Z</time></trkpt>
        <trkpt lat="29.5681457" lon="103.4092018"><ele>819.91</ele><time>2026-03-27T04:52:34.000Z</time></trkpt>
        <trkpt lat="29.5681044" lon="103.4091021"><ele>818.64</ele><time>2026-03-27T04:52:52.000Z</time></trkpt>
        <trkpt lat="29.5680542" lon="103.4090127"><ele>816.93</ele><time>2026-03-27T04:53:16.000Z</time></trkpt>
        <trkpt lat="29.5679985" lon="103.4089305"><ele>813.5</ele><time>2026-03-27T04:53:42.000Z</time></trkpt>
        <trkpt lat="29.5679531" lon="103.4088398"><ele>808.29</ele><time>2026-03-27T04:54:00.000Z</time></trkpt>
        <trkpt lat="29.5679211" lon="103.4087333"><ele>803.54</ele><time>2026-03-27T04:54:18.000Z</time></trkpt>
        <trkpt lat="29.5678872" lon="103.408623"><ele>799.64</ele><time>2026-03-27T04:54:38.000Z</time></trkpt>
        <trkpt lat="29.5678384" lon="103.4085317"><ele>795.66</ele><time>2026-03-27T04:54:56.000Z</time></trkpt>
        <trkpt lat="29.5677833" lon="103.408449"><ele>792.13</ele><time>2026-03-27T04:55:14.000Z</time></trkpt>
        <trkpt lat="29.5677131" lon="103.4083796"><ele>788.79</ele><time>2026-03-27T04:55:36.000Z</time></trkpt>
        <trkpt lat="29.5676341" lon="103.4084176"><ele>786.67</ele><time>2026-03-27T04:56:04.000Z</time></trkpt>
        <trkpt lat="29.5675929" lon="103.4085219"><ele>784.12</ele><time>2026-03-27T04:56:14.000Z</time></trkpt>
        <trkpt lat="29.5675333" lon="103.4086222"><ele>783.07</ele><time>2026-03-27T04:56:26.000Z</time></trkpt>
        <trkpt lat="29.567444" lon="103.4086153"><ele>783.28</ele><time>2026-03-27T04:56:38.000Z</time></trkpt>
        <trkpt lat="29.5673578" lon="103.4085487"><ele>782.8</ele><time>2026-03-27T04:56:48.000Z</time></trkpt>
        <trkpt lat="29.5672683" lon="103.4085002"><ele>782.34</ele><time>2026-03-27T04:56:58.000Z</time></trkpt>
        <trkpt lat="29.5671714" lon="103.408462"><ele>781.48</ele><time>2026-03-27T04:57:08.000Z</time></trkpt>
        <trkpt lat="29.5670761" lon="103.4084489"><ele>780.66</ele><time>2026-03-27T04:57:18.000Z</time></trkpt>
        <trkpt lat="29.5669729" lon="103.4084487"><ele>780.05</ele><time>2026-03-27T04:57:30.000Z</time></trkpt>
        <trkpt lat="29.5668987" lon="103.4084601"><ele>779.72</ele><time>2026-03-27T04:57:38.000Z</time></trkpt>
        <trkpt lat="29.5668078" lon="103.4084269"><ele>778.93</ele><time>2026-03-27T04:57:52.000Z</time></trkpt>
        <trkpt lat="29.566737" lon="103.4083676"><ele>777.36</ele><time>2026-03-27T04:58:02.000Z</time></trkpt>
        <trkpt lat="29.5666928" lon="103.4082741"><ele>775.48</ele><time>2026-03-27T04:58:12.000Z</time></trkpt>
        <trkpt lat="29.5666887" lon="103.4081655"><ele>774.42</ele><time>2026-03-27T04:58:22.000Z</time></trkpt>
        <trkpt lat="29.5667068" lon="103.4080441"><ele>773.18</ele><time>2026-03-27T04:58:34.000Z</time></trkpt>
        <trkpt lat="29.5666951" lon="103.4079292"><ele>772.96</ele><time>2026-03-27T04:58:46.000Z</time></trkpt>
        <trkpt lat="29.5666407" lon="103.407945"><ele>773.82</ele><time>2026-03-27T04:58:58.000Z</time></trkpt>
        <trkpt lat="29.5666597" lon="103.4078863"><ele>774.67</ele><time>2026-03-27T04:59:44.000Z</time></trkpt>
        <trkpt lat="29.5666557" lon="103.4077936"><ele>774.89</ele><time>2026-03-27T04:59:52.000Z</time></trkpt>
        <trkpt lat="29.5666505" lon="103.4076848"><ele>774.51</ele><time>2026-03-27T05:00:00.000Z</time></trkpt>
        <trkpt lat="29.5666504" lon="103.4075703"><ele>773.88</ele><time>2026-03-27T05:00:08.000Z</time></trkpt>
        <trkpt lat="29.5666196" lon="103.4074691"><ele>773.68</ele><time>2026-03-27T05:00:16.000Z</time></trkpt>
        <trkpt lat="29.5665626" lon="103.4073865"><ele>773.58</ele><time>2026-03-27T05:00:24.000Z</time></trkpt>
        <trkpt lat="29.5665181" lon="103.4072921"><ele>774.02</ele><time>2026-03-27T05:00:34.000Z</time></trkpt>
        <trkpt lat="29.5664847" lon="103.4071819"><ele>773.68</ele><time>2026-03-27T05:00:44.000Z</time></trkpt>
        <trkpt lat="29.5664574" lon="103.4070626"><ele>772.93</ele><time>2026-03-27T05:00:54.000Z</time></trkpt>
        <trkpt lat="29.5664506" lon="103.4069402"><ele>772.68</ele><time>2026-03-27T05:01:06.000Z</time></trkpt>
        <trkpt lat="29.5664811" lon="103.4068342"><ele>772.06</ele><time>2026-03-27T05:01:38.000Z</time></trkpt>
        <trkpt lat="29.5665494" lon="103.4067496"><ele>771.53</ele><time>2026-03-27T05:01:54.000Z</time></trkpt>
        <trkpt lat="29.5666382" lon="103.4066678"><ele>771.09</ele><time>2026-03-27T05:02:08.000Z</time></trkpt>
        <trkpt lat="29.5667258" lon="103.4065853"><ele>770.56</ele><time>2026-03-27T05:02:18.000Z</time></trkpt>
        <trkpt lat="29.5668072" lon="103.4065021"><ele>769.91</ele><time>2026-03-27T05:02:28.000Z</time></trkpt>
        <trkpt lat="29.5668822" lon="103.4064118"><ele>768.99</ele><time>2026-03-27T05:02:38.000Z</time></trkpt>
        <trkpt lat="29.5669395" lon="103.4063175"><ele>767.69</ele><time>2026-03-27T05:02:48.000Z</time></trkpt>
        <trkpt lat="29.5669961" lon="103.4062148"><ele>766.22</ele><time>2026-03-27T05:02:58.000Z</time></trkpt>
        <trkpt lat="29.5670511" lon="103.4061073"><ele>764.87</ele><time>2026-03-27T05:03:08.000Z</time></trkpt>
        <trkpt lat="29.5671047" lon="103.4060171"><ele>763.73</ele><time>2026-03-27T05:03:16.000Z</time></trkpt>
        <trkpt lat="29.5671573" lon="103.4059137"><ele>762.9</ele><time>2026-03-27T05:03:26.000Z</time></trkpt>
        <trkpt lat="29.5671892" lon="103.4058111"><ele>761.87</ele><time>2026-03-27T05:03:34.000Z</time></trkpt>
        <trkpt lat="29.5671511" lon="103.4057145"><ele>761.39</ele><time>2026-03-27T05:03:44.000Z</time></trkpt>
        <trkpt lat="29.5670781" lon="103.4056338"><ele>761.65</ele><time>2026-03-27T05:03:52.000Z</time></trkpt>
        <trkpt lat="29.5670022" lon="103.4055332"><ele>762.35</ele><time>2026-03-27T05:04:02.000Z</time></trkpt>
        <trkpt lat="29.5669209" lon="103.405452"><ele>763.08</ele><time>2026-03-27T05:04:12.000Z</time></trkpt>
        <trkpt lat="29.5668466" lon="103.4053737"><ele>762.7</ele><time>2026-03-27T05:04:22.000Z</time></trkpt>
        <trkpt lat="29.5667901" lon="103.4052876"><ele>761.73</ele><time>2026-03-27T05:04:30.000Z</time></trkpt>
        <trkpt lat="29.5667617" lon="103.4051734"><ele>761.29</ele><time>2026-03-27T05:04:40.000Z</time></trkpt>
        <trkpt lat="29.5668122" lon="103.4050839"><ele>760.54</ele><time>2026-03-27T05:04:54.000Z</time></trkpt>
        <trkpt lat="29.5669143" lon="103.4050782"><ele>759.41</ele><time>2026-03-27T05:05:04.000Z</time></trkpt>
        <trkpt lat="29.567032" lon="103.4050877"><ele>758.13</ele><time>2026-03-27T05:05:14.000Z</time></trkpt>
        <trkpt lat="29.5671464" lon="103.4050715"><ele>756.81</ele><time>2026-03-27T05:05:24.000Z</time></trkpt>
        <trkpt lat="29.5672567" lon="103.4050466"><ele>755.78</ele><time>2026-03-27T05:05:34.000Z</time></trkpt>
        <trkpt lat="29.5673573" lon="103.4050217"><ele>754.12</ele><time>2026-03-27T05:05:44.000Z</time></trkpt>
        <trkpt lat="29.5674641" lon="103.4050106"><ele>753.33</ele><time>2026-03-27T05:05:54.000Z</time></trkpt>
        <trkpt lat="29.5675676" lon="103.4050236"><ele>752.85</ele><time>2026-03-27T05:06:04.000Z</time></trkpt>
        <trkpt lat="29.5676677" lon="103.405045"><ele>752.68</ele><time>2026-03-27T05:06:14.000Z</time></trkpt>
        <trkpt lat="29.5677738" lon="103.4050534"><ele>751.99</ele><time>2026-03-27T05:06:24.000Z</time></trkpt>
        <trkpt lat="29.5678677" lon="103.4050415"><ele>751.54</ele><time>2026-03-27T05:06:32.000Z</time></trkpt>
        <trkpt lat="29.5679651" lon="103.4049943"><ele>751.42</ele><time>2026-03-27T05:06:42.000Z</time></trkpt>
        <trkpt lat="29.5680533" lon="103.4049315"><ele>751.3</ele><time>2026-03-27T05:06:52.000Z</time></trkpt>
        <trkpt lat="29.568143" lon="103.4048683"><ele>751.44</ele><time>2026-03-27T05:07:02.000Z</time></trkpt>
        <trkpt lat="29.5682288" lon="103.4048234"><ele>751.89</ele><time>2026-03-27T05:07:10.000Z</time></trkpt>
        <trkpt lat="29.5683073" lon="103.4047682"><ele>752.04</ele><time>2026-03-27T05:07:20.000Z</time></trkpt>
        <trkpt lat="29.5683782" lon="103.4046902"><ele>751.86</ele><time>2026-03-27T05:07:30.000Z</time></trkpt>
        <trkpt lat="29.5684297" lon="103.4046015"><ele>751.86</ele><time>2026-03-27T05:07:40.000Z</time></trkpt>
        <trkpt lat="29.5684745" lon="103.4045057"><ele>751.43</ele><time>2026-03-27T05:07:50.000Z</time></trkpt>
        <trkpt lat="29.5685285" lon="103.4044017"><ele>750.21</ele><time>2026-03-27T05:08:00.000Z</time></trkpt>
        <trkpt lat="29.5685802" lon="103.4042962"><ele>749.69</ele><time>2026-03-27T05:08:10.000Z</time></trkpt>
        <trkpt lat="29.5686344" lon="103.4041938"><ele>749.59</ele><time>2026-03-27T05:08:20.000Z</time></trkpt>
        <trkpt lat="29.5686923" lon="103.4040993"><ele>748.8</ele><time>2026-03-27T05:08:30.000Z</time></trkpt>
        <trkpt lat="29.5687634" lon="103.4040044"><ele>747.27</ele><time>2026-03-27T05:08:40.000Z</time></trkpt>
        <trkpt lat="29.5688268" lon="103.4039212"><ele>745.92</ele><time>2026-03-27T05:08:48.000Z</time></trkpt>
        <trkpt lat="29.5689188" lon="103.4038722"><ele>744.71</ele><time>2026-03-27T05:08:58.000Z</time></trkpt>
        <trkpt lat="29.5690091" lon="103.4038909"><ele>743.52</ele><time>2026-03-27T05:09:06.000Z</time></trkpt>
        <trkpt lat="29.5691109" lon="103.4039355"><ele>742.57</ele><time>2026-03-27T05:09:16.000Z</time></trkpt>
        <trkpt lat="29.5692119" lon="103.4039304"><ele>742.39</ele><time>2026-03-27T05:09:26.000Z</time></trkpt>
        <trkpt lat="29.5693118" lon="103.4038881"><ele>742.05</ele><time>2026-03-27T05:09:36.000Z</time></trkpt>
        <trkpt lat="29.569408" lon="103.4038299"><ele>741.68</ele><time>2026-03-27T05:09:46.000Z</time></trkpt>
        <trkpt lat="29.5694923" lon="103.4037733"><ele>740.97</ele><time>2026-03-27T05:09:54.000Z</time></trkpt>
        <trkpt lat="29.5695809" lon="103.4037032"><ele>740.25</ele><time>2026-03-27T05:10:04.000Z</time></trkpt>
        <trkpt lat="29.5696644" lon="103.4036253"><ele>739.38</ele><time>2026-03-27T05:10:14.000Z</time></trkpt>
        <trkpt lat="29.5697305" lon="103.403542"><ele>738.24</ele><time>2026-03-27T05:10:24.000Z</time></trkpt>
        <trkpt lat="29.5697982" lon="103.4034504"><ele>737.35</ele><time>2026-03-27T05:10:34.000Z</time></trkpt>
        <trkpt lat="29.5698593" lon="103.4033497"><ele>736.85</ele><time>2026-03-27T05:10:44.000Z</time></trkpt>
        <trkpt lat="29.5699301" lon="103.4032492"><ele>736.4</ele><time>2026-03-27T05:10:54.000Z</time></trkpt>
        <trkpt lat="29.569998" lon="103.4031707"><ele>736.68</ele><time>2026-03-27T05:11:02.000Z</time></trkpt>
        <trkpt lat="29.5700361" lon="103.4030634"><ele>736.59</ele><time>2026-03-27T05:11:14.000Z</time></trkpt>
        <trkpt lat="29.5700695" lon="103.4029495"><ele>734.68</ele><time>2026-03-27T05:11:24.000Z</time></trkpt>
        <trkpt lat="29.5701269" lon="103.4028504"><ele>733.22</ele><time>2026-03-27T05:11:34.000Z</time></trkpt>
        <trkpt lat="29.5702103" lon="103.402797"><ele>731.46</ele><time>2026-03-27T05:11:44.000Z</time></trkpt>
        <trkpt lat="29.5703039" lon="103.4027746"><ele>730.84</ele><time>2026-03-27T05:11:52.000Z</time></trkpt>
        <trkpt lat="29.5704068" lon="103.4027646"><ele>730.78</ele><time>2026-03-27T05:12:00.000Z</time></trkpt>
        <trkpt lat="29.5705026" lon="103.4027575"><ele>731.4</ele><time>2026-03-27T05:12:08.000Z</time></trkpt>
        <trkpt lat="29.5706032" lon="103.4027573"><ele>731.44</ele><time>2026-03-27T05:12:18.000Z</time></trkpt>
        <trkpt lat="29.5707113" lon="103.4027444"><ele>731.31</ele><time>2026-03-27T05:12:28.000Z</time></trkpt>
        <trkpt lat="29.5708079" lon="103.4027098"><ele>730.42</ele><time>2026-03-27T05:12:38.000Z</time></trkpt>
        <trkpt lat="29.5709047" lon="103.4026669"><ele>729.62</ele><time>2026-03-27T05:12:50.000Z</time></trkpt>
        <trkpt lat="29.570996" lon="103.4026215"><ele>728.48</ele><time>2026-03-27T05:13:00.000Z</time></trkpt>
        <trkpt lat="29.5710803" lon="103.4025647"><ele>727.31</ele><time>2026-03-27T05:13:10.000Z</time></trkpt>
        <trkpt lat="29.5711509" lon="103.4024901"><ele>726.62</ele><time>2026-03-27T05:13:20.000Z</time></trkpt>
        <trkpt lat="29.5712159" lon="103.4024052"><ele>725.56</ele><time>2026-03-27T05:13:30.000Z</time></trkpt>
        <trkpt lat="29.5712683" lon="103.4023099"><ele>725.25</ele><time>2026-03-27T05:13:40.000Z</time></trkpt>
        <trkpt lat="29.5713168" lon="103.4022172"><ele>724.26</ele><time>2026-03-27T05:13:48.000Z</time></trkpt>
        <trkpt lat="29.5713768" lon="103.4021264"><ele>723.24</ele><time>2026-03-27T05:13:58.000Z</time></trkpt>
        <trkpt lat="29.5714455" lon="103.402044"><ele>722.68</ele><time>2026-03-27T05:14:06.000Z</time></trkpt>
        <trkpt lat="29.5715152" lon="103.4019715"><ele>722.29</ele><time>2026-03-27T05:14:16.000Z</time></trkpt>
        <trkpt lat="29.5715938" lon="103.4018981"><ele>722.5</ele><time>2026-03-27T05:14:28.000Z</time></trkpt>
        <trkpt lat="29.571683" lon="103.4018599"><ele>722.21</ele><time>2026-03-27T05:14:38.000Z</time></trkpt>
        <trkpt lat="29.5717745" lon="103.401853"><ele>721.64</ele><time>2026-03-27T05:14:50.000Z</time></trkpt>
        <trkpt lat="29.571832" lon="103.4017807"><ele>721.7</ele><time>2026-03-27T05:15:22.000Z</time></trkpt>
        <trkpt lat="29.571888" lon="103.4016949"><ele>722.26</ele><time>2026-03-27T05:15:36.000Z</time></trkpt>
        <trkpt lat="29.5719434" lon="103.4016032"><ele>722.28</ele><time>2026-03-27T05:15:50.000Z</time></trkpt>
        <trkpt lat="29.572015" lon="103.4015315"><ele>722.65</ele><time>2026-03-27T05:16:00.000Z</time></trkpt>
        <trkpt lat="29.5720575" lon="103.4014371"><ele>722.67</ele><time>2026-03-27T05:16:12.000Z</time></trkpt>
        <trkpt lat="29.5720634" lon="103.401333"><ele>722.95</ele><time>2026-03-27T05:16:24.000Z</time></trkpt>
        <trkpt lat="29.5720582" lon="103.4012267"><ele>723.94</ele><time>2026-03-27T05:16:38.000Z</time></trkpt>
        <trkpt lat="29.5720226" lon="103.401113"><ele>724.78</ele><time>2026-03-27T05:18:10.000Z</time></trkpt>
        <trkpt lat="29.5719901" lon="103.4010107"><ele>729.36</ele><time>2026-03-27T05:18:18.000Z</time></trkpt>
        <trkpt lat="29.5719625" lon="103.4009036"><ele>730.32</ele><time>2026-03-27T05:18:44.000Z</time></trkpt>
        <trkpt lat="29.5719476" lon="103.4007935"><ele>733.17</ele><time>2026-03-27T05:19:06.000Z</time></trkpt>
        <trkpt lat="29.5719375" lon="103.4006851"><ele>736.91</ele><time>2026-03-27T05:19:28.000Z</time></trkpt>
        <trkpt lat="29.5719225" lon="103.4005798"><ele>740.79</ele><time>2026-03-27T05:19:50.000Z</time></trkpt>
        <trkpt lat="29.5719026" lon="103.4004768"><ele>744.03</ele><time>2026-03-27T05:20:14.000Z</time></trkpt>
        <trkpt lat="29.5718897" lon="103.4003672"><ele>749.06</ele><time>2026-03-27T05:20:44.000Z</time></trkpt>
        <trkpt lat="29.5718856" lon="103.4002611"><ele>753.96</ele><time>2026-03-27T05:21:16.000Z</time></trkpt>
        <trkpt lat="29.5718758" lon="103.4001564"><ele>758.33</ele><time>2026-03-27T05:21:40.000Z</time></trkpt>
        <trkpt lat="29.5718564" lon="103.4000551"><ele>763.07</ele><time>2026-03-27T05:22:08.000Z</time></trkpt>
        <trkpt lat="29.5718487" lon="103.3999513"><ele>766.48</ele><time>2026-03-27T05:22:36.000Z</time></trkpt>
        <trkpt lat="29.5718422" lon="103.3998461"><ele>771.04</ele><time>2026-03-27T05:23:04.000Z</time></trkpt>
        <trkpt lat="29.5718507" lon="103.3997388"><ele>774.78</ele><time>2026-03-27T05:23:26.000Z</time></trkpt>
        <trkpt lat="29.5718618" lon="103.3996342"><ele>779.05</ele><time>2026-03-27T05:23:42.000Z</time></trkpt>
        <trkpt lat="29.5718454" lon="103.3995252"><ele>782.18</ele><time>2026-03-27T05:24:04.000Z</time></trkpt>
        <trkpt lat="29.5718382" lon="103.3994134"><ele>784.75</ele><time>2026-03-27T05:24:16.000Z</time></trkpt>
        <trkpt lat="29.5718326" lon="103.3992965"><ele>786.84</ele><time>2026-03-27T05:24:28.000Z</time></trkpt>
        <trkpt lat="29.5717887" lon="103.3991971"><ele>789.37</ele><time>2026-03-27T05:24:52.000Z</time></trkpt>
        <trkpt lat="29.571741" lon="103.3991055"><ele>793.06</ele><time>2026-03-27T05:25:12.000Z</time></trkpt>
        <trkpt lat="29.5717045" lon="103.3990087"><ele>796.5</ele><time>2026-03-27T05:25:28.000Z</time></trkpt>
        <trkpt lat="29.5716608" lon="103.3989098"><ele>798.26</ele><time>2026-03-27T05:25:50.000Z</time></trkpt>
        <trkpt lat="29.5716485" lon="103.3987918"><ele>800.63</ele><time>2026-03-27T05:31:42.000Z</time></trkpt>
        <trkpt lat="29.571616" lon="103.3986777"><ele>802.93</ele><time>2026-03-27T05:31:54.000Z</time></trkpt>
        <trkpt lat="29.5716093" lon="103.3985725"><ele>803.91</ele><time>2026-03-27T05:32:10.000Z</time></trkpt>
        <trkpt lat="29.5716028" lon="103.3984593"><ele>805.53</ele><time>2026-03-27T05:32:30.000Z</time></trkpt>
        <trkpt lat="29.5715869" lon="103.398355"><ele>804.53</ele><time>2026-03-27T05:32:48.000Z</time></trkpt>
        <trkpt lat="29.571579" lon="103.3982493"><ele>803.37</ele><time>2026-03-27T05:33:04.000Z</time></trkpt>
        <trkpt lat="29.571579" lon="103.3981335"><ele>801.45</ele><time>2026-03-27T05:33:20.000Z</time></trkpt>
        <trkpt lat="29.5715903" lon="103.398026"><ele>798.83</ele><time>2026-03-27T05:33:40.000Z</time></trkpt>
        <trkpt lat="29.571564" lon="103.3979201"><ele>796.59</ele><time>2026-03-27T05:34:02.000Z</time></trkpt>
        <trkpt lat="29.5715263" lon="103.3978173"><ele>792.66</ele><time>2026-03-27T05:34:22.000Z</time></trkpt>
        <trkpt lat="29.5714842" lon="103.397718"><ele>787.87</ele><time>2026-03-27T05:34:42.000Z</time></trkpt>
        <trkpt lat="29.5714507" lon="103.3976199"><ele>783.31</ele><time>2026-03-27T05:34:56.000Z</time></trkpt>
        <trkpt lat="29.5714367" lon="103.3975125"><ele>779.28</ele><time>2026-03-27T05:35:10.000Z</time></trkpt>
        <trkpt lat="29.5714532" lon="103.3974022"><ele>775.99</ele><time>2026-03-27T05:35:28.000Z</time></trkpt>
        <trkpt lat="29.571503" lon="103.3973061"><ele>774.08</ele><time>2026-03-27T05:35:46.000Z</time></trkpt>
        <trkpt lat="29.571536" lon="103.3971996"><ele>773.06</ele><time>2026-03-27T05:36:06.000Z</time></trkpt>
        <trkpt lat="29.5715913" lon="103.3971077"><ele>772.33</ele><time>2026-03-27T05:36:22.000Z</time></trkpt>
        <trkpt lat="29.5716463" lon="103.397019"><ele>770.75</ele><time>2026-03-27T05:36:40.000Z</time></trkpt>
        <trkpt lat="29.5716995" lon="103.3969307"><ele>769.77</ele><time>2026-03-27T05:36:56.000Z</time></trkpt>
        <trkpt lat="29.5717578" lon="103.3968502"><ele>768.17</ele><time>2026-03-27T05:37:16.000Z</time></trkpt>
        <trkpt lat="29.5718347" lon="103.3967944"><ele>765.9</ele><time>2026-03-27T05:37:36.000Z</time></trkpt>
        <trkpt lat="29.5719247" lon="103.3967739"><ele>763.71</ele><time>2026-03-27T05:38:16.000Z</time></trkpt>
        <trkpt lat="29.5720148" lon="103.3967484"><ele>760.69</ele><time>2026-03-27T05:38:36.000Z</time></trkpt>
        <trkpt lat="29.5721098" lon="103.3967334"><ele>757.28</ele><time>2026-03-27T05:38:58.000Z</time></trkpt>
        <trkpt lat="29.5722042" lon="103.3967132"><ele>754.51</ele><time>2026-03-27T05:39:22.000Z</time></trkpt>
        <trkpt lat="29.5722961" lon="103.3966754"><ele>751.64</ele><time>2026-03-27T05:39:48.000Z</time></trkpt>
        <trkpt lat="29.5723524" lon="103.3965885"><ele>748.92</ele><time>2026-03-27T05:40:08.000Z</time></trkpt>
        <trkpt lat="29.5723513" lon="103.3964806"><ele>745.45</ele><time>2026-03-27T05:40:24.000Z</time></trkpt>
        <trkpt lat="29.5723456" lon="103.3963697"><ele>741.59</ele><time>2026-03-27T05:40:36.000Z</time></trkpt>
        <trkpt lat="29.5723651" lon="103.396261"><ele>739.5</ele><time>2026-03-27T05:40:54.000Z</time></trkpt>
        <trkpt lat="29.5723786" lon="103.3961463"><ele>736.05</ele><time>2026-03-27T05:41:08.000Z</time></trkpt>
        <trkpt lat="29.572415" lon="103.3960454"><ele>733.33</ele><time>2026-03-27T05:41:24.000Z</time></trkpt>
        <trkpt lat="29.5724845" lon="103.3959641"><ele>732.41</ele><time>2026-03-27T05:41:40.000Z</time></trkpt>
        <trkpt lat="29.5725729" lon="103.3959212"><ele>731.36</ele><time>2026-03-27T05:41:58.000Z</time></trkpt>
        <trkpt lat="29.57264" lon="103.3958468"><ele>731.66</ele><time>2026-03-27T05:42:12.000Z</time></trkpt>
        <trkpt lat="29.5726629" lon="103.3958268"><ele>730.44</ele><time>2026-03-27T05:42:14.000Z</time></trkpt>
        <trkpt lat="29.5727249" lon="103.3957889"><ele>729.57</ele><time>2026-03-27T05:42:28.000Z</time></trkpt>
        <trkpt lat="29.5727844" lon="103.3957112"><ele>728.46</ele><time>2026-03-27T05:42:40.000Z</time></trkpt>
        <trkpt lat="29.572846" lon="103.3956062"><ele>726.77</ele><time>2026-03-27T05:42:52.000Z</time></trkpt>
        <trkpt lat="29.5728959" lon="103.3955077"><ele>724.1</ele><time>2026-03-27T05:43:04.000Z</time></trkpt>
        <trkpt lat="29.5729436" lon="103.3954034"><ele>723.66</ele><time>2026-03-27T05:43:16.000Z</time></trkpt>
        <trkpt lat="29.5729819" lon="103.3952969"><ele>721.77</ele><time>2026-03-27T05:43:30.000Z</time></trkpt>
        <trkpt lat="29.5729703" lon="103.3951893"><ele>719.12</ele><time>2026-03-27T05:43:48.000Z</time></trkpt>
        <trkpt lat="29.5729396" lon="103.3950727"><ele>715.79</ele><time>2026-03-27T05:44:50.000Z</time></trkpt>
        <trkpt lat="29.5729499" lon="103.3949675"><ele>712.55</ele><time>2026-03-27T05:45:04.000Z</time></trkpt>
        <trkpt lat="29.57295" lon="103.3948576"><ele>711.03</ele><time>2026-03-27T05:45:18.000Z</time></trkpt>
        <trkpt lat="29.572906" lon="103.3947596"><ele>709.98</ele><time>2026-03-27T05:45:36.000Z</time></trkpt>
        <trkpt lat="29.5728329" lon="103.3946863"><ele>708.5</ele><time>2026-03-27T05:46:00.000Z</time></trkpt>
        <trkpt lat="29.5727613" lon="103.3946121"><ele>705.7</ele><time>2026-03-27T05:46:20.000Z</time></trkpt>
        <trkpt lat="29.5727554" lon="103.3945193"><ele>701.3</ele><time>2026-03-27T05:46:54.000Z</time></trkpt>
        <trkpt lat="29.5727796" lon="103.3944162"><ele>696.9</ele><time>2026-03-27T05:47:20.000Z</time></trkpt>
        <trkpt lat="29.5728179" lon="103.3943053"><ele>693.26</ele><time>2026-03-27T05:47:38.000Z</time></trkpt>
        <trkpt lat="29.5728637" lon="103.3941985"><ele>690.05</ele><time>2026-03-27T05:47:54.000Z</time></trkpt>
        <trkpt lat="29.5728997" lon="103.3940903"><ele>688.41</ele><time>2026-03-27T05:48:06.000Z</time></trkpt>
        <trkpt lat="29.5729475" lon="103.3939851"><ele>686.82</ele><time>2026-03-27T05:48:18.000Z</time></trkpt>
        <trkpt lat="29.5729963" lon="103.3938841"><ele>686.86</ele><time>2026-03-27T05:48:30.000Z</time></trkpt>
        <trkpt lat="29.573042" lon="103.3937882"><ele>686.54</ele><time>2026-03-27T05:48:40.000Z</time></trkpt>
        <trkpt lat="29.5731137" lon="103.3937206"><ele>686.78</ele><time>2026-03-27T05:48:52.000Z</time></trkpt>
        <trkpt lat="29.5732029" lon="103.3937264"><ele>687.09</ele><time>2026-03-27T05:49:12.000Z</time></trkpt>
        <trkpt lat="29.5732909" lon="103.393692"><ele>686.89</ele><time>2026-03-27T05:49:34.000Z</time></trkpt>
        <trkpt lat="29.5733537" lon="103.3936152"><ele>686.69</ele><time>2026-03-27T05:49:46.000Z</time></trkpt>
        <trkpt lat="29.5734423" lon="103.3935627"><ele>690.42</ele><time>2026-03-27T05:49:58.000Z</time></trkpt>
        <trkpt lat="29.5735411" lon="103.3935429"><ele>693.72</ele><time>2026-03-27T05:50:08.000Z</time></trkpt>
        <trkpt lat="29.5736192" lon="103.3934721"><ele>693.42</ele><time>2026-03-27T05:51:14.000Z</time></trkpt>
        <trkpt lat="29.5737028" lon="103.3934172"><ele>689.93</ele><time>2026-03-27T05:54:40.000Z</time></trkpt>
        <trkpt lat="29.573791" lon="103.3933872"><ele>684.23</ele><time>2026-03-27T05:54:54.000Z</time></trkpt>
        <trkpt lat="29.5738746" lon="103.3933376"><ele>681.29</ele><time>2026-03-27T05:55:04.000Z</time></trkpt>
        <trkpt lat="29.5739416" lon="103.3932565"><ele>679.69</ele><time>2026-03-27T05:55:14.000Z</time></trkpt>
        <trkpt lat="29.5739941" lon="103.3931626"><ele>678.62</ele><time>2026-03-27T05:55:28.000Z</time></trkpt>
        <trkpt lat="29.5740293" lon="103.3930526"><ele>677.16</ele><time>2026-03-27T05:55:56.000Z</time></trkpt>
        <trkpt lat="29.5740586" lon="103.3929463"><ele>675.62</ele><time>2026-03-27T05:56:14.000Z</time></trkpt>
        <trkpt lat="29.5740783" lon="103.3928374"><ele>673.23</ele><time>2026-03-27T05:56:34.000Z</time></trkpt>
        <trkpt lat="29.5741043" lon="103.3927292"><ele>670</ele><time>2026-03-27T05:57:00.000Z</time></trkpt>
        <trkpt lat="29.5741011" lon="103.3926203"><ele>665.82</ele><time>2026-03-27T05:57:26.000Z</time></trkpt>
        <trkpt lat="29.5740727" lon="103.3925136"><ele>661.61</ele><time>2026-03-27T05:57:44.000Z</time></trkpt>
        <trkpt lat="29.5740396" lon="103.3924108"><ele>658.6</ele><time>2026-03-27T05:58:02.000Z</time></trkpt>
        <trkpt lat="29.5740983" lon="103.392396"><ele>656.79</ele><time>2026-03-27T05:58:26.000Z</time></trkpt>
        <trkpt lat="29.5741732" lon="103.3923398"><ele>654.61</ele><time>2026-03-27T05:59:04.000Z</time></trkpt>
        <trkpt lat="29.57419" lon="103.3922476"><ele>652.29</ele><time>2026-03-27T05:59:42.000Z</time></trkpt>
        <trkpt lat="29.574155" lon="103.392132"><ele>647.87</ele><time>2026-03-27T06:00:54.000Z</time></trkpt>
        <trkpt lat="29.5740774" lon="103.3920547"><ele>646.95</ele><time>2026-03-27T06:01:08.000Z</time></trkpt>
        <trkpt lat="29.5739836" lon="103.3920247"><ele>647.85</ele><time>2026-03-27T06:01:40.000Z</time></trkpt>
        <trkpt lat="29.5738925" lon="103.3920293"><ele>649.97</ele><time>2026-03-27T06:01:58.000Z</time></trkpt>
        <trkpt lat="29.5738019" lon="103.392061"><ele>651.09</ele><time>2026-03-27T06:02:14.000Z</time></trkpt>
        <trkpt lat="29.5737666" lon="103.3920715"><ele>651.33</ele><time>2026-03-27T06:02:18.000Z</time></trkpt>
        <trkpt lat="29.5737075" lon="103.3920291"><ele>651.93</ele><time>2026-03-27T06:02:36.000Z</time></trkpt>
        <trkpt lat="29.5736289" lon="103.3919589"><ele>653.93</ele><time>2026-03-27T06:02:46.000Z</time></trkpt>
        <trkpt lat="29.5735737" lon="103.3918593"><ele>656</ele><time>2026-03-27T06:02:58.000Z</time></trkpt>
        <trkpt lat="29.5734932" lon="103.3917869"><ele>657.55</ele><time>2026-03-27T06:04:06.000Z</time></trkpt>
        <trkpt lat="29.5734134" lon="103.3917214"><ele>663.42</ele><time>2026-03-27T06:04:34.000Z</time></trkpt>
        <trkpt lat="29.5733227" lon="103.3916981"><ele>664.33</ele><time>2026-03-27T06:04:44.000Z</time></trkpt>
        <trkpt lat="29.5732304" lon="103.3916832"><ele>665.14</ele><time>2026-03-27T06:05:04.000Z</time></trkpt>
        <trkpt lat="29.5731345" lon="103.3916688"><ele>663.99</ele><time>2026-03-27T06:05:22.000Z</time></trkpt>
        <trkpt lat="29.5730354" lon="103.3916744"><ele>663.63</ele><time>2026-03-27T06:05:38.000Z</time></trkpt>
        <trkpt lat="29.5729533" lon="103.3917324"><ele>666.18</ele><time>2026-03-27T06:05:46.000Z</time></trkpt>
        <trkpt lat="29.5728837" lon="103.3918154"><ele>668.3</ele><time>2026-03-27T06:05:56.000Z</time></trkpt>
        <trkpt lat="29.5727928" lon="103.3918514"><ele>669.63</ele><time>2026-03-27T06:06:08.000Z</time></trkpt>
        <trkpt lat="29.5726911" lon="103.3918796"><ele>669.23</ele><time>2026-03-27T06:06:20.000Z</time></trkpt>
        <trkpt lat="29.5726184" lon="103.391827"><ele>669.97</ele><time>2026-03-27T06:06:42.000Z</time></trkpt>
        <trkpt lat="29.5725347" lon="103.3918166"><ele>669.28</ele><time>2026-03-27T06:06:56.000Z</time></trkpt>
        <trkpt lat="29.5724452" lon="103.3918332"><ele>669.29</ele><time>2026-03-27T06:07:12.000Z</time></trkpt>
        <trkpt lat="29.5723743" lon="103.3917774"><ele>671.91</ele><time>2026-03-27T06:07:28.000Z</time></trkpt>
        <trkpt lat="29.5722877" lon="103.3917144"><ele>674.59</ele><time>2026-03-27T06:07:42.000Z</time></trkpt>
        <trkpt lat="29.5721858" lon="103.3916963"><ele>676.75</ele><time>2026-03-27T06:07:54.000Z</time></trkpt>
        <trkpt lat="29.5720943" lon="103.3916563"><ele>677.53</ele><time>2026-03-27T06:08:08.000Z</time></trkpt>
        <trkpt lat="29.5719903" lon="103.3916566"><ele>677.13</ele><time>2026-03-27T06:08:20.000Z</time></trkpt>
        <trkpt lat="29.5718976" lon="103.3916282"><ele>677.85</ele><time>2026-03-27T06:08:36.000Z</time></trkpt>
        <trkpt lat="29.5718095" lon="103.3916533"><ele>676.63</ele><time>2026-03-27T06:08:54.000Z</time></trkpt>
        <trkpt lat="29.5717181" lon="103.3916479"><ele>675.67</ele><time>2026-03-27T06:09:06.000Z</time></trkpt>
        <trkpt lat="29.5716186" lon="103.3916419"><ele>674.82</ele><time>2026-03-27T06:09:18.000Z</time></trkpt>
        <trkpt lat="29.5715259" lon="103.3916503"><ele>674.13</ele><time>2026-03-27T06:09:30.000Z</time></trkpt>
        <trkpt lat="29.5714297" lon="103.3916596"><ele>673.24</ele><time>2026-03-27T06:10:20.000Z</time></trkpt>
        <trkpt lat="29.5713312" lon="103.3916502"><ele>671.3</ele><time>2026-03-27T06:10:30.000Z</time></trkpt>
        <trkpt lat="29.5712262" lon="103.3916535"><ele>668.76</ele><time>2026-03-27T06:10:40.000Z</time></trkpt>
        <trkpt lat="29.5711329" lon="103.3916395"><ele>667.52</ele><time>2026-03-27T06:10:52.000Z</time></trkpt>
        <trkpt lat="29.5710374" lon="103.391637"><ele>667.11</ele><time>2026-03-27T06:11:06.000Z</time></trkpt>
        <trkpt lat="29.5709413" lon="103.3916493"><ele>667.9</ele><time>2026-03-27T06:11:16.000Z</time></trkpt>
        <trkpt lat="29.5708839" lon="103.3916433"><ele>668.59</ele><time>2026-03-27T06:11:22.000Z</time></trkpt>
        <trkpt lat="29.5708317" lon="103.3915689"><ele>668.71</ele><time>2026-03-27T06:18:12.000Z</time></trkpt>
        <trkpt lat="29.5707413" lon="103.3915074"><ele>668.35</ele><time>2026-03-27T06:18:54.000Z</time></trkpt>
        <trkpt lat="29.5706591" lon="103.3914406"><ele>669.38</ele><time>2026-03-27T06:19:06.000Z</time></trkpt>
        <trkpt lat="29.5705622" lon="103.3914075"><ele>670.52</ele><time>2026-03-27T06:19:24.000Z</time></trkpt>
        <trkpt lat="29.5704676" lon="103.3913941"><ele>671.18</ele><time>2026-03-27T06:19:34.000Z</time></trkpt>
        <trkpt lat="29.5703597" lon="103.3914079"><ele>673.02</ele><time>2026-03-27T06:19:44.000Z</time></trkpt>
        <trkpt lat="29.5703289" lon="103.3913232"><ele>677.98</ele><time>2026-03-27T06:19:56.000Z</time></trkpt>
        <trkpt lat="29.5703395" lon="103.3912113"><ele>678.27</ele><time>2026-03-27T06:20:18.000Z</time></trkpt>
        <trkpt lat="29.5702831" lon="103.3912033"><ele>680.93</ele><time>2026-03-27T06:20:38.000Z</time></trkpt>
        <trkpt lat="29.5702169" lon="103.3911492"><ele>683.54</ele><time>2026-03-27T06:20:58.000Z</time></trkpt>
        <trkpt lat="29.5701416" lon="103.3910913"><ele>684.02</ele><time>2026-03-27T06:21:14.000Z</time></trkpt>
        <trkpt lat="29.5700999" lon="103.3909969"><ele>684.7</ele><time>2026-03-27T06:21:24.000Z</time></trkpt>
        <trkpt lat="29.5700605" lon="103.3908994"><ele>684.07</ele><time>2026-03-27T06:21:38.000Z</time></trkpt>
        <trkpt lat="29.5699852" lon="103.3908506"><ele>684.52</ele><time>2026-03-27T06:21:46.000Z</time></trkpt>
        <trkpt lat="29.5698965" lon="103.3908668"><ele>686.39</ele><time>2026-03-27T06:22:06.000Z</time></trkpt>
        <trkpt lat="29.5697961" lon="103.3908836"><ele>685.01</ele><time>2026-03-27T06:22:20.000Z</time></trkpt>
        <trkpt lat="29.5696996" lon="103.3908889"><ele>684.01</ele><time>2026-03-27T06:22:36.000Z</time></trkpt>
        <trkpt lat="29.5696019" lon="103.3908833"><ele>681.12</ele><time>2026-03-27T06:22:52.000Z</time></trkpt>
        <trkpt lat="29.5695071" lon="103.390906"><ele>677.96</ele><time>2026-03-27T06:23:06.000Z</time></trkpt>
        <trkpt lat="29.5694151" lon="103.3909164"><ele>676.61</ele><time>2026-03-27T06:23:18.000Z</time></trkpt>
        <trkpt lat="29.5693604" lon="103.3909227"><ele>674.35</ele><time>2026-03-27T06:23:26.000Z</time></trkpt>
        <trkpt lat="29.5692941" lon="103.3908749"><ele>671.32</ele><time>2026-03-27T06:23:48.000Z</time></trkpt>
        <trkpt lat="29.569201" lon="103.390849"><ele>670.91</ele><time>2026-03-27T06:24:06.000Z</time></trkpt>
        <trkpt lat="29.5691003" lon="103.3908434"><ele>671.86</ele><time>2026-03-27T06:24:18.000Z</time></trkpt>
        <trkpt lat="29.5690245" lon="103.390903"><ele>673.99</ele><time>2026-03-27T06:24:26.000Z</time></trkpt>
        <trkpt lat="29.5689472" lon="103.3909662"><ele>676.29</ele><time>2026-03-27T06:24:52.000Z</time></trkpt>
        <trkpt lat="29.5688766" lon="103.3910496"><ele>677.99</ele><time>2026-03-27T06:25:04.000Z</time></trkpt>
        <trkpt lat="29.5688491" lon="103.3911658"><ele>679.07</ele><time>2026-03-27T06:25:42.000Z</time></trkpt>
        <trkpt lat="29.568813" lon="103.3912017"><ele>682.17</ele><time>2026-03-27T06:25:52.000Z</time></trkpt>
        <trkpt lat="29.5687352" lon="103.3911845"><ele>685.71</ele><time>2026-03-27T06:26:02.000Z</time></trkpt>
        <trkpt lat="29.5686473" lon="103.3911354"><ele>685.51</ele><time>2026-03-27T06:26:12.000Z</time></trkpt>
        <trkpt lat="29.5685683" lon="103.391055"><ele>684.95</ele><time>2026-03-27T06:26:22.000Z</time></trkpt>
        <trkpt lat="29.5685791" lon="103.3909465"><ele>684.74</ele><time>2026-03-27T06:26:28.000Z</time></trkpt>
        <trkpt lat="29.5685904" lon="103.3908342"><ele>684.43</ele><time>2026-03-27T06:26:38.000Z</time></trkpt>
        <trkpt lat="29.5685399" lon="103.3907559"><ele>684.19</ele><time>2026-03-27T06:26:48.000Z</time></trkpt>
        <trkpt lat="29.5684734" lon="103.3906827"><ele>684.14</ele><time>2026-03-27T06:27:02.000Z</time></trkpt>
        <trkpt lat="29.5683914" lon="103.3907029"><ele>682.61</ele><time>2026-03-27T06:27:10.000Z</time></trkpt>
        <trkpt lat="29.5683365" lon="103.390717"><ele>682.96</ele><time>2026-03-27T06:27:16.000Z</time></trkpt>
        <trkpt lat="29.5683409" lon="103.3908019"><ele>683.24</ele><time>2026-03-27T06:28:04.000Z</time></trkpt>
        <trkpt lat="29.5683945" lon="103.3908922"><ele>689.23</ele><time>2026-03-27T06:28:36.000Z</time></trkpt>
        <trkpt lat="29.5683447" lon="103.3908903"><ele>691.81</ele><time>2026-03-27T06:28:52.000Z</time></trkpt>
        <trkpt lat="29.5682616" lon="103.3909121"><ele>695.74</ele><time>2026-03-27T06:29:02.000Z</time></trkpt>
        <trkpt lat="29.568164" lon="103.3909474"><ele>699.73</ele><time>2026-03-27T06:29:20.000Z</time></trkpt>
        <trkpt lat="29.5680853" lon="103.3908896"><ele>704.07</ele><time>2026-03-27T06:29:40.000Z</time></trkpt>
        <trkpt lat="29.5680084" lon="103.3908174"><ele>706.67</ele><time>2026-03-27T06:29:54.000Z</time></trkpt>
        <trkpt lat="29.5679386" lon="103.3907321"><ele>707.37</ele><time>2026-03-27T06:30:10.000Z</time></trkpt>
        <trkpt lat="29.5678479" lon="103.3906844"><ele>707.34</ele><time>2026-03-27T06:30:34.000Z</time></trkpt>
        <trkpt lat="29.5677551" lon="103.3907193"><ele>706.46</ele><time>2026-03-27T06:30:44.000Z</time></trkpt>
        <trkpt lat="29.567663" lon="103.3907094"><ele>705.05</ele><time>2026-03-27T06:31:00.000Z</time></trkpt>
        <trkpt lat="29.567598" lon="103.3906432"><ele>703.29</ele><time>2026-03-27T06:31:08.000Z</time></trkpt>
        <trkpt lat="29.5675258" lon="103.3905652"><ele>702.61</ele><time>2026-03-27T06:31:18.000Z</time></trkpt>
        <trkpt lat="29.5674688" lon="103.3904608"><ele>702.2</ele><time>2026-03-27T06:31:28.000Z</time></trkpt>
        <trkpt lat="29.5674368" lon="103.3903508"><ele>704.23</ele><time>2026-03-27T06:31:40.000Z</time></trkpt>
        <trkpt lat="29.5673792" lon="103.3902668"><ele>703.99</ele><time>2026-03-27T06:31:50.000Z</time></trkpt>
        <trkpt lat="29.5673047" lon="103.3902006"><ele>704.91</ele><time>2026-03-27T06:31:58.000Z</time></trkpt>
        <trkpt lat="29.5672696" lon="103.3900896"><ele>707.13</ele><time>2026-03-27T06:32:02.000Z</time></trkpt>
        <trkpt lat="29.5671819" lon="103.3900674"><ele>708.38</ele><time>2026-03-27T06:32:16.000Z</time></trkpt>
        <trkpt lat="29.5670822" lon="103.3900893"><ele>710.36</ele><time>2026-03-27T06:32:26.000Z</time></trkpt>
        <trkpt lat="29.5669752" lon="103.3901202"><ele>712.05</ele><time>2026-03-27T06:32:38.000Z</time></trkpt>
        <trkpt lat="29.5668783" lon="103.3900889"><ele>713.49</ele><time>2026-03-27T06:32:50.000Z</time></trkpt>
        <trkpt lat="29.5668169" lon="103.390008"><ele>713.97</ele><time>2026-03-27T06:33:00.000Z</time></trkpt>
        <trkpt lat="29.5667592" lon="103.3899214"><ele>714.31</ele><time>2026-03-27T06:33:34.000Z</time></trkpt>
        <trkpt lat="29.566691" lon="103.3898446"><ele>713.12</ele><time>2026-03-27T06:33:46.000Z</time></trkpt>
        <trkpt lat="29.5666145" lon="103.3897696"><ele>710.89</ele><time>2026-03-27T06:33:56.000Z</time></trkpt>
        <trkpt lat="29.5665131" lon="103.3897433"><ele>707.82</ele><time>2026-03-27T06:34:10.000Z</time></trkpt>
        <trkpt lat="29.5664217" lon="103.3897098"><ele>705.18</ele><time>2026-03-27T06:34:18.000Z</time></trkpt>
        <trkpt lat="29.5663294" lon="103.3897224"><ele>703.77</ele><time>2026-03-27T06:34:36.000Z</time></trkpt>
        <trkpt lat="29.5662413" lon="103.3897091"><ele>703.95</ele><time>2026-03-27T06:34:44.000Z</time></trkpt>
        <trkpt lat="29.566141" lon="103.389664"><ele>704.47</ele><time>2026-03-27T06:34:54.000Z</time></trkpt>
        <trkpt lat="29.5660472" lon="103.3896095"><ele>704.06</ele><time>2026-03-27T06:35:04.000Z</time></trkpt>
        <trkpt lat="29.5659589" lon="103.389614"><ele>701.97</ele><time>2026-03-27T06:35:14.000Z</time></trkpt>
        <trkpt lat="29.5658675" lon="103.3896781"><ele>700.03</ele><time>2026-03-27T06:35:24.000Z</time></trkpt>
        <trkpt lat="29.565768" lon="103.3897146"><ele>699.25</ele><time>2026-03-27T06:35:34.000Z</time></trkpt>
        <trkpt lat="29.5656699" lon="103.3897417"><ele>699.58</ele><time>2026-03-27T06:35:52.000Z</time></trkpt>
        <trkpt lat="29.5656322" lon="103.3896682"><ele>700.91</ele><time>2026-03-27T06:36:30.000Z</time></trkpt>
        <trkpt lat="29.5655757" lon="103.3895836"><ele>701.49</ele><time>2026-03-27T06:36:50.000Z</time></trkpt>
        <trkpt lat="29.5654863" lon="103.3895267"><ele>703.41</ele><time>2026-03-27T06:37:02.000Z</time></trkpt>
        <trkpt lat="29.5653915" lon="103.3894866"><ele>704.03</ele><time>2026-03-27T06:37:12.000Z</time></trkpt>
        <trkpt lat="29.5653036" lon="103.3894311"><ele>705.5</ele><time>2026-03-27T06:37:24.000Z</time></trkpt>
        <trkpt lat="29.5652141" lon="103.3893856"><ele>707.01</ele><time>2026-03-27T06:37:34.000Z</time></trkpt>
        <trkpt lat="29.5651375" lon="103.3893272"><ele>707.66</ele><time>2026-03-27T06:37:46.000Z</time></trkpt>
        <trkpt lat="29.5650861" lon="103.389241"><ele>708.02</ele><time>2026-03-27T06:37:58.000Z</time></trkpt>
        <trkpt lat="29.5650454" lon="103.3891381"><ele>708</ele><time>2026-03-27T06:38:10.000Z</time></trkpt>
        <trkpt lat="29.5650094" lon="103.3890991"><ele>708.31</ele><time>2026-03-27T06:38:18.000Z</time></trkpt>
        <trkpt lat="29.5649486" lon="103.3890423"><ele>708.45</ele><time>2026-03-27T06:38:30.000Z</time></trkpt>
        <trkpt lat="29.564881" lon="103.3889729"><ele>709.75</ele><time>2026-03-27T06:38:48.000Z</time></trkpt>
        <trkpt lat="29.5648199" lon="103.3888861"><ele>708.86</ele><time>2026-03-27T06:39:22.000Z</time></trkpt>
        <trkpt lat="29.5647235" lon="103.3889139"><ele>708.89</ele><time>2026-03-27T06:40:34.000Z</time></trkpt>
        <trkpt lat="29.5646202" lon="103.3888727"><ele>707.62</ele><time>2026-03-27T06:40:48.000Z</time></trkpt>
        <trkpt lat="29.5645194" lon="103.3888487"><ele>706.25</ele><time>2026-03-27T06:41:00.000Z</time></trkpt>
        <trkpt lat="29.5644268" lon="103.3888387"><ele>705.47</ele><time>2026-03-27T06:41:08.000Z</time></trkpt>
        <trkpt lat="29.5643385" lon="103.3888054"><ele>705.15</ele><time>2026-03-27T06:41:18.000Z</time></trkpt>
        <trkpt lat="29.5642436" lon="103.3888025"><ele>704.07</ele><time>2026-03-27T06:41:36.000Z</time></trkpt>
        <trkpt lat="29.564149" lon="103.3887898"><ele>704.05</ele><time>2026-03-27T06:41:54.000Z</time></trkpt>
        <trkpt lat="29.5640707" lon="103.388842"><ele>706.06</ele><time>2026-03-27T06:42:08.000Z</time></trkpt>
        <trkpt lat="29.5639922" lon="103.3889157"><ele>708.7</ele><time>2026-03-27T06:42:20.000Z</time></trkpt>
        <trkpt lat="29.5638998" lon="103.388953"><ele>710.66</ele><time>2026-03-27T06:42:36.000Z</time></trkpt>
        <trkpt lat="29.5638014" lon="103.3889546"><ele>712.82</ele><time>2026-03-27T06:42:48.000Z</time></trkpt>
        <trkpt lat="29.5637009" lon="103.3889139"><ele>713.84</ele><time>2026-03-27T06:42:58.000Z</time></trkpt>
        <trkpt lat="29.5636141" lon="103.3888609"><ele>714.03</ele><time>2026-03-27T06:43:10.000Z</time></trkpt>
        <trkpt lat="29.563525" lon="103.388811"><ele>714.5</ele><time>2026-03-27T06:43:22.000Z</time></trkpt>
        <trkpt lat="29.5634357" lon="103.3887985"><ele>715.46</ele><time>2026-03-27T06:43:38.000Z</time></trkpt>
        <trkpt lat="29.5633504" lon="103.38883"><ele>717.49</ele><time>2026-03-27T06:43:52.000Z</time></trkpt>
        <trkpt lat="29.5632602" lon="103.3888552"><ele>719.37</ele><time>2026-03-27T06:44:06.000Z</time></trkpt>
        <trkpt lat="29.5631634" lon="103.3888844"><ele>721.94</ele><time>2026-03-27T06:44:20.000Z</time></trkpt>
        <trkpt lat="29.56308" lon="103.388933"><ele>722.81</ele><time>2026-03-27T06:44:28.000Z</time></trkpt>
        <trkpt lat="29.5629978" lon="103.3890068"><ele>724.45</ele><time>2026-03-27T06:44:38.000Z</time></trkpt>
        <trkpt lat="29.5629156" lon="103.3890704"><ele>725.68</ele><time>2026-03-27T06:44:48.000Z</time></trkpt>
        <trkpt lat="29.5628266" lon="103.3890936"><ele>727.19</ele><time>2026-03-27T06:45:00.000Z</time></trkpt>
        <trkpt lat="29.5627318" lon="103.389072"><ele>727.6</ele><time>2026-03-27T06:45:14.000Z</time></trkpt>
        <trkpt lat="29.5626324" lon="103.3890838"><ele>727.44</ele><time>2026-03-27T06:45:30.000Z</time></trkpt>
        <trkpt lat="29.5625364" lon="103.3890692"><ele>727.86</ele><time>2026-03-27T06:45:50.000Z</time></trkpt>
        <trkpt lat="29.5624471" lon="103.3890291"><ele>727.61</ele><time>2026-03-27T06:46:08.000Z</time></trkpt>
        <trkpt lat="29.5623583" lon="103.3889876"><ele>729.43</ele><time>2026-03-27T06:46:20.000Z</time></trkpt>
        <trkpt lat="29.5622597" lon="103.3889846"><ele>730.08</ele><time>2026-03-27T06:46:30.000Z</time></trkpt>
        <trkpt lat="29.5621661" lon="103.3889915"><ele>731.19</ele><time>2026-03-27T06:46:42.000Z</time></trkpt>
        <trkpt lat="29.5620788" lon="103.3890253"><ele>731.1</ele><time>2026-03-27T06:46:56.000Z</time></trkpt>
        <trkpt lat="29.5620015" lon="103.3890897"><ele>731.45</ele><time>2026-03-27T06:47:08.000Z</time></trkpt>
        <trkpt lat="29.561976" lon="103.3891896"><ele>731.32</ele><time>2026-03-27T06:47:32.000Z</time></trkpt>
        <trkpt lat="29.5620401" lon="103.3892744"><ele>729.86</ele><time>2026-03-27T06:47:44.000Z</time></trkpt>
        <trkpt lat="29.5620822" lon="103.3893741"><ele>729.09</ele><time>2026-03-27T06:47:54.000Z</time></trkpt>
        <trkpt lat="29.5620433" lon="103.3894587"><ele>729.13</ele><time>2026-03-27T06:48:16.000Z</time></trkpt>
        <trkpt lat="29.5619484" lon="103.3894841"><ele>727.32</ele><time>2026-03-27T06:48:30.000Z</time></trkpt>
        <trkpt lat="29.5618449" lon="103.3894714"><ele>726.09</ele><time>2026-03-27T06:48:42.000Z</time></trkpt>
        <trkpt lat="29.5617413" lon="103.3893986"><ele>725.38</ele><time>2026-03-27T06:48:58.000Z</time></trkpt>
        <trkpt lat="29.5616498" lon="103.3893132"><ele>727.7</ele><time>2026-03-27T06:49:12.000Z</time></trkpt>
        <trkpt lat="29.5615442" lon="103.3892958"><ele>733.19</ele><time>2026-03-27T06:49:24.000Z</time></trkpt>
        <trkpt lat="29.561438" lon="103.38929"><ele>737.95</ele><time>2026-03-27T06:49:34.000Z</time></trkpt>
        <trkpt lat="29.5613422" lon="103.3892813"><ele>741.43</ele><time>2026-03-27T06:49:46.000Z</time></trkpt>
        <trkpt lat="29.5612453" lon="103.3892698"><ele>744.38</ele><time>2026-03-27T06:49:58.000Z</time></trkpt>
        <trkpt lat="29.5611553" lon="103.3892879"><ele>746.63</ele><time>2026-03-27T06:50:12.000Z</time></trkpt>
        <trkpt lat="29.5610566" lon="103.3893247"><ele>746.55</ele><time>2026-03-27T06:50:32.000Z</time></trkpt>
        <trkpt lat="29.5609539" lon="103.3893576"><ele>746.86</ele><time>2026-03-27T06:50:42.000Z</time></trkpt>
        <trkpt lat="29.5608539" lon="103.3893825"><ele>747.74</ele><time>2026-03-27T06:50:54.000Z</time></trkpt>
        <trkpt lat="29.5607622" lon="103.3894068"><ele>748.04</ele><time>2026-03-27T06:51:04.000Z</time></trkpt>
        <trkpt lat="29.5606724" lon="103.3894199"><ele>748.47</ele><time>2026-03-27T06:51:14.000Z</time></trkpt>
        <trkpt lat="29.5605776" lon="103.3894387"><ele>748.3</ele><time>2026-03-27T06:51:28.000Z</time></trkpt>
        <trkpt lat="29.5604794" lon="103.3894424"><ele>749.18</ele><time>2026-03-27T06:51:40.000Z</time></trkpt>
        <trkpt lat="29.5603828" lon="103.3894162"><ele>750.31</ele><time>2026-03-27T06:51:50.000Z</time></trkpt>
        <trkpt lat="29.560293" lon="103.3893849"><ele>751.34</ele><time>2026-03-27T06:52:02.000Z</time></trkpt>
        <trkpt lat="29.5602564" lon="103.389298"><ele>752.15</ele><time>2026-03-27T06:52:52.000Z</time></trkpt>
        <trkpt lat="29.5601874" lon="103.3892469"><ele>751.91</ele><time>2026-03-27T06:53:20.000Z</time></trkpt>
        <trkpt lat="29.5601395" lon="103.3891599"><ele>753.77</ele><time>2026-03-27T06:53:38.000Z</time></trkpt>
        <trkpt lat="29.5601289" lon="103.3890485"><ele>756.8</ele><time>2026-03-27T06:53:48.000Z</time></trkpt>
        <trkpt lat="29.5601019" lon="103.3889357"><ele>758.63</ele><time>2026-03-27T06:54:00.000Z</time></trkpt>
        <trkpt lat="29.5600984" lon="103.3888221"><ele>760.1</ele><time>2026-03-27T06:54:16.000Z</time></trkpt>
        <trkpt lat="29.5601587" lon="103.3887427"><ele>760.8</ele><time>2026-03-27T06:54:34.000Z</time></trkpt>
        <trkpt lat="29.5601205" lon="103.3886782"><ele>761.76</ele><time>2026-03-27T06:54:48.000Z</time></trkpt>
        <trkpt lat="29.56003" lon="103.3886275"><ele>762.65</ele><time>2026-03-27T06:55:00.000Z</time></trkpt>
        <trkpt lat="29.5599373" lon="103.3885797"><ele>763.29</ele><time>2026-03-27T06:55:10.000Z</time></trkpt>
        <trkpt lat="29.559854" lon="103.3885057"><ele>764.46</ele><time>2026-03-27T06:55:22.000Z</time></trkpt>
        <trkpt lat="29.559768" lon="103.388437"><ele>765.71</ele><time>2026-03-27T06:55:36.000Z</time></trkpt>
        <trkpt lat="29.5596921" lon="103.3883634"><ele>767.41</ele><time>2026-03-27T06:55:52.000Z</time></trkpt>
        <trkpt lat="29.5596533" lon="103.388262"><ele>768.82</ele><time>2026-03-27T06:56:02.000Z</time></trkpt>
        <trkpt lat="29.5596538" lon="103.3881512"><ele>769.19</ele><time>2026-03-27T06:56:12.000Z</time></trkpt>
        <trkpt lat="29.5596255" lon="103.3880523"><ele>769.41</ele><time>2026-03-27T06:56:22.000Z</time></trkpt>
        <trkpt lat="29.559553" lon="103.3879884"><ele>769.75</ele><time>2026-03-27T06:56:32.000Z</time></trkpt>
        <trkpt lat="29.5594685" lon="103.387926"><ele>769.97</ele><time>2026-03-27T06:56:44.000Z</time></trkpt>
        <trkpt lat="29.5593685" lon="103.3878885"><ele>769.64</ele><time>2026-03-27T06:56:54.000Z</time></trkpt>
        <trkpt lat="29.559273" lon="103.3878396"><ele>769.33</ele><time>2026-03-27T06:57:04.000Z</time></trkpt>
        <trkpt lat="29.5591904" lon="103.3877824"><ele>769.55</ele><time>2026-03-27T06:57:14.000Z</time></trkpt>
        <trkpt lat="29.5591025" lon="103.3877519"><ele>769.11</ele><time>2026-03-27T06:57:28.000Z</time></trkpt>
        <trkpt lat="29.5590006" lon="103.3877464"><ele>768.13</ele><time>2026-03-27T06:57:38.000Z</time></trkpt>
        <trkpt lat="29.5588985" lon="103.3877682"><ele>766.4</ele><time>2026-03-27T06:57:50.000Z</time></trkpt>
        <trkpt lat="29.5587958" lon="103.3877976"><ele>763.45</ele><time>2026-03-27T06:58:04.000Z</time></trkpt>
        <trkpt lat="29.558703" lon="103.387773"><ele>762.46</ele><time>2026-03-27T06:58:14.000Z</time></trkpt>
        <trkpt lat="29.5586224" lon="103.3877026"><ele>763.97</ele><time>2026-03-27T06:58:26.000Z</time></trkpt>
        <trkpt lat="29.5585324" lon="103.3876768"><ele>765.82</ele><time>2026-03-27T06:58:38.000Z</time></trkpt>
        <trkpt lat="29.5584565" lon="103.3875979"><ele>768.36</ele><time>2026-03-27T06:59:12.000Z</time></trkpt>
        <trkpt lat="29.5583903" lon="103.3875007"><ele>769.83</ele><time>2026-03-27T06:59:22.000Z</time></trkpt>
        <trkpt lat="29.5583226" lon="103.3874121"><ele>771.32</ele><time>2026-03-27T06:59:34.000Z</time></trkpt>
        <trkpt lat="29.5583023" lon="103.3873887"><ele>772.42</ele><time>2026-03-27T06:59:36.000Z</time></trkpt>
        <trkpt lat="29.5582726" lon="103.3873137"><ele>773.1</ele><time>2026-03-27T07:00:10.000Z</time></trkpt>
        <trkpt lat="29.5582045" lon="103.3872566"><ele>772.95</ele><time>2026-03-27T07:00:26.000Z</time></trkpt>
        <trkpt lat="29.5581252" lon="103.3872019"><ele>773.63</ele><time>2026-03-27T07:00:42.000Z</time></trkpt>
        <trkpt lat="29.5580439" lon="103.3871449"><ele>775.79</ele><time>2026-03-27T07:00:58.000Z</time></trkpt>
        <trkpt lat="29.5579628" lon="103.3870868"><ele>777.51</ele><time>2026-03-27T07:01:08.000Z</time></trkpt>
        <trkpt lat="29.5578699" lon="103.3870472"><ele>778.89</ele><time>2026-03-27T07:01:20.000Z</time></trkpt>
        <trkpt lat="29.5577705" lon="103.3870297"><ele>779.95</ele><time>2026-03-27T07:01:30.000Z</time></trkpt>
        <trkpt lat="29.5576744" lon="103.3870126"><ele>780.87</ele><time>2026-03-27T07:01:46.000Z</time></trkpt>
        <trkpt lat="29.5576629" lon="103.3869236"><ele>781.68</ele><time>2026-03-27T07:02:06.000Z</time></trkpt>
        <trkpt lat="29.5576611" lon="103.3868086"><ele>782.12</ele><time>2026-03-27T07:02:20.000Z</time></trkpt>
        <trkpt lat="29.5576089" lon="103.3867288"><ele>784.02</ele><time>2026-03-27T07:02:30.000Z</time></trkpt>
        <trkpt lat="29.5575344" lon="103.386661"><ele>785.45</ele><time>2026-03-27T07:02:40.000Z</time></trkpt>
        <trkpt lat="29.5574662" lon="103.3865747"><ele>787.08</ele><time>2026-03-27T07:02:54.000Z</time></trkpt>
        <trkpt lat="29.5573775" lon="103.3865109"><ele>788.39</ele><time>2026-03-27T07:03:10.000Z</time></trkpt>
        <trkpt lat="29.5573184" lon="103.3864729"><ele>788.87</ele><time>2026-03-27T07:03:20.000Z</time></trkpt>
        <trkpt lat="29.5572376" lon="103.3864381"><ele>788.29</ele><time>2026-03-27T07:03:42.000Z</time></trkpt>
        <trkpt lat="29.557172" lon="103.3863656"><ele>787.08</ele><time>2026-03-27T07:03:56.000Z</time></trkpt>
        <trkpt lat="29.5570964" lon="103.3863812"><ele>787.14</ele><time>2026-03-27T07:04:08.000Z</time></trkpt>
        <trkpt lat="29.5570206" lon="103.3863403"><ele>788.31</ele><time>2026-03-27T07:04:24.000Z</time></trkpt>
        <trkpt lat="29.5569949" lon="103.3862392"><ele>787.09</ele><time>2026-03-27T07:04:36.000Z</time></trkpt>
        <trkpt lat="29.5569523" lon="103.3861349"><ele>785.49</ele><time>2026-03-27T07:04:48.000Z</time></trkpt>
        <trkpt lat="29.5568747" lon="103.3860707"><ele>783.21</ele><time>2026-03-27T07:04:58.000Z</time></trkpt>
        <trkpt lat="29.5568018" lon="103.3860041"><ele>782.02</ele><time>2026-03-27T07:05:10.000Z</time></trkpt>
        <trkpt lat="29.5567153" lon="103.3860146"><ele>780.66</ele><time>2026-03-27T07:05:22.000Z</time></trkpt>
        <trkpt lat="29.5566268" lon="103.3860542"><ele>779.34</ele><time>2026-03-27T07:05:50.000Z</time></trkpt>
        <trkpt lat="29.5565346" lon="103.3861011"><ele>777.66</ele><time>2026-03-27T07:06:06.000Z</time></trkpt>
        <trkpt lat="29.5564427" lon="103.3860568"><ele>779.12</ele><time>2026-03-27T07:18:10.000Z</time></trkpt>
        <trkpt lat="29.55644" lon="103.385947"><ele>786.45</ele><time>2026-03-27T07:18:34.000Z</time></trkpt>
        <trkpt lat="29.5563558" lon="103.3859151"><ele>793.74</ele><time>2026-03-27T07:19:12.000Z</time></trkpt>
        <trkpt lat="29.5562795" lon="103.3859641"><ele>800.27</ele><time>2026-03-27T07:19:42.000Z</time></trkpt>
        <trkpt lat="29.5561965" lon="103.3860255"><ele>805.15</ele><time>2026-03-27T07:20:04.000Z</time></trkpt>
        <trkpt lat="29.556102" lon="103.3860454"><ele>810.12</ele><time>2026-03-27T07:20:32.000Z</time></trkpt>
        <trkpt lat="29.5560087" lon="103.3860259"><ele>815.34</ele><time>2026-03-27T07:20:58.000Z</time></trkpt>
        <trkpt lat="29.5559323" lon="103.3859626"><ele>819.04</ele><time>2026-03-27T07:21:26.000Z</time></trkpt>
        <trkpt lat="29.5559822" lon="103.385956"><ele>824.15</ele><time>2026-03-27T07:21:58.000Z</time></trkpt>
        <trkpt lat="29.5560271" lon="103.3858795"><ele>828.34</ele><time>2026-03-27T07:22:18.000Z</time></trkpt>
        <trkpt lat="29.5560584" lon="103.385769"><ele>833.07</ele><time>2026-03-27T07:22:58.000Z</time></trkpt>
        <trkpt lat="29.5560637" lon="103.3856562"><ele>837.35</ele><time>2026-03-27T07:23:12.000Z</time></trkpt>
        <trkpt lat="29.556084" lon="103.3855495"><ele>840.62</ele><time>2026-03-27T07:23:30.000Z</time></trkpt>
        <trkpt lat="29.5561025" lon="103.385441"><ele>845.36</ele><time>2026-03-27T07:23:48.000Z</time></trkpt>
        <trkpt lat="29.5560452" lon="103.3854489"><ele>849.59</ele><time>2026-03-27T07:24:18.000Z</time></trkpt>
        <trkpt lat="29.5559694" lon="103.3855128"><ele>853.72</ele><time>2026-03-27T07:24:58.000Z</time></trkpt>
        <trkpt lat="29.5558956" lon="103.3854796"><ele>856.84</ele><time>2026-03-27T07:25:28.000Z</time></trkpt>
        <trkpt lat="29.5558075" lon="103.3854862"><ele>858.74</ele><time>2026-03-27T07:25:52.000Z</time></trkpt>
        <trkpt lat="29.5557161" lon="103.3854724"><ele>862.39</ele><time>2026-03-27T07:26:24.000Z</time></trkpt>
        <trkpt lat="29.5556745" lon="103.3853852"><ele>865.88</ele><time>2026-03-27T07:27:12.000Z</time></trkpt>
        <trkpt lat="29.5556256" lon="103.3852888"><ele>872.93</ele><time>2026-03-27T07:27:40.000Z</time></trkpt>
        <trkpt lat="29.5556734" lon="103.3851739"><ele>878.58</ele><time>2026-03-27T07:53:02.000Z</time></trkpt>
        <trkpt lat="29.555687" lon="103.3850673"><ele>884.85</ele><time>2026-03-27T07:53:20.000Z</time></trkpt>
        <trkpt lat="29.5556163" lon="103.3850176"><ele>889.22</ele><time>2026-03-27T07:53:38.000Z</time></trkpt>
        <trkpt lat="29.5555268" lon="103.3849919"><ele>892.81</ele><time>2026-03-27T07:54:10.000Z</time></trkpt>
        <trkpt lat="29.5554296" lon="103.3849948"><ele>895.82</ele><time>2026-03-27T07:54:28.000Z</time></trkpt>
        <trkpt lat="29.5553421" lon="103.3849641"><ele>898.32</ele><time>2026-03-27T07:54:52.000Z</time></trkpt>
        <trkpt lat="29.5552477" lon="103.3849432"><ele>903.19</ele><time>2026-03-27T07:55:16.000Z</time></trkpt>
        <trkpt lat="29.5551535" lon="103.3849581"><ele>908.49</ele><time>2026-03-27T07:55:54.000Z</time></trkpt>
        <trkpt lat="29.5550583" lon="103.3849534"><ele>913.7</ele><time>2026-03-27T07:56:12.000Z</time></trkpt>
        <trkpt lat="29.5549855" lon="103.384898"><ele>918.6</ele><time>2026-03-27T07:56:28.000Z</time></trkpt>
        <trkpt lat="29.5549074" lon="103.384829"><ele>920.93</ele><time>2026-03-27T07:56:44.000Z</time></trkpt>
        <trkpt lat="29.5548381" lon="103.3847555"><ele>923.78</ele><time>2026-03-27T07:57:02.000Z</time></trkpt>
        <trkpt lat="29.554774" lon="103.3846626"><ele>927.42</ele><time>2026-03-27T07:57:16.000Z</time></trkpt>
        <trkpt lat="29.5546908" lon="103.3846344"><ele>929.53</ele><time>2026-03-27T07:57:32.000Z</time></trkpt>
        <trkpt lat="29.5546524" lon="103.3845567"><ele>932.18</ele><time>2026-03-27T07:57:42.000Z</time></trkpt>
        <trkpt lat="29.5547373" lon="103.3844871"><ele>933.19</ele><time>2026-03-27T08:01:32.000Z</time></trkpt>
        <trkpt lat="29.5548223" lon="103.3844463"><ele>937.45</ele><time>2026-03-27T08:02:06.000Z</time></trkpt>
        <trkpt lat="29.5548864" lon="103.384371"><ele>943.27</ele><time>2026-03-27T08:02:38.000Z</time></trkpt>
        <trkpt lat="29.5549557" lon="103.3843008"><ele>945.75</ele><time>2026-03-27T08:03:00.000Z</time></trkpt>
        <trkpt lat="29.5550376" lon="103.3842595"><ele>948.6</ele><time>2026-03-27T08:03:26.000Z</time></trkpt>
        <trkpt lat="29.55509" lon="103.3841822"><ele>952.79</ele><time>2026-03-27T08:03:48.000Z</time></trkpt>
        <trkpt lat="29.5550588" lon="103.3840855"><ele>956.02</ele><time>2026-03-27T08:04:04.000Z</time></trkpt>
        <trkpt lat="29.5549909" lon="103.3839862"><ele>957.84</ele><time>2026-03-27T08:04:42.000Z</time></trkpt>
        <trkpt lat="29.5549524" lon="103.3839108"><ele>959.86</ele><time>2026-03-27T08:04:50.000Z</time></trkpt>
        <trkpt lat="29.5549293" lon="103.3838114"><ele>960.94</ele><time>2026-03-27T08:05:06.000Z</time></trkpt>
        <trkpt lat="29.5549781" lon="103.3837309"><ele>959.91</ele><time>2026-03-27T08:05:18.000Z</time></trkpt>
        <trkpt lat="29.5550259" lon="103.3836329"><ele>959.22</ele><time>2026-03-27T08:05:56.000Z</time></trkpt>
        <trkpt lat="29.5550104" lon="103.3835353"><ele>958.26</ele><time>2026-03-27T08:06:08.000Z</time></trkpt>
        <trkpt lat="29.5549675" lon="103.3834381"><ele>957.37</ele><time>2026-03-27T08:06:20.000Z</time></trkpt>
        <trkpt lat="29.5548878" lon="103.383374"><ele>957.31</ele><time>2026-03-27T08:06:30.000Z</time></trkpt>
        <trkpt lat="29.5548107" lon="103.3833077"><ele>957.48</ele><time>2026-03-27T08:06:40.000Z</time></trkpt>
        <trkpt lat="29.5547134" lon="103.3832762"><ele>958.82</ele><time>2026-03-27T08:06:54.000Z</time></trkpt>
        <trkpt lat="29.554623" lon="103.3832417"><ele>957.7</ele><time>2026-03-27T08:07:06.000Z</time></trkpt>
        <trkpt lat="29.5545443" lon="103.3831854"><ele>957.36</ele><time>2026-03-27T08:07:16.000Z</time></trkpt>
        <trkpt lat="29.5544757" lon="103.3830981"><ele>956.82</ele><time>2026-03-27T08:07:32.000Z</time></trkpt>
        <trkpt lat="29.5544572" lon="103.3829868"><ele>957.82</ele><time>2026-03-27T08:07:44.000Z</time></trkpt>
        <trkpt lat="29.5543988" lon="103.3829191"><ele>962.27</ele><time>2026-03-27T08:08:04.000Z</time></trkpt>
        <trkpt lat="29.5543829" lon="103.3828247"><ele>966.04</ele><time>2026-03-27T08:08:34.000Z</time></trkpt>
        <trkpt lat="29.5543844" lon="103.3827208"><ele>969.19</ele><time>2026-03-27T08:09:08.000Z</time></trkpt>
        <trkpt lat="29.554387" lon="103.3826094"><ele>973.1</ele><time>2026-03-27T08:09:36.000Z</time></trkpt>
        <trkpt lat="29.5543406" lon="103.382524"><ele>975.91</ele><time>2026-03-27T08:09:52.000Z</time></trkpt>
        <trkpt lat="29.5542695" lon="103.3824441"><ele>979.31</ele><time>2026-03-27T08:10:16.000Z</time></trkpt>
        <trkpt lat="29.5542007" lon="103.382369"><ele>982.62</ele><time>2026-03-27T08:10:28.000Z</time></trkpt>
        <trkpt lat="29.554199" lon="103.3822753"><ele>984.81</ele><time>2026-03-27T08:10:38.000Z</time></trkpt>
        <trkpt lat="29.5542106" lon="103.3821707"><ele>987.74</ele><time>2026-03-27T08:10:56.000Z</time></trkpt>
        <trkpt lat="29.5542029" lon="103.3820652"><ele>989.4</ele><time>2026-03-27T08:11:14.000Z</time></trkpt>
        <trkpt lat="29.5541852" lon="103.3819573"><ele>990.41</ele><time>2026-03-27T08:11:28.000Z</time></trkpt>
        <trkpt lat="29.5541595" lon="103.3818527"><ele>991.24</ele><time>2026-03-27T08:11:38.000Z</time></trkpt>
        <trkpt lat="29.5541105" lon="103.3817626"><ele>992.06</ele><time>2026-03-27T08:11:58.000Z</time></trkpt>
        <trkpt lat="29.5540994" lon="103.3816537"><ele>993.46</ele><time>2026-03-27T08:12:12.000Z</time></trkpt>
        <trkpt lat="29.5540721" lon="103.381548"><ele>995.22</ele><time>2026-03-27T08:12:24.000Z</time></trkpt>
        <trkpt lat="29.5540351" lon="103.381446"><ele>997.02</ele><time>2026-03-27T08:12:38.000Z</time></trkpt>
        <trkpt lat="29.5540313" lon="103.3813308"><ele>997.82</ele><time>2026-03-27T08:12:52.000Z</time></trkpt>
        <trkpt lat="29.5540112" lon="103.3812202"><ele>999.16</ele><time>2026-03-27T08:13:02.000Z</time></trkpt>
        <trkpt lat="29.5539878" lon="103.3811148"><ele>1000.27</ele><time>2026-03-27T08:13:16.000Z</time></trkpt>
        <trkpt lat="29.5539423" lon="103.3810241"><ele>1000.84</ele><time>2026-03-27T08:13:26.000Z</time></trkpt>
        <trkpt lat="29.5539175" lon="103.3809264"><ele>1001.87</ele><time>2026-03-27T08:13:40.000Z</time></trkpt>
        <trkpt lat="29.5539503" lon="103.3808328"><ele>1002.37</ele><time>2026-03-27T08:13:52.000Z</time></trkpt>
        <trkpt lat="29.554001" lon="103.3807416"><ele>1004.02</ele><time>2026-03-27T08:14:04.000Z</time></trkpt>
        <trkpt lat="29.5540563" lon="103.38065"><ele>1005.34</ele><time>2026-03-27T08:14:16.000Z</time></trkpt>
        <trkpt lat="29.5540912" lon="103.3805452"><ele>1006.94</ele><time>2026-03-27T08:14:32.000Z</time></trkpt>
        <trkpt lat="29.5540612" lon="103.3804433"><ele>1009.04</ele><time>2026-03-27T08:14:42.000Z</time></trkpt>
        <trkpt lat="29.5540233" lon="103.3803414"><ele>1009.67</ele><time>2026-03-27T08:14:52.000Z</time></trkpt>
        <trkpt lat="29.5540289" lon="103.3802399"><ele>1009.82</ele><time>2026-03-27T08:15:02.000Z</time></trkpt>
        <trkpt lat="29.5540278" lon="103.3801254"><ele>1010.91</ele><time>2026-03-27T08:15:16.000Z</time></trkpt>
        <trkpt lat="29.5539928" lon="103.3800129"><ele>1012.5</ele><time>2026-03-27T08:15:30.000Z</time></trkpt>
        <trkpt lat="29.5539393" lon="103.3799157"><ele>1014.06</ele><time>2026-03-27T08:15:46.000Z</time></trkpt>
        <trkpt lat="29.5539251" lon="103.3798112"><ele>1014.44</ele><time>2026-03-27T08:16:06.000Z</time></trkpt>
        <trkpt lat="29.5539294" lon="103.3797074"><ele>1017.54</ele><time>2026-03-27T08:16:32.000Z</time></trkpt>
        <trkpt lat="29.5539256" lon="103.3796004"><ele>1021.19</ele><time>2026-03-27T08:16:50.000Z</time></trkpt>
        <trkpt lat="29.5538964" lon="103.3795017"><ele>1024.67</ele><time>2026-03-27T08:17:06.000Z</time></trkpt>
        <trkpt lat="29.55387" lon="103.3794012"><ele>1027.48</ele><time>2026-03-27T08:17:30.000Z</time></trkpt>
        <trkpt lat="29.5538347" lon="103.3792907"><ele>1029.95</ele><time>2026-03-27T08:19:08.000Z</time></trkpt>
        <trkpt lat="29.5538192" lon="103.3791857"><ele>1031.95</ele><time>2026-03-27T08:19:22.000Z</time></trkpt>
        <trkpt lat="29.5537846" lon="103.3790757"><ele>1033.57</ele><time>2026-03-27T08:19:38.000Z</time></trkpt>
        <trkpt lat="29.5537835" lon="103.3789617"><ele>1035.33</ele><time>2026-03-27T08:19:50.000Z</time></trkpt>
        <trkpt lat="29.5537985" lon="103.378852"><ele>1037.3</ele><time>2026-03-27T08:20:02.000Z</time></trkpt>
        <trkpt lat="29.5538292" lon="103.3787474"><ele>1038.39</ele><time>2026-03-27T08:20:14.000Z</time></trkpt>
        <trkpt lat="29.5538617" lon="103.3786423"><ele>1039.44</ele><time>2026-03-27T08:20:26.000Z</time></trkpt>
        <trkpt lat="29.5538516" lon="103.3785357"><ele>1040.38</ele><time>2026-03-27T08:20:42.000Z</time></trkpt>
        <trkpt lat="29.5538066" lon="103.3784327"><ele>1042.07</ele><time>2026-03-27T08:21:02.000Z</time></trkpt>
        <trkpt lat="29.5537665" lon="103.378328"><ele>1043.77</ele><time>2026-03-27T08:21:22.000Z</time></trkpt>
        <trkpt lat="29.5537044" lon="103.3782339"><ele>1046.17</ele><time>2026-03-27T08:21:42.000Z</time></trkpt>
        <trkpt lat="29.5536396" lon="103.3781433"><ele>1048.2</ele><time>2026-03-27T08:21:56.000Z</time></trkpt>
        <trkpt lat="29.5535852" lon="103.3780535"><ele>1049.26</ele><time>2026-03-27T08:22:08.000Z</time></trkpt>
        <trkpt lat="29.5535359" lon="103.377963"><ele>1051.35</ele><time>2026-03-27T08:22:28.000Z</time></trkpt>
        <trkpt lat="29.5534758" lon="103.3778797"><ele>1054.49</ele><time>2026-03-27T08:22:58.000Z</time></trkpt>
        <trkpt lat="29.5534195" lon="103.3777869"><ele>1059.23</ele><time>2026-03-27T08:23:32.000Z</time></trkpt>
        <trkpt lat="29.5533456" lon="103.3777199"><ele>1063.06</ele><time>2026-03-27T08:29:04.000Z</time></trkpt>
        <trkpt lat="29.5532699" lon="103.3776484"><ele>1068.22</ele><time>2026-03-27T08:29:38.000Z</time></trkpt>
        <trkpt lat="29.5531978" lon="103.3775843"><ele>1074.24</ele><time>2026-03-27T08:29:58.000Z</time></trkpt>
        <trkpt lat="29.5531486" lon="103.3774952"><ele>1078.06</ele><time>2026-03-27T08:30:18.000Z</time></trkpt>
        <trkpt lat="29.553089" lon="103.3774161"><ele>1082.04</ele><time>2026-03-27T08:30:42.000Z</time></trkpt>
        <trkpt lat="29.5530251" lon="103.37734"><ele>1086.4</ele><time>2026-03-27T08:31:02.000Z</time></trkpt>
        <trkpt lat="29.5529537" lon="103.3772761"><ele>1090.18</ele><time>2026-03-27T08:31:32.000Z</time></trkpt>
        <trkpt lat="29.5528796" lon="103.3772093"><ele>1094.33</ele><time>2026-03-27T08:31:58.000Z</time></trkpt>
        <trkpt lat="29.5527925" lon="103.377176"><ele>1098.95</ele><time>2026-03-27T08:32:24.000Z</time></trkpt>
        <trkpt lat="29.5527087" lon="103.3771209"><ele>1104.19</ele><time>2026-03-27T08:32:52.000Z</time></trkpt>
        <trkpt lat="29.5526276" lon="103.3770586"><ele>1109.5</ele><time>2026-03-27T08:33:12.000Z</time></trkpt>
        <trkpt lat="29.5525353" lon="103.3770493"><ele>1111.61</ele><time>2026-03-27T08:33:36.000Z</time></trkpt>
        <trkpt lat="29.5524521" lon="103.3770083"><ele>1114.87</ele><time>2026-03-27T08:34:10.000Z</time></trkpt>
        <trkpt lat="29.5523671" lon="103.3769714"><ele>1118.9</ele><time>2026-03-27T08:34:38.000Z</time></trkpt>
        <trkpt lat="29.5522762" lon="103.3769484"><ele>1123.6</ele><time>2026-03-27T08:35:02.000Z</time></trkpt>
        <trkpt lat="29.5521894" lon="103.3769145"><ele>1128.35</ele><time>2026-03-27T08:35:34.000Z</time></trkpt>
        <trkpt lat="29.5521102" lon="103.376865"><ele>1132.95</ele><time>2026-03-27T08:35:50.000Z</time></trkpt>
        <trkpt lat="29.552051" lon="103.3767848"><ele>1136.89</ele><time>2026-03-27T08:36:10.000Z</time></trkpt>
        <trkpt lat="29.5519666" lon="103.3767387"><ele>1141.14</ele><time>2026-03-27T08:36:46.000Z</time></trkpt>
        <trkpt lat="29.5518811" lon="103.3766818"><ele>1146.26</ele><time>2026-03-27T08:37:02.000Z</time></trkpt>
        <trkpt lat="29.551806" lon="103.3767544"><ele>1148.59</ele><time>2026-03-27T08:39:48.000Z</time></trkpt>
        <trkpt lat="29.5517645" lon="103.37666"><ele>1149.03</ele><time>2026-03-27T08:41:52.000Z</time></trkpt>
        <trkpt lat="29.5517817" lon="103.3765576"><ele>1149.53</ele><time>2026-03-27T08:42:12.000Z</time></trkpt>
        <trkpt lat="29.5517701" lon="103.3764557"><ele>1152.63</ele><time>2026-03-27T08:42:52.000Z</time></trkpt>
        <trkpt lat="29.5517588" lon="103.37635"><ele>1155.93</ele><time>2026-03-27T08:43:24.000Z</time></trkpt>
        <trkpt lat="29.5517323" lon="103.3762481"><ele>1160.22</ele><time>2026-03-27T08:44:54.000Z</time></trkpt>
        <trkpt lat="29.5517361" lon="103.3761422"><ele>1168.82</ele><time>2026-03-27T08:45:16.000Z</time></trkpt>
        <trkpt lat="29.5517209" lon="103.3760364"><ele>1174.8</ele><time>2026-03-27T08:45:44.000Z</time></trkpt>
        <trkpt lat="29.5517231" lon="103.3759282"><ele>1179.79</ele><time>2026-03-27T08:46:10.000Z</time></trkpt>
        <trkpt lat="29.551708" lon="103.3758166"><ele>1184.68</ele><time>2026-03-27T08:46:28.000Z</time></trkpt>
        <trkpt lat="29.5516856" lon="103.3757018"><ele>1187.73</ele><time>2026-03-27T08:46:42.000Z</time></trkpt>
        <trkpt lat="29.5516504" lon="103.3756"><ele>1189.73</ele><time>2026-03-27T08:46:52.000Z</time></trkpt>
        <trkpt lat="29.5515922" lon="103.3755192"><ele>1190.89</ele><time>2026-03-27T08:47:02.000Z</time></trkpt>
        <trkpt lat="29.5515245" lon="103.3754442"><ele>1191.27</ele><time>2026-03-27T08:47:14.000Z</time></trkpt>
        <trkpt lat="29.5514454" lon="103.3753851"><ele>1191.18</ele><time>2026-03-27T08:47:28.000Z</time></trkpt>
        <trkpt lat="29.5513693" lon="103.3753229"><ele>1190.07</ele><time>2026-03-27T08:47:40.000Z</time></trkpt>
        <trkpt lat="29.5512816" lon="103.3752861"><ele>1190.12</ele><time>2026-03-27T08:48:02.000Z</time></trkpt>
        <trkpt lat="29.5511954" lon="103.3752465"><ele>1190.64</ele><time>2026-03-27T08:48:26.000Z</time></trkpt>
        <trkpt lat="29.5511069" lon="103.3752166"><ele>1193.88</ele><time>2026-03-27T08:48:38.000Z</time></trkpt>
        <trkpt lat="29.551013" lon="103.3752115"><ele>1195.97</ele><time>2026-03-27T08:48:58.000Z</time></trkpt>
        <trkpt lat="29.5509191" lon="103.3752094"><ele>1198.66</ele><time>2026-03-27T08:49:14.000Z</time></trkpt>
        <trkpt lat="29.5508315" lon="103.37517"><ele>1200.68</ele><time>2026-03-27T08:49:28.000Z</time></trkpt>
        <trkpt lat="29.550744" lon="103.3751196"><ele>1202.82</ele><time>2026-03-27T08:49:40.000Z</time></trkpt>
        <trkpt lat="29.5506543" lon="103.3750821"><ele>1204</ele><time>2026-03-27T08:49:54.000Z</time></trkpt>
        <trkpt lat="29.5505737" lon="103.3750319"><ele>1205.22</ele><time>2026-03-27T08:50:06.000Z</time></trkpt>
        <trkpt lat="29.5504885" lon="103.3749986"><ele>1206.18</ele><time>2026-03-27T08:50:16.000Z</time></trkpt>
        <trkpt lat="29.5503974" lon="103.3749626"><ele>1206.38</ele><time>2026-03-27T08:50:26.000Z</time></trkpt>
        <trkpt lat="29.5503097" lon="103.3749088"><ele>1206.8</ele><time>2026-03-27T08:50:40.000Z</time></trkpt>
        <trkpt lat="29.550221" lon="103.374862"><ele>1207.89</ele><time>2026-03-27T08:50:52.000Z</time></trkpt>
        <trkpt lat="29.5501247" lon="103.3748173"><ele>1209.26</ele><time>2026-03-27T08:51:14.000Z</time></trkpt>
        <trkpt lat="29.550038" lon="103.3747607"><ele>1211.07</ele><time>2026-03-27T08:51:26.000Z</time></trkpt>
        <trkpt lat="29.549957" lon="103.3747045"><ele>1214</ele><time>2026-03-27T08:51:40.000Z</time></trkpt>
        <trkpt lat="29.5499678" lon="103.3746158"><ele>1217.43</ele><time>2026-03-27T08:52:04.000Z</time></trkpt>
        <trkpt lat="29.5500292" lon="103.3745318"><ele>1218.21</ele><time>2026-03-27T08:52:30.000Z</time></trkpt>
        <trkpt lat="29.5500857" lon="103.3744365"><ele>1220.18</ele><time>2026-03-27T08:53:08.000Z</time></trkpt>
        <trkpt lat="29.5501582" lon="103.3743525"><ele>1222.6</ele><time>2026-03-27T08:53:22.000Z</time></trkpt>
        <trkpt lat="29.5502496" lon="103.3742984"><ele>1224.23</ele><time>2026-03-27T08:53:36.000Z</time></trkpt>
        <trkpt lat="29.5503379" lon="103.3742397"><ele>1226.48</ele><time>2026-03-27T08:53:52.000Z</time></trkpt>
        <trkpt lat="29.5504242" lon="103.3741697"><ele>1228.62</ele><time>2026-03-27T08:54:04.000Z</time></trkpt>
        <trkpt lat="29.5505145" lon="103.374102"><ele>1230.36</ele><time>2026-03-27T08:54:16.000Z</time></trkpt>
        <trkpt lat="29.5506088" lon="103.3740662"><ele>1232.5</ele><time>2026-03-27T08:54:28.000Z</time></trkpt>
        <trkpt lat="29.5506925" lon="103.3740231"><ele>1234.42</ele><time>2026-03-27T08:54:44.000Z</time></trkpt>
        <trkpt lat="29.5507722" lon="103.3739614"><ele>1233.15</ele><time>2026-03-27T08:54:54.000Z</time></trkpt>
        <trkpt lat="29.5508586" lon="103.3739159"><ele>1233.65</ele><time>2026-03-27T08:55:18.000Z</time></trkpt>
        <trkpt lat="29.550905" lon="103.3738267"><ele>1234.91</ele><time>2026-03-27T08:55:28.000Z</time></trkpt>
        <trkpt lat="29.5509861" lon="103.3737646"><ele>1234.09</ele><time>2026-03-27T08:55:38.000Z</time></trkpt>
        <trkpt lat="29.5510629" lon="103.3737951"><ele>1233.2</ele><time>2026-03-27T08:55:48.000Z</time></trkpt>
        <trkpt lat="29.5511588" lon="103.3738219"><ele>1234.39</ele><time>2026-03-27T08:56:04.000Z</time></trkpt>
        <trkpt lat="29.551243" lon="103.3737769"><ele>1235.32</ele><time>2026-03-27T08:56:14.000Z</time></trkpt>
        <trkpt lat="29.5512926" lon="103.3736847"><ele>1234.38</ele><time>2026-03-27T08:56:20.000Z</time></trkpt>
        <trkpt lat="29.5512735" lon="103.3735604"><ele>1232.28</ele><time>2026-03-27T08:56:32.000Z</time></trkpt>
        <trkpt lat="29.5512886" lon="103.3734487"><ele>1229.24</ele><time>2026-03-27T08:56:44.000Z</time></trkpt>
        <trkpt lat="29.5513248" lon="103.3733362"><ele>1226.41</ele><time>2026-03-27T08:56:56.000Z</time></trkpt>
        <trkpt lat="29.5513127" lon="103.3732262"><ele>1224.95</ele><time>2026-03-27T08:57:08.000Z</time></trkpt>
        <trkpt lat="29.5512531" lon="103.3731328"><ele>1224.61</ele><time>2026-03-27T08:57:20.000Z</time></trkpt>
        <trkpt lat="29.5511804" lon="103.3730454"><ele>1224.31</ele><time>2026-03-27T08:57:32.000Z</time></trkpt>
        <trkpt lat="29.5511328" lon="103.3729515"><ele>1224.05</ele><time>2026-03-27T08:57:44.000Z</time></trkpt>
        <trkpt lat="29.5510403" lon="103.3729216"><ele>1224.26</ele><time>2026-03-27T08:58:02.000Z</time></trkpt>
        <trkpt lat="29.5509462" lon="103.3728981"><ele>1226.19</ele><time>2026-03-27T08:58:12.000Z</time></trkpt>
        <trkpt lat="29.5508463" lon="103.3728925"><ele>1227.73</ele><time>2026-03-27T08:58:22.000Z</time></trkpt>
        <trkpt lat="29.5507483" lon="103.3728915"><ele>1228.59</ele><time>2026-03-27T08:58:32.000Z</time></trkpt>
        <trkpt lat="29.5506542" lon="103.3728933"><ele>1228.96</ele><time>2026-03-27T08:58:42.000Z</time></trkpt>
        <trkpt lat="29.5505563" lon="103.3729041"><ele>1230.3</ele><time>2026-03-27T08:58:54.000Z</time></trkpt>
        <trkpt lat="29.5504596" lon="103.3729239"><ele>1230.6</ele><time>2026-03-27T08:59:04.000Z</time></trkpt>
        <trkpt lat="29.5503873" lon="103.3729866"><ele>1230.95</ele><time>2026-03-27T08:59:14.000Z</time></trkpt>
        <trkpt lat="29.5502925" lon="103.3730148"><ele>1231.16</ele><time>2026-03-27T08:59:26.000Z</time></trkpt>
        <trkpt lat="29.5501982" lon="103.3729809"><ele>1232.46</ele><time>2026-03-27T08:59:38.000Z</time></trkpt>
        <trkpt lat="29.550127" lon="103.372909"><ele>1231.98</ele><time>2026-03-27T08:59:48.000Z</time></trkpt>
        <trkpt lat="29.5501233" lon="103.3727794"><ele>1232.33</ele><time>2026-03-27T09:00:00.000Z</time></trkpt>
        <trkpt lat="29.5501987" lon="103.3727505"><ele>1235.85</ele><time>2026-03-27T09:00:08.000Z</time></trkpt>
        <trkpt lat="29.5502985" lon="103.3727234"><ele>1233.58</ele><time>2026-03-27T09:00:24.000Z</time></trkpt>
        <trkpt lat="29.550368" lon="103.3726473"><ele>1229.34</ele><time>2026-03-27T09:00:36.000Z</time></trkpt>
        <trkpt lat="29.5504367" lon="103.3725593"><ele>1224.82</ele><time>2026-03-27T09:00:52.000Z</time></trkpt>
        <trkpt lat="29.5505272" lon="103.3725054"><ele>1221.11</ele><time>2026-03-27T09:01:08.000Z</time></trkpt>
        <trkpt lat="29.5505917" lon="103.3724237"><ele>1218.94</ele><time>2026-03-27T09:01:22.000Z</time></trkpt>
        <trkpt lat="29.5506401" lon="103.3723263"><ele>1217.83</ele><time>2026-03-27T09:01:38.000Z</time></trkpt>
        <trkpt lat="29.5506663" lon="103.3722081"><ele>1217.47</ele><time>2026-03-27T09:01:50.000Z</time></trkpt>
        <trkpt lat="29.550668" lon="103.3720913"><ele>1217.44</ele><time>2026-03-27T09:02:00.000Z</time></trkpt>
        <trkpt lat="29.5506248" lon="103.3719871"><ele>1217.48</ele><time>2026-03-27T09:02:20.000Z</time></trkpt>
        <trkpt lat="29.5505703" lon="103.3718944"><ele>1217.44</ele><time>2026-03-27T09:02:36.000Z</time></trkpt>
        <trkpt lat="29.5505023" lon="103.3718135"><ele>1216.71</ele><time>2026-03-27T09:02:46.000Z</time></trkpt>
        <trkpt lat="29.5504594" lon="103.3717219"><ele>1215.99</ele><time>2026-03-27T09:02:58.000Z</time></trkpt>
        <trkpt lat="29.5504034" lon="103.3716356"><ele>1216.14</ele><time>2026-03-27T09:03:16.000Z</time></trkpt>
        <trkpt lat="29.5503427" lon="103.3715533"><ele>1216.49</ele><time>2026-03-27T09:03:36.000Z</time></trkpt>
        <trkpt lat="29.5502554" lon="103.3715087"><ele>1215.63</ele><time>2026-03-27T09:03:48.000Z</time></trkpt>
        <trkpt lat="29.5501864" lon="103.3714291"><ele>1213.25</ele><time>2026-03-27T09:04:02.000Z</time></trkpt>
        <trkpt lat="29.5502407" lon="103.3713579"><ele>1210.09</ele><time>2026-03-27T09:04:14.000Z</time></trkpt>
        <trkpt lat="29.5503065" lon="103.371259"><ele>1208.33</ele><time>2026-03-27T09:04:26.000Z</time></trkpt>
        <trkpt lat="29.550379" lon="103.3711669"><ele>1209.06</ele><time>2026-03-27T09:04:38.000Z</time></trkpt>
        <trkpt lat="29.5504422" lon="103.3710668"><ele>1209.14</ele><time>2026-03-27T09:04:52.000Z</time></trkpt>
        <trkpt lat="29.5504712" lon="103.3709563"><ele>1210.6</ele><time>2026-03-27T09:05:04.000Z</time></trkpt>
        <trkpt lat="29.5504456" lon="103.3708506"><ele>1211.17</ele><time>2026-03-27T09:05:22.000Z</time></trkpt>
        <trkpt lat="29.5503894" lon="103.3707528"><ele>1209.38</ele><time>2026-03-27T09:05:42.000Z</time></trkpt>
        <trkpt lat="29.5503548" lon="103.3706476"><ele>1206.76</ele><time>2026-03-27T09:06:02.000Z</time></trkpt>
        <trkpt lat="29.5503743" lon="103.370536"><ele>1204.32</ele><time>2026-03-27T09:06:32.000Z</time></trkpt>
        <trkpt lat="29.5503897" lon="103.3704202"><ele>1202.47</ele><time>2026-03-27T09:06:44.000Z</time></trkpt>
        <trkpt lat="29.5503981" lon="103.3703045"><ele>1200.04</ele><time>2026-03-27T09:07:34.000Z</time></trkpt>
        <trkpt lat="29.5503735" lon="103.3701962"><ele>1201.06</ele><time>2026-03-27T09:07:54.000Z</time></trkpt>
        <trkpt lat="29.5503542" lon="103.3700924"><ele>1202.34</ele><time>2026-03-27T09:08:02.000Z</time></trkpt>
        <trkpt lat="29.5503112" lon="103.3700024"><ele>1201.97</ele><time>2026-03-27T09:08:48.000Z</time></trkpt>
        <trkpt lat="29.5502966" lon="103.3699003"><ele>1202.39</ele><time>2026-03-27T09:09:06.000Z</time></trkpt>
        <trkpt lat="29.5502928" lon="103.3698521"><ele>1204.07</ele><time>2026-03-27T09:09:10.000Z</time></trkpt>
        <trkpt lat="29.5502459" lon="103.3697799"><ele>1204.38</ele><time>2026-03-27T09:10:34.000Z</time></trkpt>
        <trkpt lat="29.5502309" lon="103.3696702"><ele>1204.26</ele><time>2026-03-27T09:12:14.000Z</time></trkpt>
        <trkpt lat="29.5501454" lon="103.3696364"><ele>1208.1</ele><time>2026-03-27T09:13:20.000Z</time></trkpt>
        <trkpt lat="29.5501416" lon="103.3695323"><ele>1215.31</ele><time>2026-03-27T09:13:46.000Z</time></trkpt>
        <trkpt lat="29.5500758" lon="103.3694633"><ele>1221.32</ele><time>2026-03-27T09:14:12.000Z</time></trkpt>
        <trkpt lat="29.5499909" lon="103.3693872"><ele>1225.15</ele><time>2026-03-27T09:15:48.000Z</time></trkpt>
        <trkpt lat="29.5499191" lon="103.3693094"><ele>1228.92</ele><time>2026-03-27T09:16:04.000Z</time></trkpt>
        <trkpt lat="29.5498962" lon="103.3692094"><ele>1232.3</ele><time>2026-03-27T09:16:20.000Z</time></trkpt>
        <trkpt lat="29.5498753" lon="103.3691053"><ele>1234.23</ele><time>2026-03-27T09:16:34.000Z</time></trkpt>
        <trkpt lat="29.5498953" lon="103.3690035"><ele>1234.15</ele><time>2026-03-27T09:16:58.000Z</time></trkpt>
        <trkpt lat="29.5499175" lon="103.3688947"><ele>1234.62</ele><time>2026-03-27T09:17:58.000Z</time></trkpt>
        <trkpt lat="29.5498359" lon="103.3688443"><ele>1237.33</ele><time>2026-03-27T09:18:52.000Z</time></trkpt>
        <trkpt lat="29.5497631" lon="103.3687765"><ele>1242.07</ele><time>2026-03-27T09:19:46.000Z</time></trkpt>
        <trkpt lat="29.5496804" lon="103.3687205"><ele>1247.03</ele><time>2026-03-27T09:20:18.000Z</time></trkpt>
        <trkpt lat="29.5496429" lon="103.3686316"><ele>1250.51</ele><time>2026-03-27T09:20:40.000Z</time></trkpt>
        <trkpt lat="29.549704" lon="103.368522"><ele>1253.88</ele><time>2026-03-27T09:23:14.000Z</time></trkpt>
        <trkpt lat="29.54978" lon="103.3684668"><ele>1258.41</ele><time>2026-03-27T09:24:50.000Z</time></trkpt>
        <trkpt lat="29.5496939" lon="103.368434"><ele>1267.47</ele><time>2026-03-27T09:25:52.000Z</time></trkpt>
        <trkpt lat="29.5497383" lon="103.3683317"><ele>1276.06</ele><time>2026-03-27T09:28:44.000Z</time></trkpt>
        <trkpt lat="29.5498184" lon="103.368381"><ele>1282.62</ele><time>2026-03-27T09:38:50.000Z</time></trkpt>
        <trkpt lat="29.549865" lon="103.3682903"><ele>1284.46</ele><time>2026-03-27T09:39:52.000Z</time></trkpt>
        <trkpt lat="29.5499232" lon="103.3682106"><ele>1289.61</ele><time>2026-03-27T09:40:24.000Z</time></trkpt>
        <trkpt lat="29.549888" lon="103.3681128"><ele>1293.59</ele><time>2026-03-27T09:42:16.000Z</time></trkpt>
        <trkpt lat="29.5499303" lon="103.3680104"><ele>1300.26</ele><time>2026-03-27T09:42:46.000Z</time></trkpt>
        <trkpt lat="29.5499152" lon="103.3679052"><ele>1305.9</ele><time>2026-03-27T09:44:12.000Z</time></trkpt>
        <trkpt lat="29.5499957" lon="103.3678462"><ele>1316.45</ele><time>2026-03-27T09:45:20.000Z</time></trkpt>
        <trkpt lat="29.5499463" lon="103.3677553"><ele>1325.21</ele><time>2026-03-27T09:45:44.000Z</time></trkpt>
        <trkpt lat="29.5500108" lon="103.3677042"><ele>1331.28</ele><time>2026-03-27T09:46:24.000Z</time></trkpt>
        <trkpt lat="29.5500945" lon="103.3676488"><ele>1338.74</ele><time>2026-03-27T09:47:12.000Z</time></trkpt>
        <trkpt lat="29.5501765" lon="103.3675799"><ele>1346.13</ele><time>2026-03-27T09:47:30.000Z</time></trkpt>
        <trkpt lat="29.5502076" lon="103.367481"><ele>1351.02</ele><time>2026-03-27T09:48:00.000Z</time></trkpt>
        <trkpt lat="29.5502335" lon="103.3673741"><ele>1355.29</ele><time>2026-03-27T09:49:38.000Z</time></trkpt>
        <trkpt lat="29.5501607" lon="103.3673055"><ele>1359.21</ele><time>2026-03-27T09:50:52.000Z</time></trkpt>
        <trkpt lat="29.5501398" lon="103.3671989"><ele>1363.42</ele><time>2026-03-27T09:52:50.000Z</time></trkpt>
        <trkpt lat="29.5501805" lon="103.3670861"><ele>1371.75</ele><time>2026-03-27T09:53:02.000Z</time></trkpt>
        <trkpt lat="29.5502647" lon="103.3670146"><ele>1376.23</ele><time>2026-03-27T09:53:22.000Z</time></trkpt>
        <trkpt lat="29.5503562" lon="103.3669797"><ele>1379.81</ele><time>2026-03-27T09:53:54.000Z</time></trkpt>
        <trkpt lat="29.5503633" lon="103.3668949"><ele>1385.79</ele><time>2026-03-27T09:54:08.000Z</time></trkpt>
        <trkpt lat="29.5502792" lon="103.3668429"><ele>1389.51</ele><time>2026-03-27T09:54:36.000Z</time></trkpt>
        <trkpt lat="29.5501799" lon="103.3667986"><ele>1394.67</ele><time>2026-03-27T09:54:56.000Z</time></trkpt>
        <trkpt lat="29.5501056" lon="103.3667158"><ele>1399.16</ele><time>2026-03-27T09:55:30.000Z</time></trkpt>
        <trkpt lat="29.5500316" lon="103.3666292"><ele>1403.17</ele><time>2026-03-27T09:56:38.000Z</time></trkpt>
        <trkpt lat="29.549966" lon="103.3665516"><ele>1408.13</ele><time>2026-03-27T09:56:56.000Z</time></trkpt>
        <trkpt lat="29.5498695" lon="103.3665307"><ele>1411.74</ele><time>2026-03-27T09:57:56.000Z</time></trkpt>
        <trkpt lat="29.5497805" lon="103.3665639"><ele>1413.28</ele><time>2026-03-27T09:58:12.000Z</time></trkpt>
        <trkpt lat="29.54969" lon="103.3665908"><ele>1415.44</ele><time>2026-03-27T09:58:40.000Z</time></trkpt>
        <trkpt lat="29.5496047" lon="103.3665548"><ele>1420.64</ele><time>2026-03-27T09:59:22.000Z</time></trkpt>
        <trkpt lat="29.5495247" lon="103.3664724"><ele>1425.79</ele><time>2026-03-27T10:00:48.000Z</time></trkpt>
        <trkpt lat="29.549447" lon="103.3664081"><ele>1432.48</ele><time>2026-03-27T10:02:04.000Z</time></trkpt>
        <trkpt lat="29.5493835" lon="103.3663263"><ele>1438.43</ele><time>2026-03-27T10:02:26.000Z</time></trkpt>
        <trkpt lat="29.5494613" lon="103.3662716"><ele>1442.35</ele><time>2026-03-27T10:29:20.000Z</time></trkpt>
        <trkpt lat="29.5495503" lon="103.3662298"><ele>1447.64</ele><time>2026-03-27T10:29:28.000Z</time></trkpt>
        <trkpt lat="29.54964" lon="103.3661726"><ele>1449.24</ele><time>2026-03-27T10:29:44.000Z</time></trkpt>
        <trkpt lat="29.5496935" lon="103.3660877"><ele>1452.03</ele><time>2026-03-27T10:29:58.000Z</time></trkpt>
        <trkpt lat="29.5496886" lon="103.3659873"><ele>1457.14</ele><time>2026-03-27T10:30:16.000Z</time></trkpt>
        <trkpt lat="29.5496835" lon="103.3658737"><ele>1460.34</ele><time>2026-03-27T10:30:36.000Z</time></trkpt>
        <trkpt lat="29.5496313" lon="103.3657787"><ele>1458.97</ele><time>2026-03-27T10:30:54.000Z</time></trkpt>
        <trkpt lat="29.5496001" lon="103.3656774"><ele>1458.36</ele><time>2026-03-27T10:31:12.000Z</time></trkpt>
        <trkpt lat="29.549539" lon="103.3655933"><ele>1460.21</ele><time>2026-03-27T10:31:24.000Z</time></trkpt>
        <trkpt lat="29.5495384" lon="103.365492"><ele>1462.18</ele><time>2026-03-27T10:31:42.000Z</time></trkpt>
        <trkpt lat="29.5496057" lon="103.3654077"><ele>1462.84</ele><time>2026-03-27T10:31:52.000Z</time></trkpt>
        <trkpt lat="29.5496863" lon="103.3653372"><ele>1462.7</ele><time>2026-03-27T10:32:02.000Z</time></trkpt>
        <trkpt lat="29.5497352" lon="103.365241"><ele>1463.32</ele><time>2026-03-27T10:32:12.000Z</time></trkpt>
        <trkpt lat="29.5498007" lon="103.3651674"><ele>1463.33</ele><time>2026-03-27T10:32:20.000Z</time></trkpt>
        <trkpt lat="29.5498735" lon="103.3650815"><ele>1462.88</ele><time>2026-03-27T10:32:32.000Z</time></trkpt>
        <trkpt lat="29.5499171" lon="103.3649704"><ele>1463.43</ele><time>2026-03-27T10:32:42.000Z</time></trkpt>
        <trkpt lat="29.5499835" lon="103.3648923"><ele>1463.6</ele><time>2026-03-27T10:32:54.000Z</time></trkpt>
        <trkpt lat="29.5500596" lon="103.3648241"><ele>1463.51</ele><time>2026-03-27T10:33:06.000Z</time></trkpt>
        <trkpt lat="29.5500908" lon="103.3647274"><ele>1465.01</ele><time>2026-03-27T10:33:16.000Z</time></trkpt>
        <trkpt lat="29.5500915" lon="103.3646165"><ele>1465.45</ele><time>2026-03-27T10:33:28.000Z</time></trkpt>
        <trkpt lat="29.5501238" lon="103.3645172"><ele>1464.92</ele><time>2026-03-27T10:33:40.000Z</time></trkpt>
        <trkpt lat="29.5501906" lon="103.3644489"><ele>1462.55</ele><time>2026-03-27T10:33:54.000Z</time></trkpt>
        <trkpt lat="29.5502642" lon="103.3643674"><ele>1461.1</ele><time>2026-03-27T10:34:06.000Z</time></trkpt>
        <trkpt lat="29.550316" lon="103.3642603"><ele>1462.92</ele><time>2026-03-27T10:34:18.000Z</time></trkpt>
        <trkpt lat="29.5503564" lon="103.3641596"><ele>1463.51</ele><time>2026-03-27T10:34:36.000Z</time></trkpt>
        <trkpt lat="29.5503853" lon="103.3640591"><ele>1465.16</ele><time>2026-03-27T10:35:02.000Z</time></trkpt>
        <trkpt lat="29.5504397" lon="103.3639688"><ele>1468.47</ele><time>2026-03-27T10:35:50.000Z</time></trkpt>
        <trkpt lat="29.5504607" lon="103.3638662"><ele>1473.85</ele><time>2026-03-27T10:36:06.000Z</time></trkpt>
        <trkpt lat="29.5505314" lon="103.3638026"><ele>1475.09</ele><time>2026-03-27T10:36:26.000Z</time></trkpt>
        <trkpt lat="29.5506288" lon="103.3637659"><ele>1476.07</ele><time>2026-03-27T10:36:42.000Z</time></trkpt>
        <trkpt lat="29.5507189" lon="103.3637083"><ele>1478.93</ele><time>2026-03-27T10:36:54.000Z</time></trkpt>
        <trkpt lat="29.5508064" lon="103.3636634"><ele>1481.54</ele><time>2026-03-27T10:37:06.000Z</time></trkpt>
        <trkpt lat="29.5508041" lon="103.3635705"><ele>1484.94</ele><time>2026-03-27T10:37:16.000Z</time></trkpt>
        <trkpt lat="29.5507563" lon="103.3634703"><ele>1487.62</ele><time>2026-03-27T10:37:26.000Z</time></trkpt>
        <trkpt lat="29.5507204" lon="103.363364"><ele>1486.95</ele><time>2026-03-27T10:37:54.000Z</time></trkpt>
        <trkpt lat="29.5507579" lon="103.3632831"><ele>1486.23</ele><time>2026-03-27T10:38:54.000Z</time></trkpt>
        <trkpt lat="29.5507653" lon="103.3631803"><ele>1490.25</ele><time>2026-03-27T10:39:34.000Z</time></trkpt>
        <trkpt lat="29.5508187" lon="103.3630872"><ele>1495.03</ele><time>2026-03-27T10:40:46.000Z</time></trkpt>
        <trkpt lat="29.5508117" lon="103.3629811"><ele>1503.39</ele><time>2026-03-27T10:41:36.000Z</time></trkpt>
        <trkpt lat="29.5507566" lon="103.3628995"><ele>1509</ele><time>2026-03-27T10:41:52.000Z</time></trkpt>
        <trkpt lat="29.5506728" lon="103.3628732"><ele>1514.01</ele><time>2026-03-27T10:42:14.000Z</time></trkpt>
        <trkpt lat="29.550591" lon="103.3628256"><ele>1521.03</ele><time>2026-03-27T10:43:10.000Z</time></trkpt>
        <trkpt lat="29.5505739" lon="103.3627368"><ele>1525.69</ele><time>2026-03-27T10:44:00.000Z</time></trkpt>
        <trkpt lat="29.5506094" lon="103.3626375"><ele>1533.62</ele><time>2026-03-27T10:44:44.000Z</time></trkpt>
        <trkpt lat="29.5506397" lon="103.3625293"><ele>1538.6</ele><time>2026-03-27T10:45:20.000Z</time></trkpt>
        <trkpt lat="29.5506709" lon="103.3624237"><ele>1543.89</ele><time>2026-03-27T10:46:18.000Z</time></trkpt>
        <trkpt lat="29.5506513" lon="103.3623262"><ele>1550.41</ele><time>2026-03-27T10:46:54.000Z</time></trkpt>
        <trkpt lat="29.5506257" lon="103.3622191"><ele>1556.67</ele><time>2026-03-27T10:49:52.000Z</time></trkpt>
        <trkpt lat="29.550568" lon="103.3621398"><ele>1559.96</ele><time>2026-03-27T10:50:12.000Z</time></trkpt>
        <trkpt lat="29.5505515" lon="103.3620325"><ele>1563.98</ele><time>2026-03-27T10:50:50.000Z</time></trkpt>
        <trkpt lat="29.5505602" lon="103.3619225"><ele>1569.32</ele><time>2026-03-27T10:51:36.000Z</time></trkpt>
        <trkpt lat="29.5505353" lon="103.3618207"><ele>1575.47</ele><time>2026-03-27T10:52:08.000Z</time></trkpt>
        <trkpt lat="29.5504838" lon="103.3617298"><ele>1581.52</ele><time>2026-03-27T10:52:26.000Z</time></trkpt>
        <trkpt lat="29.5504145" lon="103.3616533"><ele>1585.52</ele><time>2026-03-27T10:52:50.000Z</time></trkpt>
        <trkpt lat="29.5504107" lon="103.3615521"><ele>1589.5</ele><time>2026-03-27T10:53:52.000Z</time></trkpt>
        <trkpt lat="29.5503226" lon="103.3614859"><ele>1594.47</ele><time>2026-03-27T10:54:16.000Z</time></trkpt>
        <trkpt lat="29.5502551" lon="103.3614078"><ele>1600.12</ele><time>2026-03-27T10:54:36.000Z</time></trkpt>
        <trkpt lat="29.5501886" lon="103.3613317"><ele>1604.19</ele><time>2026-03-27T10:55:38.000Z</time></trkpt>
        <trkpt lat="29.5500992" lon="103.3612859"><ele>1607.51</ele><time>2026-03-27T10:56:00.000Z</time></trkpt>
        <trkpt lat="29.5500248" lon="103.3612089"><ele>1611.47</ele><time>2026-03-27T10:56:12.000Z</time></trkpt>
        <trkpt lat="29.5499399" lon="103.3611664"><ele>1613.24</ele><time>2026-03-27T10:56:26.000Z</time></trkpt>
        <trkpt lat="29.5498932" lon="103.3610776"><ele>1613.5</ele><time>2026-03-27T10:56:46.000Z</time></trkpt>
        <trkpt lat="29.549872" lon="103.3609707"><ele>1614.61</ele><time>2026-03-27T10:57:02.000Z</time></trkpt>
        <trkpt lat="29.5498301" lon="103.3608658"><ele>1616.34</ele><time>2026-03-27T10:57:16.000Z</time></trkpt>
        <trkpt lat="29.5498481" lon="103.3607619"><ele>1618.84</ele><time>2026-03-27T10:57:34.000Z</time></trkpt>
        <trkpt lat="29.5498969" lon="103.3606681"><ele>1618.72</ele><time>2026-03-27T10:57:54.000Z</time></trkpt>
        <trkpt lat="29.5499324" lon="103.3605675"><ele>1618.8</ele><time>2026-03-27T10:58:18.000Z</time></trkpt>
        <trkpt lat="29.5499902" lon="103.360483"><ele>1619.29</ele><time>2026-03-27T10:58:28.000Z</time></trkpt>
        <trkpt lat="29.5500434" lon="103.3603894"><ele>1617.46</ele><time>2026-03-27T10:58:42.000Z</time></trkpt>
        <trkpt lat="29.5500842" lon="103.3602905"><ele>1615.41</ele><time>2026-03-27T10:58:58.000Z</time></trkpt>
        <trkpt lat="29.5501302" lon="103.3601929"><ele>1615.69</ele><time>2026-03-27T10:59:20.000Z</time></trkpt>
        <trkpt lat="29.5501386" lon="103.3600908"><ele>1615.73</ele><time>2026-03-27T10:59:38.000Z</time></trkpt>
        <trkpt lat="29.5501093" lon="103.3599904"><ele>1617.13</ele><time>2026-03-27T11:00:10.000Z</time></trkpt>
        <trkpt lat="29.5500745" lon="103.3598877"><ele>1619.08</ele><time>2026-03-27T11:01:02.000Z</time></trkpt>
        <trkpt lat="29.5500226" lon="103.3597867"><ele>1622.93</ele><time>2026-03-27T11:01:38.000Z</time></trkpt>
        <trkpt lat="29.5499701" lon="103.3596822"><ele>1626.82</ele><time>2026-03-27T11:01:52.000Z</time></trkpt>
        <trkpt lat="29.549916" lon="103.359592"><ele>1629.4</ele><time>2026-03-27T11:02:20.000Z</time></trkpt>
        <trkpt lat="29.5498643" lon="103.3595001"><ele>1632.13</ele><time>2026-03-27T11:02:48.000Z</time></trkpt>
        <trkpt lat="29.5498454" lon="103.3593995"><ele>1635.31</ele><time>2026-03-27T11:03:14.000Z</time></trkpt>
        <trkpt lat="29.5499186" lon="103.3593152"><ele>1638.41</ele><time>2026-03-27T11:04:24.000Z</time></trkpt>
        <trkpt lat="29.549997" lon="103.3592582"><ele>1641.38</ele><time>2026-03-27T11:04:50.000Z</time></trkpt>
        <trkpt lat="29.5500584" lon="103.3591764"><ele>1644.82</ele><time>2026-03-27T11:05:04.000Z</time></trkpt>
        <trkpt lat="29.5501415" lon="103.3591316"><ele>1648.43</ele><time>2026-03-27T11:05:24.000Z</time></trkpt>
        <trkpt lat="29.550231" lon="103.3591128"><ele>1650.3</ele><time>2026-03-27T11:05:38.000Z</time></trkpt>
        <trkpt lat="29.550274" lon="103.3590364"><ele>1651.5</ele><time>2026-03-27T11:05:50.000Z</time></trkpt>
        <trkpt lat="29.5502586" lon="103.3589379"><ele>1651.57</ele><time>2026-03-27T11:06:08.000Z</time></trkpt>
        <trkpt lat="29.5502658" lon="103.3588254"><ele>1652.3</ele><time>2026-03-27T11:06:34.000Z</time></trkpt>
        <trkpt lat="29.5502683" lon="103.3587039"><ele>1655.24</ele><time>2026-03-27T11:06:56.000Z</time></trkpt>
        <trkpt lat="29.550259" lon="103.3585872"><ele>1658.02</ele><time>2026-03-27T11:07:28.000Z</time></trkpt>
        <trkpt lat="29.5502834" lon="103.3584854"><ele>1659.21</ele><time>2026-03-27T11:08:02.000Z</time></trkpt>
        <trkpt lat="29.5503392" lon="103.3584008"><ele>1663.1</ele><time>2026-03-27T11:09:36.000Z</time></trkpt>
        <trkpt lat="29.5503213" lon="103.3582973"><ele>1666.76</ele><time>2026-03-27T11:09:52.000Z</time></trkpt>
        <trkpt lat="29.5502957" lon="103.358183"><ele>1669.54</ele><time>2026-03-27T11:10:06.000Z</time></trkpt>
        <trkpt lat="29.5502939" lon="103.3580716"><ele>1671.54</ele><time>2026-03-27T11:10:28.000Z</time></trkpt>
        <trkpt lat="29.5503131" lon="103.3579647"><ele>1672.71</ele><time>2026-03-27T11:10:48.000Z</time></trkpt>
        <trkpt lat="29.5503442" lon="103.3578569"><ele>1674.86</ele><time>2026-03-27T11:11:06.000Z</time></trkpt>
        <trkpt lat="29.550387" lon="103.3577571"><ele>1675.34</ele><time>2026-03-27T11:11:30.000Z</time></trkpt>
        <trkpt lat="29.5504006" lon="103.3576449"><ele>1678.11</ele><time>2026-03-27T11:11:48.000Z</time></trkpt>
        <trkpt lat="29.5504023" lon="103.357538"><ele>1680.79</ele><time>2026-03-27T11:12:02.000Z</time></trkpt>
        <trkpt lat="29.5504056" lon="103.3574306"><ele>1683.34</ele><time>2026-03-27T11:12:16.000Z</time></trkpt>
        <trkpt lat="29.5503927" lon="103.3573236"><ele>1685.67</ele><time>2026-03-27T11:12:38.000Z</time></trkpt>
        <trkpt lat="29.55041" lon="103.3572203"><ele>1687.78</ele><time>2026-03-27T11:13:00.000Z</time></trkpt>
        <trkpt lat="29.5504135" lon="103.3571144"><ele>1691.09</ele><time>2026-03-27T11:13:20.000Z</time></trkpt>
        <trkpt lat="29.5503802" lon="103.3570138"><ele>1693.48</ele><time>2026-03-27T11:13:30.000Z</time></trkpt>
        <trkpt lat="29.5503454" lon="103.3569139"><ele>1694.49</ele><time>2026-03-27T11:13:44.000Z</time></trkpt>
        <trkpt lat="29.5503454" lon="103.3569139"><ele>1694.49</ele><time>2026-03-27T11:15:16.000Z</time></trkpt>
      </trkseg>
      <trkseg>
        <trkpt lat="29.5502282" lon="103.3569097"><ele>1696.45</ele><time>2026-03-27T11:15:18.000Z</time></trkpt>
        <trkpt lat="29.5502282" lon="103.3569097"><ele>1696.45</ele><time>2026-03-27T11:15:46.000Z</time></trkpt>
        <trkpt lat="29.5501308" lon="103.3569166"><ele>1698.2</ele><time>2026-03-27T11:15:58.000Z</time></trkpt>
        <trkpt lat="29.550035" lon="103.3569227"><ele>1699.93</ele><time>2026-03-27T11:16:08.000Z</time></trkpt>
        <trkpt lat="29.5499566" lon="103.3568748"><ele>1702.25</ele><time>2026-03-27T11:16:20.000Z</time></trkpt>
        <trkpt lat="29.5499321" lon="103.3568444"><ele>1701.8</ele><time>2026-03-27T11:16:26.000Z</time></trkpt>
        <trkpt lat="29.5499251" lon="103.3569478"><ele>1701.39</ele><time>2026-03-27T11:18:58.000Z</time></trkpt>
        <trkpt lat="29.5498751" lon="103.3569442"><ele>1700.73</ele><time>2026-03-27T11:19:10.000Z</time></trkpt>
        <trkpt lat="29.5498021" lon="103.3568799"><ele>1701.52</ele><time>2026-03-27T11:19:22.000Z</time></trkpt>
        <trkpt lat="29.5497084" lon="103.3568228"><ele>1702.2</ele><time>2026-03-27T11:19:32.000Z</time></trkpt>
        <trkpt lat="29.5496404" lon="103.3568738"><ele>1702.79</ele><time>2026-03-27T11:19:48.000Z</time></trkpt>
        <trkpt lat="29.5496378" lon="103.3569872"><ele>1704</ele><time>2026-03-27T11:20:02.000Z</time></trkpt>
        <trkpt lat="29.549599" lon="103.3570882"><ele>1704.94</ele><time>2026-03-27T11:20:18.000Z</time></trkpt>
        <trkpt lat="29.5495629" lon="103.3571931"><ele>1705.22</ele><time>2026-03-27T11:20:44.000Z</time></trkpt>
        <trkpt lat="29.5495889" lon="103.3571556"><ele>1705.78</ele><time>2026-03-27T11:21:34.000Z</time></trkpt>
        <trkpt lat="29.5497001" lon="103.3570868"><ele>1705.18</ele><time>2026-03-27T11:22:50.000Z</time></trkpt>
        <trkpt lat="29.5497974" lon="103.357019"><ele>1705.95</ele><time>2026-03-27T11:23:00.000Z</time></trkpt>
        <trkpt lat="29.5498342" lon="103.3570144"><ele>1707.39</ele><time>2026-03-27T11:23:04.000Z</time></trkpt>
        <trkpt lat="29.5497992" lon="103.3570848"><ele>1708.94</ele><time>2026-03-27T11:23:24.000Z</time></trkpt>
        <trkpt lat="29.5497342" lon="103.3572109"><ele>1709.33</ele><time>2026-03-27T11:24:28.000Z</time></trkpt>
        <trkpt lat="29.5498205" lon="103.3571287"><ele>1707.98</ele><time>2026-03-27T11:26:28.000Z</time></trkpt>
        <trkpt lat="29.54973" lon="103.3570855"><ele>1709.32</ele><time>2026-03-27T11:26:32.000Z</time></trkpt>
        <trkpt lat="29.5498204" lon="103.3570877"><ele>1710.48</ele><time>2026-03-27T11:31:22.000Z</time></trkpt>
        <trkpt lat="29.5497553" lon="103.3571672"><ele>1713.7</ele><time>2026-03-27T11:34:04.000Z</time></trkpt>
        <trkpt lat="29.5497553" lon="103.3572118"><ele>1713.54</ele><time>2026-03-27T11:34:12.000Z</time></trkpt>
        <trkpt lat="29.5498253" lon="103.3571223"><ele>1711.32</ele><time>2026-03-27T11:38:42.000Z</time></trkpt>
        <trkpt lat="29.5497792" lon="103.3570297"><ele>1710.87</ele><time>2026-03-27T11:38:50.000Z</time></trkpt>
        <trkpt lat="29.5497242" lon="103.3570977"><ele>1712.04</ele><time>2026-03-27T11:39:00.000Z</time></trkpt>
        <trkpt lat="29.5497268" lon="103.3571358"><ele>1713.37</ele><time>2026-03-27T11:39:04.000Z</time></trkpt>
        <trkpt lat="29.5498102" lon="103.35707"><ele>1713.98</ele><time>2026-03-27T11:40:12.000Z</time></trkpt>
        <trkpt lat="29.5497317" lon="103.356994"><ele>1715.36</ele><time>2026-03-27T11:40:28.000Z</time></trkpt>
        <trkpt lat="29.5497096" lon="103.3569903"><ele>1714.24</ele><time>2026-03-27T11:40:32.000Z</time></trkpt>
        <trkpt lat="29.5497879" lon="103.3569854"><ele>1713.24</ele><time>2026-03-27T11:41:02.000Z</time></trkpt>
        <trkpt lat="29.5498269" lon="103.3569686"><ele>1712.29</ele><time>2026-03-27T11:41:04.000Z</time></trkpt>
        <trkpt lat="29.5495709" lon="103.3568856"><ele>1711.73</ele><time>2026-03-27T11:41:14.000Z</time></trkpt>
        <trkpt lat="29.5494045" lon="103.3568717"><ele>1707.83</ele><time>2026-03-27T11:41:20.000Z</time></trkpt>
        <trkpt lat="29.5493506" lon="103.3568818"><ele>1704.51</ele><time>2026-03-27T11:41:22.000Z</time></trkpt>
        <trkpt lat="29.5493944" lon="103.356772"><ele>1702.56</ele><time>2026-03-27T11:41:29.000Z</time></trkpt>
        <trkpt lat="29.5494152" lon="103.3566808"><ele>1701.56</ele><time>2026-03-27T11:41:31.000Z</time></trkpt>
        <trkpt lat="29.5494127" lon="103.3565428"><ele>1699.19</ele><time>2026-03-27T11:41:35.000Z</time></trkpt>
        <trkpt lat="29.5493623" lon="103.3564419"><ele>1697.62</ele><time>2026-03-27T11:41:45.000Z</time></trkpt>
        <trkpt lat="29.5492926" lon="103.3564725"><ele>1696.43</ele><time>2026-03-27T11:42:03.000Z</time></trkpt>
        <trkpt lat="29.5492452" lon="103.3564192"><ele>1693.17</ele><time>2026-03-27T11:42:13.000Z</time></trkpt>
        <trkpt lat="29.5492311" lon="103.3563996"><ele>1690.94</ele><time>2026-03-27T11:42:15.000Z</time></trkpt>
        <trkpt lat="29.5497225" lon="103.3569172"><ele>1689.68</ele><time>2026-03-27T11:43:34.000Z</time></trkpt>
        <trkpt lat="29.5493782" lon="103.3565905"><ele>1688.54</ele><time>2026-03-27T11:43:41.000Z</time></trkpt>
        <trkpt lat="29.5493471" lon="103.3565294"><ele>1690.98</ele><time>2026-03-27T11:43:44.000Z</time></trkpt>
        <trkpt lat="29.549348" lon="103.3565255"><ele>1692.21</ele><time>2026-03-27T11:43:45.000Z</time></trkpt>
        <trkpt lat="29.5493304" lon="103.356616"><ele>1692.85</ele><time>2026-03-27T11:44:19.000Z</time></trkpt>
        <trkpt lat="29.5493357" lon="103.3567484"><ele>1689.83</ele><time>2026-03-27T11:44:25.000Z</time></trkpt>
        <trkpt lat="29.5493534" lon="103.3568904"><ele>1690.45</ele><time>2026-03-27T11:44:33.000Z</time></trkpt>
        <trkpt lat="29.5494743" lon="103.3569669"><ele>1689.22</ele><time>2026-03-27T11:44:39.000Z</time></trkpt>
        <trkpt lat="29.5495485" lon="103.3570613"><ele>1693.74</ele><time>2026-03-27T11:44:47.000Z</time></trkpt>
        <trkpt lat="29.5496471" lon="103.3570845"><ele>1698.21</ele><time>2026-03-27T11:45:01.000Z</time></trkpt>
        <trkpt lat="29.54969" lon="103.3569945"><ele>1701.25</ele><time>2026-03-27T11:45:11.000Z</time></trkpt>
        <trkpt lat="29.5496774" lon="103.3568763"><ele>1702.97</ele><time>2026-03-27T11:45:25.000Z</time></trkpt>
        <trkpt lat="29.5497335" lon="103.3568593"><ele>1703.74</ele><time>2026-03-27T11:45:39.000Z</time></trkpt>
        <trkpt lat="29.5497979" lon="103.3568967"><ele>1704.15</ele><time>2026-03-27T11:45:49.000Z</time></trkpt>
        <trkpt lat="29.5498838" lon="103.3569308"><ele>1704.32</ele><time>2026-03-27T11:46:05.000Z</time></trkpt>
        <trkpt lat="29.5499764" lon="103.3569112"><ele>1704.73</ele><time>2026-03-27T11:46:21.000Z</time></trkpt>
        <trkpt lat="29.5499687" lon="103.3568334"><ele>1703.94</ele><time>2026-03-27T11:46:35.000Z</time></trkpt>
        <trkpt lat="29.54997" lon="103.3567254"><ele>1702.1</ele><time>2026-03-27T11:46:57.000Z</time></trkpt>
        <trkpt lat="29.5499568" lon="103.3566056"><ele>1700.35</ele><time>2026-03-27T11:47:07.000Z</time></trkpt>
        <trkpt lat="29.5499513" lon="103.3564811"><ele>1699.76</ele><time>2026-03-27T11:47:21.000Z</time></trkpt>
        <trkpt lat="29.5500035" lon="103.3563769"><ele>1698.75</ele><time>2026-03-27T11:48:29.000Z</time></trkpt>
        <trkpt lat="29.5500721" lon="103.3562958"><ele>1697.19</ele><time>2026-03-27T11:48:43.000Z</time></trkpt>
        <trkpt lat="29.5501481" lon="103.3562332"><ele>1695.52</ele><time>2026-03-27T11:48:51.000Z</time></trkpt>
        <trkpt lat="29.5502144" lon="103.356142"><ele>1694.54</ele><time>2026-03-27T11:49:03.000Z</time></trkpt>
        <trkpt lat="29.5502526" lon="103.3560695"><ele>1693.73</ele><time>2026-03-27T11:49:15.000Z</time></trkpt>
        <trkpt lat="29.5502487" lon="103.3559701"><ele>1693.34</ele><time>2026-03-27T11:49:29.000Z</time></trkpt>
        <trkpt lat="29.5502331" lon="103.3558582"><ele>1691.82</ele><time>2026-03-27T11:49:39.000Z</time></trkpt>
        <trkpt lat="29.5502866" lon="103.3557737"><ele>1691.16</ele><time>2026-03-27T11:49:51.000Z</time></trkpt>
        <trkpt lat="29.5503638" lon="103.3557153"><ele>1691.05</ele><time>2026-03-27T11:50:23.000Z</time></trkpt>
        <trkpt lat="29.5504563" lon="103.355703"><ele>1689.56</ele><time>2026-03-27T11:50:37.000Z</time></trkpt>
        <trkpt lat="29.550556" lon="103.355713"><ele>1687.75</ele><time>2026-03-27T11:50:51.000Z</time></trkpt>
        <trkpt lat="29.5506539" lon="103.3557274"><ele>1685.82</ele><time>2026-03-27T11:51:05.000Z</time></trkpt>
        <trkpt lat="29.5507484" lon="103.3557228"><ele>1683.61</ele><time>2026-03-27T11:51:23.000Z</time></trkpt>
        <trkpt lat="29.550845" lon="103.3556857"><ele>1681.8</ele><time>2026-03-27T11:51:35.000Z</time></trkpt>
        <trkpt lat="29.5509315" lon="103.355627"><ele>1679.56</ele><time>2026-03-27T11:51:49.000Z</time></trkpt>
        <trkpt lat="29.5510256" lon="103.3555907"><ele>1677.56</ele><time>2026-03-27T11:52:03.000Z</time></trkpt>
        <trkpt lat="29.5511128" lon="103.3555483"><ele>1675.53</ele><time>2026-03-27T11:52:19.000Z</time></trkpt>
        <trkpt lat="29.5511917" lon="103.3554832"><ele>1673.95</ele><time>2026-03-27T11:52:39.000Z</time></trkpt>
        <trkpt lat="29.5512615" lon="103.3554091"><ele>1670.86</ele><time>2026-03-27T11:52:53.000Z</time></trkpt>
        <trkpt lat="29.5513205" lon="103.3553254"><ele>1668.82</ele><time>2026-03-27T11:53:09.000Z</time></trkpt>
        <trkpt lat="29.5513694" lon="103.355229"><ele>1667.33</ele><time>2026-03-27T11:53:25.000Z</time></trkpt>
        <trkpt lat="29.5513942" lon="103.3551248"><ele>1665.41</ele><time>2026-03-27T11:53:47.000Z</time></trkpt>
        <trkpt lat="29.5514516" lon="103.3550256"><ele>1662.11</ele><time>2026-03-27T11:54:00.000Z</time></trkpt>
        <trkpt lat="29.5515254" lon="103.3549482"><ele>1658.87</ele><time>2026-03-27T11:54:09.000Z</time></trkpt>
        <trkpt lat="29.5515658" lon="103.3548486"><ele>1656.29</ele><time>2026-03-27T11:54:23.000Z</time></trkpt>
        <trkpt lat="29.5515966" lon="103.3547462"><ele>1654.58</ele><time>2026-03-27T11:54:39.000Z</time></trkpt>
        <trkpt lat="29.5516179" lon="103.354677"><ele>1652.15</ele><time>2026-03-27T11:54:50.000Z</time></trkpt>
        <trkpt lat="29.5516514" lon="103.3545937"><ele>1649.33</ele><time>2026-03-27T11:55:03.000Z</time></trkpt>
        <trkpt lat="29.5516849" lon="103.3544971"><ele>1647.41</ele><time>2026-03-27T11:55:19.000Z</time></trkpt>
        <trkpt lat="29.5517615" lon="103.3544275"><ele>1646.52</ele><time>2026-03-27T11:55:35.000Z</time></trkpt>
        <trkpt lat="29.5518276" lon="103.354351"><ele>1646.51</ele><time>2026-03-27T11:55:47.000Z</time></trkpt>
        <trkpt lat="29.5518149" lon="103.3542583"><ele>1645.94</ele><time>2026-03-27T11:55:57.000Z</time></trkpt>
        <trkpt lat="29.5518241" lon="103.3541542"><ele>1642.78</ele><time>2026-03-27T11:56:09.000Z</time></trkpt>
        <trkpt lat="29.5518865" lon="103.3540871"><ele>1640.19</ele><time>2026-03-27T11:56:21.000Z</time></trkpt>
        <trkpt lat="29.5519566" lon="103.354016"><ele>1639.62</ele><time>2026-03-27T11:56:41.000Z</time></trkpt>
        <trkpt lat="29.5519456" lon="103.3539302"><ele>1638.88</ele><time>2026-03-27T11:56:51.000Z</time></trkpt>
        <trkpt lat="29.5518859" lon="103.3538523"><ele>1639</ele><time>2026-03-27T11:57:01.000Z</time></trkpt>
        <trkpt lat="29.5518037" lon="103.3537698"><ele>1639.24</ele><time>2026-03-27T11:57:13.000Z</time></trkpt>
        <trkpt lat="29.551796" lon="103.3537138"><ele>1638.09</ele><time>2026-03-27T11:57:21.000Z</time></trkpt>
        <trkpt lat="29.5517352" lon="103.3536345"><ele>1636.87</ele><time>2026-03-27T11:57:33.000Z</time></trkpt>
        <trkpt lat="29.5516569" lon="103.3535543"><ele>1637.21</ele><time>2026-03-27T11:57:39.000Z</time></trkpt>
        <trkpt lat="29.5516767" lon="103.3534698"><ele>1636.3</ele><time>2026-03-27T11:57:53.000Z</time></trkpt>
        <trkpt lat="29.5517054" lon="103.3533667"><ele>1637.36</ele><time>2026-03-27T11:58:09.000Z</time></trkpt>
        <trkpt lat="29.5517636" lon="103.3532611"><ele>1636.18</ele><time>2026-03-27T11:58:27.000Z</time></trkpt>
        <trkpt lat="29.5517868" lon="103.3531443"><ele>1633.18</ele><time>2026-03-27T11:58:41.000Z</time></trkpt>
        <trkpt lat="29.5517924" lon="103.3530283"><ele>1631.25</ele><time>2026-03-27T11:59:01.000Z</time></trkpt>
        <trkpt lat="29.5518129" lon="103.3529234"><ele>1628.19</ele><time>2026-03-27T11:59:19.000Z</time></trkpt>
        <trkpt lat="29.5518386" lon="103.3528221"><ele>1625.87</ele><time>2026-03-27T12:00:11.000Z</time></trkpt>
        <trkpt lat="29.5518919" lon="103.3527381"><ele>1622.23</ele><time>2026-03-27T12:00:31.000Z</time></trkpt>
        <trkpt lat="29.551977" lon="103.352684"><ele>1620.33</ele><time>2026-03-27T12:01:15.000Z</time></trkpt>
        <trkpt lat="29.5520722" lon="103.3526911"><ele>1616.44</ele><time>2026-03-27T12:01:41.000Z</time></trkpt>
        <trkpt lat="29.5521668" lon="103.3527156"><ele>1612.46</ele><time>2026-03-27T12:01:59.000Z</time></trkpt>
        <trkpt lat="29.5521667" lon="103.3526565"><ele>1609.13</ele><time>2026-03-27T12:02:55.000Z</time></trkpt>
        <trkpt lat="29.5521776" lon="103.3525584"><ele>1601.64</ele><time>2026-03-27T12:03:17.000Z</time></trkpt>
        <trkpt lat="29.5521932" lon="103.3524497"><ele>1597.22</ele><time>2026-03-27T12:03:43.000Z</time></trkpt>
        <trkpt lat="29.5521918" lon="103.3523355"><ele>1593.14</ele><time>2026-03-27T12:04:05.000Z</time></trkpt>
        <trkpt lat="29.5522568" lon="103.352277"><ele>1590.05</ele><time>2026-03-27T12:04:33.000Z</time></trkpt>
        <trkpt lat="29.5523416" lon="103.3522364"><ele>1585.8</ele><time>2026-03-27T12:04:45.000Z</time></trkpt>
        <trkpt lat="29.5524079" lon="103.3522959"><ele>1582.9</ele><time>2026-03-27T12:05:05.000Z</time></trkpt>
        <trkpt lat="29.5524486" lon="103.3523999"><ele>1581.83</ele><time>2026-03-27T12:05:55.000Z</time></trkpt>
        <trkpt lat="29.5525266" lon="103.352458"><ele>1581.4</ele><time>2026-03-27T12:06:37.000Z</time></trkpt>
        <trkpt lat="29.5526152" lon="103.3524924"><ele>1584.55</ele><time>2026-03-27T12:06:55.000Z</time></trkpt>
        <trkpt lat="29.5527124" lon="103.3525147"><ele>1590.18</ele><time>2026-03-27T12:07:19.000Z</time></trkpt>
        <trkpt lat="29.5528033" lon="103.3525452"><ele>1595.6</ele><time>2026-03-27T12:07:33.000Z</time></trkpt>
        <trkpt lat="29.552893" lon="103.3525857"><ele>1598.67</ele><time>2026-03-27T12:07:45.000Z</time></trkpt>
        <trkpt lat="29.5529831" lon="103.3525835"><ele>1600.53</ele><time>2026-03-27T12:08:05.000Z</time></trkpt>
        <trkpt lat="29.5529658" lon="103.3526456"><ele>1599.86</ele><time>2026-03-27T12:08:19.000Z</time></trkpt>
        <trkpt lat="29.5530084" lon="103.3527033"><ele>1598.86</ele><time>2026-03-27T12:08:37.000Z</time></trkpt>
        <trkpt lat="29.5530881" lon="103.3527181"><ele>1597.73</ele><time>2026-03-27T12:09:15.000Z</time></trkpt>
        <trkpt lat="29.5531846" lon="103.3527147"><ele>1596.96</ele><time>2026-03-27T12:09:33.000Z</time></trkpt>
        <trkpt lat="29.5532801" lon="103.3526947"><ele>1596.8</ele><time>2026-03-27T12:09:45.000Z</time></trkpt>
        <trkpt lat="29.5533643" lon="103.3526332"><ele>1596.73</ele><time>2026-03-27T12:09:57.000Z</time></trkpt>
        <trkpt lat="29.553448" lon="103.3525819"><ele>1597.23</ele><time>2026-03-27T12:10:21.000Z</time></trkpt>
        <trkpt lat="29.5535471" lon="103.3525602"><ele>1595.54</ele><time>2026-03-27T12:10:37.000Z</time></trkpt>
        <trkpt lat="29.553644" lon="103.352543"><ele>1594.01</ele><time>2026-03-27T12:10:51.000Z</time></trkpt>
        <trkpt lat="29.5537379" lon="103.3525218"><ele>1593.1</ele><time>2026-03-27T12:11:03.000Z</time></trkpt>
        <trkpt lat="29.5538285" lon="103.3525347"><ele>1593.86</ele><time>2026-03-27T12:11:17.000Z</time></trkpt>
        <trkpt lat="29.5538954" lon="103.3526007"><ele>1594.14</ele><time>2026-03-27T12:11:33.000Z</time></trkpt>
        <trkpt lat="29.5539871" lon="103.3526279"><ele>1593.86</ele><time>2026-03-27T12:13:05.000Z</time></trkpt>
        <trkpt lat="29.5540791" lon="103.3526286"><ele>1592.37</ele><time>2026-03-27T12:13:39.000Z</time></trkpt>
        <trkpt lat="29.5541753" lon="103.352632"><ele>1591.32</ele><time>2026-03-27T12:13:51.000Z</time></trkpt>
        <trkpt lat="29.5542549" lon="103.352702"><ele>1591.59</ele><time>2026-03-27T12:14:05.000Z</time></trkpt>
        <trkpt lat="29.5543422" lon="103.3526996"><ele>1592.97</ele><time>2026-03-27T12:14:47.000Z</time></trkpt>
        <trkpt lat="29.5544284" lon="103.3527318"><ele>1592.86</ele><time>2026-03-27T12:14:57.000Z</time></trkpt>
        <trkpt lat="29.5544741" lon="103.3528222"><ele>1592.77</ele><time>2026-03-27T12:15:15.000Z</time></trkpt>
        <trkpt lat="29.5544859" lon="103.3529446"><ele>1594.26</ele><time>2026-03-27T12:15:29.000Z</time></trkpt>
        <trkpt lat="29.5544854" lon="103.3530605"><ele>1594.7</ele><time>2026-03-27T12:15:41.000Z</time></trkpt>
        <trkpt lat="29.5545035" lon="103.3531663"><ele>1597.07</ele><time>2026-03-27T12:16:01.000Z</time></trkpt>
        <trkpt lat="29.5545754" lon="103.3531982"><ele>1599.72</ele><time>2026-03-27T12:16:23.000Z</time></trkpt>
        <trkpt lat="29.5546094" lon="103.3532756"><ele>1601.13</ele><time>2026-03-27T12:16:37.000Z</time></trkpt>
        <trkpt lat="29.5546153" lon="103.3533777"><ele>1603.4</ele><time>2026-03-27T12:16:55.000Z</time></trkpt>
        <trkpt lat="29.5546258" lon="103.3534889"><ele>1606.67</ele><time>2026-03-27T12:17:11.000Z</time></trkpt>
        <trkpt lat="29.5546313" lon="103.3536019"><ele>1610.44</ele><time>2026-03-27T12:17:29.000Z</time></trkpt>
        <trkpt lat="29.5546828" lon="103.3536893"><ele>1612.04</ele><time>2026-03-27T12:17:47.000Z</time></trkpt>
        <trkpt lat="29.5547762" lon="103.353716"><ele>1613.84</ele><time>2026-03-27T12:18:01.000Z</time></trkpt>
        <trkpt lat="29.5548756" lon="103.353731"><ele>1613.93</ele><time>2026-03-27T12:18:15.000Z</time></trkpt>
        <trkpt lat="29.5549609" lon="103.3536458"><ele>1613.33</ele><time>2026-03-27T12:20:51.000Z</time></trkpt>
        <trkpt lat="29.5550079" lon="103.3535556"><ele>1612.56</ele><time>2026-03-27T12:21:37.000Z</time></trkpt>
        <trkpt lat="29.555073" lon="103.3534832"><ele>1609.96</ele><time>2026-03-27T12:21:51.000Z</time></trkpt>
        <trkpt lat="29.5551479" lon="103.3534097"><ele>1606.81</ele><time>2026-03-27T12:22:23.000Z</time></trkpt>
        <trkpt lat="29.5552395" lon="103.3533807"><ele>1603.92</ele><time>2026-03-27T12:22:45.000Z</time></trkpt>
        <trkpt lat="29.5553341" lon="103.3533592"><ele>1601.94</ele><time>2026-03-27T12:22:57.000Z</time></trkpt>
        <trkpt lat="29.5554274" lon="103.3533515"><ele>1600.46</ele><time>2026-03-27T12:23:11.000Z</time></trkpt>
        <trkpt lat="29.5555257" lon="103.35334"><ele>1598.81</ele><time>2026-03-27T12:23:31.000Z</time></trkpt>
        <trkpt lat="29.5556165" lon="103.3533124"><ele>1596.23</ele><time>2026-03-27T12:23:47.000Z</time></trkpt>
        <trkpt lat="29.5557082" lon="103.3533173"><ele>1594.08</ele><time>2026-03-27T12:23:59.000Z</time></trkpt>
        <trkpt lat="29.5557888" lon="103.3533675"><ele>1592.59</ele><time>2026-03-27T12:24:29.000Z</time></trkpt>
        <trkpt lat="29.5558745" lon="103.353438"><ele>1593.44</ele><time>2026-03-27T12:24:41.000Z</time></trkpt>
        <trkpt lat="29.5559641" lon="103.3534996"><ele>1594.01</ele><time>2026-03-27T12:24:53.000Z</time></trkpt>
        <trkpt lat="29.5560619" lon="103.3535265"><ele>1594.12</ele><time>2026-03-27T12:25:15.000Z</time></trkpt>
        <trkpt lat="29.5561516" lon="103.3535555"><ele>1593.84</ele><time>2026-03-27T12:25:27.000Z</time></trkpt>
        <trkpt lat="29.5562478" lon="103.3535208"><ele>1594.46</ele><time>2026-03-27T12:25:51.000Z</time></trkpt>
        <trkpt lat="29.5563177" lon="103.353437"><ele>1594.1</ele><time>2026-03-27T12:26:03.000Z</time></trkpt>
        <trkpt lat="29.5563767" lon="103.353341"><ele>1593.33</ele><time>2026-03-27T12:26:37.000Z</time></trkpt>
        <trkpt lat="29.5564253" lon="103.3532389"><ele>1591.95</ele><time>2026-03-27T12:26:49.000Z</time></trkpt>
        <trkpt lat="29.5564889" lon="103.3531627"><ele>1590.8</ele><time>2026-03-27T12:27:05.000Z</time></trkpt>
        <trkpt lat="29.5565662" lon="103.3530939"><ele>1589.79</ele><time>2026-03-27T12:27:35.000Z</time></trkpt>
        <trkpt lat="29.5566422" lon="103.3530238"><ele>1588.34</ele><time>2026-03-27T12:27:49.000Z</time></trkpt>
        <trkpt lat="29.556721" lon="103.3529688"><ele>1587.53</ele><time>2026-03-27T12:28:09.000Z</time></trkpt>
        <trkpt lat="29.5567943" lon="103.3529011"><ele>1586.32</ele><time>2026-03-27T12:28:27.000Z</time></trkpt>
        <trkpt lat="29.5568542" lon="103.3528133"><ele>1585.01</ele><time>2026-03-27T12:28:43.000Z</time></trkpt>
        <trkpt lat="29.5569078" lon="103.3527159"><ele>1583.06</ele><time>2026-03-27T12:29:01.000Z</time></trkpt>
        <trkpt lat="29.5569543" lon="103.3526215"><ele>1581.65</ele><time>2026-03-27T12:29:17.000Z</time></trkpt>
        <trkpt lat="29.5570245" lon="103.3525543"><ele>1580.36</ele><time>2026-03-27T12:29:35.000Z</time></trkpt>
        <trkpt lat="29.5570984" lon="103.352488"><ele>1578.97</ele><time>2026-03-27T12:30:43.000Z</time></trkpt>
        <trkpt lat="29.5571503" lon="103.3524024"><ele>1576.01</ele><time>2026-03-27T12:31:07.000Z</time></trkpt>
        <trkpt lat="29.5572176" lon="103.3523242"><ele>1572.05</ele><time>2026-03-27T12:31:29.000Z</time></trkpt>
        <trkpt lat="29.5572859" lon="103.3522424"><ele>1568.77</ele><time>2026-03-27T12:31:47.000Z</time></trkpt>
        <trkpt lat="29.5573492" lon="103.3521538"><ele>1565.56</ele><time>2026-03-27T12:32:07.000Z</time></trkpt>
        <trkpt lat="29.5574206" lon="103.3520808"><ele>1562.63</ele><time>2026-03-27T12:32:23.000Z</time></trkpt>
        <trkpt lat="29.5574833" lon="103.3519968"><ele>1560.39</ele><time>2026-03-27T12:32:43.000Z</time></trkpt>
        <trkpt lat="29.5575156" lon="103.3519002"><ele>1558</ele><time>2026-03-27T12:32:59.000Z</time></trkpt>
        <trkpt lat="29.5575269" lon="103.3517957"><ele>1555.9</ele><time>2026-03-27T12:33:15.000Z</time></trkpt>
        <trkpt lat="29.5575583" lon="103.3516989"><ele>1553.66</ele><time>2026-03-27T12:33:43.000Z</time></trkpt>
        <trkpt lat="29.5575954" lon="103.3516015"><ele>1550.24</ele><time>2026-03-27T12:34:27.000Z</time></trkpt>
        <trkpt lat="29.5575892" lon="103.3514929"><ele>1546.56</ele><time>2026-03-27T12:35:03.000Z</time></trkpt>
        <trkpt lat="29.5576536" lon="103.3514294"><ele>1543.38</ele><time>2026-03-27T12:37:41.000Z</time></trkpt>
        <trkpt lat="29.5577428" lon="103.3514444"><ele>1540.76</ele><time>2026-03-27T12:38:09.000Z</time></trkpt>
        <trkpt lat="29.5578408" lon="103.3514574"><ele>1539.97</ele><time>2026-03-27T12:38:29.000Z</time></trkpt>
        <trkpt lat="29.5579324" lon="103.3514875"><ele>1541.26</ele><time>2026-03-27T12:38:45.000Z</time></trkpt>
        <trkpt lat="29.5580188" lon="103.3515259"><ele>1543.58</ele><time>2026-03-27T12:39:03.000Z</time></trkpt>
        <trkpt lat="29.5581084" lon="103.3515346"><ele>1545.54</ele><time>2026-03-27T12:39:21.000Z</time></trkpt>
        <trkpt lat="29.5581825" lon="103.351481"><ele>1545.91</ele><time>2026-03-27T12:39:33.000Z</time></trkpt>
        <trkpt lat="29.5582645" lon="103.3514313"><ele>1544.58</ele><time>2026-03-27T12:40:07.000Z</time></trkpt>
        <trkpt lat="29.5583605" lon="103.3514081"><ele>1543.34</ele><time>2026-03-27T12:40:23.000Z</time></trkpt>
        <trkpt lat="29.5584466" lon="103.3513644"><ele>1542.59</ele><time>2026-03-27T12:40:43.000Z</time></trkpt>
        <trkpt lat="29.558536" lon="103.3513156"><ele>1540.96</ele><time>2026-03-27T12:41:03.000Z</time></trkpt>
        <trkpt lat="29.5586144" lon="103.3512559"><ele>1539.87</ele><time>2026-03-27T12:41:13.000Z</time></trkpt>
        <trkpt lat="29.5586948" lon="103.3511826"><ele>1539.16</ele><time>2026-03-27T12:41:27.000Z</time></trkpt>
        <trkpt lat="29.5587831" lon="103.3511439"><ele>1538.42</ele><time>2026-03-27T12:42:03.000Z</time></trkpt>
        <trkpt lat="29.5588698" lon="103.3510934"><ele>1535.54</ele><time>2026-03-27T12:42:17.000Z</time></trkpt>
        <trkpt lat="29.5589498" lon="103.3510367"><ele>1533.85</ele><time>2026-03-27T12:42:31.000Z</time></trkpt>
        <trkpt lat="29.5590096" lon="103.3509571"><ele>1532.03</ele><time>2026-03-27T12:42:49.000Z</time></trkpt>
        <trkpt lat="29.5590614" lon="103.3508659"><ele>1532.94</ele><time>2026-03-27T12:43:05.000Z</time></trkpt>
        <trkpt lat="29.5591338" lon="103.3507915"><ele>1532.94</ele><time>2026-03-27T12:43:31.000Z</time></trkpt>
        <trkpt lat="29.5592222" lon="103.3507564"><ele>1531.71</ele><time>2026-03-27T12:43:45.000Z</time></trkpt>
        <trkpt lat="29.5593151" lon="103.3507264"><ele>1531.02</ele><time>2026-03-27T12:44:11.000Z</time></trkpt>
        <trkpt lat="29.5593994" lon="103.3506709"><ele>1528.49</ele><time>2026-03-27T12:44:29.000Z</time></trkpt>
        <trkpt lat="29.5594846" lon="103.350605"><ele>1526.11</ele><time>2026-03-27T12:45:19.000Z</time></trkpt>
        <trkpt lat="29.5595774" lon="103.3505596"><ele>1521.85</ele><time>2026-03-27T12:45:31.000Z</time></trkpt>
        <trkpt lat="29.5595902" lon="103.3504586"><ele>1520.15</ele><time>2026-03-27T13:00:35.000Z</time></trkpt>
        <trkpt lat="29.5596816" lon="103.3504342"><ele>1519.78</ele><time>2026-03-27T13:00:57.000Z</time></trkpt>
        <trkpt lat="29.5597668" lon="103.3503837"><ele>1520.29</ele><time>2026-03-27T13:01:37.000Z</time></trkpt>
        <trkpt lat="29.5598504" lon="103.3503352"><ele>1522.09</ele><time>2026-03-27T13:02:11.000Z</time></trkpt>
        <trkpt lat="29.5599412" lon="103.3503532"><ele>1524.56</ele><time>2026-03-27T13:03:21.000Z</time></trkpt>
        <trkpt lat="29.5600308" lon="103.3503895"><ele>1530.67</ele><time>2026-03-27T13:03:57.000Z</time></trkpt>
        <trkpt lat="29.5600889" lon="103.3504669"><ele>1534.96</ele><time>2026-03-27T13:04:49.000Z</time></trkpt>
        <trkpt lat="29.5601423" lon="103.3505528"><ele>1539.89</ele><time>2026-03-27T13:05:17.000Z</time></trkpt>
        <trkpt lat="29.5601725" lon="103.3506562"><ele>1547.43</ele><time>2026-03-27T13:06:19.000Z</time></trkpt>
        <trkpt lat="29.5601725" lon="103.3507643"><ele>1558.11</ele><time>2026-03-27T13:07:03.000Z</time></trkpt>
        <trkpt lat="29.5601801" lon="103.3508779"><ele>1568.65</ele><time>2026-03-27T13:07:19.000Z</time></trkpt>
        <trkpt lat="29.5602167" lon="103.3509777"><ele>1576.64</ele><time>2026-03-27T13:07:41.000Z</time></trkpt>
        <trkpt lat="29.5602192" lon="103.351081"><ele>1581.64</ele><time>2026-03-27T13:08:05.000Z</time></trkpt>
        <trkpt lat="29.5602808" lon="103.3511367"><ele>1586.68</ele><time>2026-03-27T13:08:49.000Z</time></trkpt>
        <trkpt lat="29.560368" lon="103.3511248"><ele>1590.34</ele><time>2026-03-27T13:09:41.000Z</time></trkpt>
        <trkpt lat="29.5604637" lon="103.351095"><ele>1592.34</ele><time>2026-03-27T13:09:59.000Z</time></trkpt>
        <trkpt lat="29.5605607" lon="103.3511227"><ele>1592.94</ele><time>2026-03-27T13:11:35.000Z</time></trkpt>
        <trkpt lat="29.5605436" lon="103.3512293"><ele>1599.9</ele><time>2026-03-27T13:13:42.000Z</time></trkpt>
        <trkpt lat="29.5606255" lon="103.3512778"><ele>1608.83</ele><time>2026-03-27T13:14:55.000Z</time></trkpt>
        <trkpt lat="29.5606228" lon="103.3513841"><ele>1617.86</ele><time>2026-03-27T13:16:09.000Z</time></trkpt>
        <trkpt lat="29.560541" lon="103.3514545"><ele>1626.12</ele><time>2026-03-27T13:16:29.000Z</time></trkpt>
        <trkpt lat="29.5604657" lon="103.3515222"><ele>1632.47</ele><time>2026-03-27T13:16:43.000Z</time></trkpt>
        <trkpt lat="29.5605059" lon="103.3515875"><ele>1638.5</ele><time>2026-03-27T13:17:21.000Z</time></trkpt>
        <trkpt lat="29.560632" lon="103.3515711"><ele>1645.38</ele><time>2026-03-27T13:18:21.000Z</time></trkpt>
        <trkpt lat="29.5607236" lon="103.351535"><ele>1649.8</ele><time>2026-03-27T13:18:45.000Z</time></trkpt>
        <trkpt lat="29.5608149" lon="103.3514959"><ele>1654.57</ele><time>2026-03-27T13:22:09.000Z</time></trkpt>
        <trkpt lat="29.560897" lon="103.35154"><ele>1658.89</ele><time>2026-03-27T13:22:37.000Z</time></trkpt>
        <trkpt lat="29.5609787" lon="103.3515857"><ele>1661.85</ele><time>2026-03-27T13:23:05.000Z</time></trkpt>
        <trkpt lat="29.5610722" lon="103.3516066"><ele>1665.58</ele><time>2026-03-27T13:23:29.000Z</time></trkpt>
        <trkpt lat="29.5611693" lon="103.3516102"><ele>1666.36</ele><time>2026-03-27T13:25:15.000Z</time></trkpt>
        <trkpt lat="29.5612599" lon="103.3516301"><ele>1666.76</ele><time>2026-03-27T13:26:49.000Z</time></trkpt>
        <trkpt lat="29.561348" lon="103.3516544"><ele>1666.77</ele><time>2026-03-27T13:27:11.000Z</time></trkpt>
        <trkpt lat="29.5614264" lon="103.3517064"><ele>1668.63</ele><time>2026-03-27T13:27:57.000Z</time></trkpt>
        <trkpt lat="29.5614491" lon="103.3518035"><ele>1672.18</ele><time>2026-03-27T13:28:53.000Z</time></trkpt>
        <trkpt lat="29.5614955" lon="103.3519065"><ele>1677.15</ele><time>2026-03-27T13:30:05.000Z</time></trkpt>
        <trkpt lat="29.5615924" lon="103.3519095"><ele>1684.21</ele><time>2026-03-27T13:30:59.000Z</time></trkpt>
        <trkpt lat="29.5616658" lon="103.3519681"><ele>1689.39</ele><time>2026-03-27T13:31:19.000Z</time></trkpt>
        <trkpt lat="29.5617541" lon="103.352015"><ele>1694.37</ele><time>2026-03-27T13:32:03.000Z</time></trkpt>
        <trkpt lat="29.5616987" lon="103.3521062"><ele>1699.64</ele><time>2026-03-27T13:33:23.000Z</time></trkpt>
        <trkpt lat="29.5617878" lon="103.3521755"><ele>1706.64</ele><time>2026-03-27T13:34:41.000Z</time></trkpt>
        <trkpt lat="29.5618361" lon="103.3522042"><ele>1711.13</ele><time>2026-03-27T13:34:53.000Z</time></trkpt>
        <trkpt lat="29.5619226" lon="103.3522084"><ele>1713.16</ele><time>2026-03-27T13:35:21.000Z</time></trkpt>
        <trkpt lat="29.5620236" lon="103.3522"><ele>1716.9</ele><time>2026-03-27T13:44:33.000Z</time></trkpt>
        <trkpt lat="29.5621153" lon="103.3521823"><ele>1722.61</ele><time>2026-03-27T13:44:59.000Z</time></trkpt>
        <trkpt lat="29.5622127" lon="103.3521859"><ele>1726.37</ele><time>2026-03-27T13:45:27.000Z</time></trkpt>
        <trkpt lat="29.5623032" lon="103.352166"><ele>1730.41</ele><time>2026-03-27T13:45:49.000Z</time></trkpt>
        <trkpt lat="29.5623914" lon="103.3521783"><ele>1733.21</ele><time>2026-03-27T13:46:27.000Z</time></trkpt>
        <trkpt lat="29.5624716" lon="103.3522245"><ele>1736.64</ele><time>2026-03-27T13:46:59.000Z</time></trkpt>
        <trkpt lat="29.5624716" lon="103.3522245"><ele>1736.64</ele><time>2026-03-27T13:46:59.000Z</time></trkpt>
        <trkpt lat="29.5625588" lon="103.352212"><ele>1761.99</ele><time>2026-03-27T13:49:19.000Z</time></trkpt>
        <trkpt lat="29.5626488" lon="103.3522208"><ele>1759.31</ele><time>2026-03-27T13:49:39.000Z</time></trkpt>
        <trkpt lat="29.5627045" lon="103.3521372"><ele>1761.5</ele><time>2026-03-27T13:49:53.000Z</time></trkpt>
        <trkpt lat="29.5626416" lon="103.3520622"><ele>1758.73</ele><time>2026-03-27T13:50:05.000Z</time></trkpt>
        <trkpt lat="29.5625859" lon="103.3519736"><ele>1757.67</ele><time>2026-03-27T13:50:21.000Z</time></trkpt>
        <trkpt lat="29.5625248" lon="103.3518773"><ele>1757.64</ele><time>2026-03-27T13:50:41.000Z</time></trkpt>
        <trkpt lat="29.5624521" lon="103.3517962"><ele>1756.45</ele><time>2026-03-27T13:51:05.000Z</time></trkpt>
        <trkpt lat="29.5624924" lon="103.3516999"><ele>1755.88</ele><time>2026-03-27T13:51:31.000Z</time></trkpt>
        <trkpt lat="29.5625644" lon="103.3516339"><ele>1761.5</ele><time>2026-03-27T13:52:05.000Z</time></trkpt>
        <trkpt lat="29.5626175" lon="103.3515369"><ele>1769.4</ele><time>2026-03-27T13:52:53.000Z</time></trkpt>
        <trkpt lat="29.5626238" lon="103.3514328"><ele>1769.38</ele><time>2026-03-27T13:53:01.000Z</time></trkpt>
        <trkpt lat="29.5626746" lon="103.3513337"><ele>1769.98</ele><time>2026-03-27T13:53:13.000Z</time></trkpt>
        <trkpt lat="29.5627218" lon="103.3512388"><ele>1769.21</ele><time>2026-03-27T13:53:25.000Z</time></trkpt>
        <trkpt lat="29.5627674" lon="103.351144"><ele>1775.96</ele><time>2026-03-27T13:53:41.000Z</time></trkpt>
        <trkpt lat="29.5627956" lon="103.3510376"><ele>1778.25</ele><time>2026-03-27T13:54:03.000Z</time></trkpt>
        <trkpt lat="29.5627839" lon="103.3509249"><ele>1785.97</ele><time>2026-03-27T13:55:03.000Z</time></trkpt>
        <trkpt lat="29.5627847" lon="103.3508005"><ele>1786.82</ele><time>2026-03-27T13:55:13.000Z</time></trkpt>
        <trkpt lat="29.5627626" lon="103.3507274"><ele>1788.67</ele><time>2026-03-27T13:55:29.000Z</time></trkpt>
        <trkpt lat="29.5627593" lon="103.3506238"><ele>1794.27</ele><time>2026-03-27T13:55:59.000Z</time></trkpt>
        <trkpt lat="29.5627693" lon="103.350736"><ele>1788.89</ele><time>2026-03-27T14:45:14.000Z</time></trkpt>
        <trkpt lat="29.562834" lon="103.3507988"><ele>1787.39</ele><time>2026-03-27T14:45:26.000Z</time></trkpt>
        <trkpt lat="29.5629197" lon="103.3508506"><ele>1785.98</ele><time>2026-03-27T14:46:09.000Z</time></trkpt>
        <trkpt lat="29.5628384" lon="103.3507736"><ele>1789.56</ele><time>2026-03-27T14:49:00.000Z</time></trkpt>
        <trkpt lat="29.5627837" lon="103.3506847"><ele>1789.84</ele><time>2026-03-27T14:49:10.000Z</time></trkpt>
        <trkpt lat="29.5627627" lon="103.3505826"><ele>1787.8</ele><time>2026-03-27T14:58:24.000Z</time></trkpt>
        <trkpt lat="29.5627983" lon="103.3504807"><ele>1790.31</ele><time>2026-03-27T14:59:50.000Z</time></trkpt>
        <trkpt lat="29.5628082" lon="103.3504141"><ele>1787.11</ele><time>2026-03-27T15:00:00.000Z</time></trkpt>
        <trkpt lat="29.5628273" lon="103.3503122"><ele>1784.88</ele><time>2026-03-27T15:00:14.000Z</time></trkpt>
        <trkpt lat="29.5628557" lon="103.3502011"><ele>1783.78</ele><time>2026-03-27T15:00:30.000Z</time></trkpt>
        <trkpt lat="29.5628855" lon="103.3500799"><ele>1783.45</ele><time>2026-03-27T15:00:42.000Z</time></trkpt>
        <trkpt lat="29.5628923" lon="103.3499667"><ele>1781.15</ele><time>2026-03-27T15:00:52.000Z</time></trkpt>
        <trkpt lat="29.5629084" lon="103.3498618"><ele>1781.6</ele><time>2026-03-27T15:01:02.000Z</time></trkpt>
        <trkpt lat="29.5629503" lon="103.3497461"><ele>1782.95</ele><time>2026-03-27T15:01:13.000Z</time></trkpt>
        <trkpt lat="29.5629909" lon="103.3496524"><ele>1783.19</ele><time>2026-03-27T15:01:24.000Z</time></trkpt>
        <trkpt lat="29.5630494" lon="103.349556"><ele>1784.23</ele><time>2026-03-27T15:01:34.000Z</time></trkpt>
        <trkpt lat="29.5630913" lon="103.3494452"><ele>1783.43</ele><time>2026-03-27T15:01:46.000Z</time></trkpt>
        <trkpt lat="29.5631113" lon="103.3493383"><ele>1782.55</ele><time>2026-03-27T15:01:54.000Z</time></trkpt>
        <trkpt lat="29.5631634" lon="103.3492447"><ele>1783.05</ele><time>2026-03-27T15:02:04.000Z</time></trkpt>
        <trkpt lat="29.5632043" lon="103.3491496"><ele>1782.28</ele><time>2026-03-27T15:02:12.000Z</time></trkpt>
        <trkpt lat="29.5631944" lon="103.3490287"><ele>1784.48</ele><time>2026-03-27T15:02:24.000Z</time></trkpt>
        <trkpt lat="29.5632273" lon="103.3489168"><ele>1787.87</ele><time>2026-03-27T15:02:38.000Z</time></trkpt>
        <trkpt lat="29.5632346" lon="103.3487904"><ele>1789.34</ele><time>2026-03-27T15:02:49.000Z</time></trkpt>
        <trkpt lat="29.5632261" lon="103.3486696"><ele>1789.53</ele><time>2026-03-27T15:03:02.000Z</time></trkpt>
        <trkpt lat="29.5632229" lon="103.3485612"><ele>1789.81</ele><time>2026-03-27T15:03:12.000Z</time></trkpt>
        <trkpt lat="29.5632377" lon="103.3485009"><ele>1789.42</ele><time>2026-03-27T15:03:20.000Z</time></trkpt>
        <trkpt lat="29.5632639" lon="103.3484003"><ele>1790.16</ele><time>2026-03-27T15:03:32.000Z</time></trkpt>
        <trkpt lat="29.563294" lon="103.3483408"><ele>1790.5</ele><time>2026-03-27T15:03:44.000Z</time></trkpt>
        <trkpt lat="29.5633604" lon="103.3482617"><ele>1791.56</ele><time>2026-03-27T15:03:57.000Z</time></trkpt>
        <trkpt lat="29.5633724" lon="103.3482396"><ele>1791.53</ele><time>2026-03-27T15:04:02.000Z</time></trkpt>
        <trkpt lat="29.5634013" lon="103.3481402"><ele>1791.33</ele><time>2026-03-27T15:04:53.000Z</time></trkpt>
        <trkpt lat="29.5634438" lon="103.3480316"><ele>1789.87</ele><time>2026-03-27T15:05:03.000Z</time></trkpt>
        <trkpt lat="29.563531" lon="103.347968"><ele>1788.64</ele><time>2026-03-27T15:05:13.000Z</time></trkpt>
        <trkpt lat="29.563557" lon="103.3478636"><ele>1786.29</ele><time>2026-03-27T15:05:27.000Z</time></trkpt>
        <trkpt lat="29.5635546" lon="103.347754"><ele>1784.83</ele><time>2026-03-27T15:05:42.000Z</time></trkpt>
        <trkpt lat="29.5635256" lon="103.3476416"><ele>1779.21</ele><time>2026-03-27T15:05:56.000Z</time></trkpt>
        <trkpt lat="29.5635377" lon="103.3475686"><ele>1779.54</ele><time>2026-03-27T15:06:06.000Z</time></trkpt>
        <trkpt lat="29.5635049" lon="103.3474493"><ele>1775.88</ele><time>2026-03-27T15:06:24.000Z</time></trkpt>
        <trkpt lat="29.563458" lon="103.3473459"><ele>1776.17</ele><time>2026-03-27T15:06:33.000Z</time></trkpt>
        <trkpt lat="29.5634086" lon="103.3472507"><ele>1778.22</ele><time>2026-03-27T15:06:46.000Z</time></trkpt>
        <trkpt lat="29.5633286" lon="103.347173"><ele>1778.48</ele><time>2026-03-27T15:06:56.000Z</time></trkpt>
        <trkpt lat="29.5632365" lon="103.3471114"><ele>1778.71</ele><time>2026-03-27T15:07:06.000Z</time></trkpt>
        <trkpt lat="29.5631517" lon="103.3470344"><ele>1780.01</ele><time>2026-03-27T15:07:16.000Z</time></trkpt>
        <trkpt lat="29.5630873" lon="103.3469615"><ele>1778.84</ele><time>2026-03-27T15:07:26.000Z</time></trkpt>
        <trkpt lat="29.5630298" lon="103.3468735"><ele>1776.79</ele><time>2026-03-27T15:07:38.000Z</time></trkpt>
        <trkpt lat="29.5629752" lon="103.3467911"><ele>1774.29</ele><time>2026-03-27T15:07:54.000Z</time></trkpt>
        <trkpt lat="29.5629013" lon="103.3467047"><ele>1774</ele><time>2026-03-27T15:08:05.000Z</time></trkpt>
        <trkpt lat="29.5628477" lon="103.3466148"><ele>1773.48</ele><time>2026-03-27T15:08:16.000Z</time></trkpt>
        <trkpt lat="29.5627898" lon="103.3465128"><ele>1773.26</ele><time>2026-03-27T15:08:26.000Z</time></trkpt>
        <trkpt lat="29.5626962" lon="103.3464668"><ele>1771.88</ele><time>2026-03-27T15:08:35.000Z</time></trkpt>
        <trkpt lat="29.5626057" lon="103.3464389"><ele>1767.5</ele><time>2026-03-27T15:08:46.000Z</time></trkpt>
        <trkpt lat="29.562553" lon="103.3463973"><ele>1767.06</ele><time>2026-03-27T15:08:54.000Z</time></trkpt>
        <trkpt lat="29.5624731" lon="103.34633"><ele>1768.8</ele><time>2026-03-27T15:09:14.000Z</time></trkpt>
        <trkpt lat="29.5623972" lon="103.3462664"><ele>1768.5</ele><time>2026-03-27T15:09:24.000Z</time></trkpt>
        <trkpt lat="29.5623207" lon="103.3461822"><ele>1766.89</ele><time>2026-03-27T15:09:34.000Z</time></trkpt>
        <trkpt lat="29.5622513" lon="103.3460967"><ele>1764.84</ele><time>2026-03-27T15:09:46.000Z</time></trkpt>
        <trkpt lat="29.5622113" lon="103.3460036"><ele>1765.54</ele><time>2026-03-27T15:09:56.000Z</time></trkpt>
        <trkpt lat="29.5621785" lon="103.3459001"><ele>1766.27</ele><time>2026-03-27T15:10:06.000Z</time></trkpt>
        <trkpt lat="29.5621243" lon="103.3458134"><ele>1764.97</ele><time>2026-03-27T15:10:16.000Z</time></trkpt>
        <trkpt lat="29.5620736" lon="103.3457236"><ele>1765.42</ele><time>2026-03-27T15:10:26.000Z</time></trkpt>
        <trkpt lat="29.561999" lon="103.3456351"><ele>1763.21</ele><time>2026-03-27T15:10:40.000Z</time></trkpt>
        <trkpt lat="29.5619071" lon="103.3456108"><ele>1763.57</ele><time>2026-03-27T15:10:50.000Z</time></trkpt>
        <trkpt lat="29.5618166" lon="103.3456032"><ele>1763.29</ele><time>2026-03-27T15:11:04.000Z</time></trkpt>
        <trkpt lat="29.5617194" lon="103.3456201"><ele>1763.92</ele><time>2026-03-27T15:11:15.000Z</time></trkpt>
        <trkpt lat="29.5616114" lon="103.3455993"><ele>1767.99</ele><time>2026-03-27T15:11:28.000Z</time></trkpt>
        <trkpt lat="29.5615227" lon="103.3455426"><ele>1767.35</ele><time>2026-03-27T15:11:42.000Z</time></trkpt>
        <trkpt lat="29.5614505" lon="103.3454609"><ele>1767.87</ele><time>2026-03-27T15:11:56.000Z</time></trkpt>
        <trkpt lat="29.5613963" lon="103.3453596"><ele>1767.55</ele><time>2026-03-27T15:12:10.000Z</time></trkpt>
        <trkpt lat="29.5613293" lon="103.3452701"><ele>1769.04</ele><time>2026-03-27T15:14:50.000Z</time></trkpt>
        <trkpt lat="29.5612714" lon="103.3451852"><ele>1769.04</ele><time>2026-03-27T15:15:11.000Z</time></trkpt>
        <trkpt lat="29.5611939" lon="103.3451276"><ele>1770.83</ele><time>2026-03-27T15:15:52.000Z</time></trkpt>
        <trkpt lat="29.5611364" lon="103.3450454"><ele>1774.43</ele><time>2026-03-27T15:17:12.000Z</time></trkpt>
        <trkpt lat="29.5610446" lon="103.3450269"><ele>1779.24</ele><time>2026-03-27T15:18:08.000Z</time></trkpt>
        <trkpt lat="29.560955" lon="103.3450608"><ele>1785</ele><time>2026-03-27T15:18:59.000Z</time></trkpt>
        <trkpt lat="29.5608611" lon="103.3450635"><ele>1794.25</ele><time>2026-03-27T15:19:58.000Z</time></trkpt>
        <trkpt lat="29.5608129" lon="103.3449855"><ele>1801.15</ele><time>2026-03-27T15:20:50.000Z</time></trkpt>
        <trkpt lat="29.5607439" lon="103.3449135"><ele>1808.13</ele><time>2026-03-27T15:27:24.000Z</time></trkpt>
        <trkpt lat="29.5607058" lon="103.3448021"><ele>1815.67</ele><time>2026-03-27T15:28:55.000Z</time></trkpt>
        <trkpt lat="29.5606802" lon="103.3446921"><ele>1823.16</ele><time>2026-03-27T15:29:03.000Z</time></trkpt>
        <trkpt lat="29.5606532" lon="103.3446647"><ele>1828.45</ele><time>2026-03-27T15:29:11.000Z</time></trkpt>
        <trkpt lat="29.5605713" lon="103.3446398"><ele>1832.64</ele><time>2026-03-27T15:29:59.000Z</time></trkpt>
        <trkpt lat="29.560474" lon="103.344606"><ele>1837.86</ele><time>2026-03-27T15:32:00.000Z</time></trkpt>
        <trkpt lat="29.5603906" lon="103.3445606"><ele>1842.6</ele><time>2026-03-27T15:34:25.000Z</time></trkpt>
        <trkpt lat="29.5603186" lon="103.3444918"><ele>1847.9</ele><time>2026-03-27T15:34:59.000Z</time></trkpt>
        <trkpt lat="29.5602425" lon="103.3444359"><ele>1854.36</ele><time>2026-03-27T15:35:37.000Z</time></trkpt>
        <trkpt lat="29.5601757" lon="103.3443622"><ele>1859.94</ele><time>2026-03-27T15:36:19.000Z</time></trkpt>
        <trkpt lat="29.5601623" lon="103.3442611"><ele>1865.61</ele><time>2026-03-27T15:36:51.000Z</time></trkpt>
        <trkpt lat="29.5601054" lon="103.3441923"><ele>1871.81</ele><time>2026-03-27T15:37:21.000Z</time></trkpt>
        <trkpt lat="29.5601068" lon="103.3440938"><ele>1875.97</ele><time>2026-03-27T15:38:29.000Z</time></trkpt>
        <trkpt lat="29.5600548" lon="103.3440043"><ele>1883.87</ele><time>2026-03-27T15:39:37.000Z</time></trkpt>
        <trkpt lat="29.5601076" lon="103.34392"><ele>1890.39</ele><time>2026-03-27T15:40:21.000Z</time></trkpt>
        <trkpt lat="29.5600506" lon="103.343845"><ele>1896.78</ele><time>2026-03-27T15:41:21.000Z</time></trkpt>
        <trkpt lat="29.5599704" lon="103.3437907"><ele>1903.35</ele><time>2026-03-27T15:41:47.000Z</time></trkpt>
        <trkpt lat="29.5598904" lon="103.34372"><ele>1908.05</ele><time>2026-03-27T15:42:20.000Z</time></trkpt>
        <trkpt lat="29.5598119" lon="103.3436523"><ele>1913.8</ele><time>2026-03-27T15:43:02.000Z</time></trkpt>
        <trkpt lat="29.5597492" lon="103.343569"><ele>1920.36</ele><time>2026-03-27T15:43:26.000Z</time></trkpt>
        <trkpt lat="29.5596845" lon="103.3434889"><ele>1926.43</ele><time>2026-03-27T15:43:48.000Z</time></trkpt>
        <trkpt lat="29.5596284" lon="103.3435724"><ele>1930.83</ele><time>2026-03-27T15:44:56.000Z</time></trkpt>
        <trkpt lat="29.5595383" lon="103.3435435"><ele>1935.53</ele><time>2026-03-27T15:49:08.000Z</time></trkpt>
        <trkpt lat="29.5594464" lon="103.343531"><ele>1940.92</ele><time>2026-03-27T15:49:58.000Z</time></trkpt>
        <trkpt lat="29.559365" lon="103.3435722"><ele>1945.22</ele><time>2026-03-27T15:50:44.000Z</time></trkpt>
        <trkpt lat="29.5592774" lon="103.3435996"><ele>1951.8</ele><time>2026-03-27T15:51:28.000Z</time></trkpt>
        <trkpt lat="29.5592266" lon="103.3436783"><ele>1956.3</ele><time>2026-03-27T15:51:58.000Z</time></trkpt>
        <trkpt lat="29.5591776" lon="103.3437726"><ele>1961.45</ele><time>2026-03-27T15:52:30.000Z</time></trkpt>
        <trkpt lat="29.5591233" lon="103.3437407"><ele>1967.63</ele><time>2026-03-27T15:53:26.000Z</time></trkpt>
        <trkpt lat="29.559044" lon="103.3436866"><ele>1973.99</ele><time>2026-03-27T15:54:12.000Z</time></trkpt>
        <trkpt lat="29.5589517" lon="103.3437084"><ele>1979.92</ele><time>2026-03-27T15:55:33.000Z</time></trkpt>
        <trkpt lat="29.5588658" lon="103.3437392"><ele>1985.72</ele><time>2026-03-27T15:56:08.000Z</time></trkpt>
        <trkpt lat="29.5588392" lon="103.3438362"><ele>1991.5</ele><time>2026-03-27T15:56:48.000Z</time></trkpt>
        <trkpt lat="29.5588471" lon="103.3439405"><ele>1995.58</ele><time>2026-03-27T15:57:00.000Z</time></trkpt>
        <trkpt lat="29.5588821" lon="103.3440521"><ele>1997.23</ele><time>2026-03-27T15:57:14.000Z</time></trkpt>
        <trkpt lat="29.5588651" lon="103.3441533"><ele>1997.85</ele><time>2026-03-27T15:58:12.000Z</time></trkpt>
        <trkpt lat="29.5588462" lon="103.3442591"><ele>2001.12</ele><time>2026-03-27T15:58:36.000Z</time></trkpt>
        <trkpt lat="29.5587586" lon="103.3442172"><ele>2005.59</ele><time>2026-03-27T16:00:53.000Z</time></trkpt>
        <trkpt lat="29.5586668" lon="103.344202"><ele>2009.9</ele><time>2026-03-27T16:01:50.000Z</time></trkpt>
        <trkpt lat="29.5585787" lon="103.3441746"><ele>2013.75</ele><time>2026-03-27T16:02:08.000Z</time></trkpt>
        <trkpt lat="29.5584899" lon="103.3441338"><ele>2016.53</ele><time>2026-03-27T16:03:29.000Z</time></trkpt>
        <trkpt lat="29.5584542" lon="103.3440265"><ele>2020.73</ele><time>2026-03-27T16:04:18.000Z</time></trkpt>
        <trkpt lat="29.5585493" lon="103.3439917"><ele>2023.64</ele><time>2026-03-27T16:05:36.000Z</time></trkpt>
        <trkpt lat="29.558462" lon="103.3440338"><ele>2025.15</ele><time>2026-03-27T16:07:30.000Z</time></trkpt>
        <trkpt lat="29.5583957" lon="103.3441074"><ele>2026.69</ele><time>2026-03-27T16:07:52.000Z</time></trkpt>
        <trkpt lat="29.5583083" lon="103.3441024"><ele>2028.83</ele><time>2026-03-27T16:08:08.000Z</time></trkpt>
        <trkpt lat="29.5582166" lon="103.3441078"><ele>2031.19</ele><time>2026-03-27T16:08:26.000Z</time></trkpt>
        <trkpt lat="29.5581499" lon="103.3440456"><ele>2032.14</ele><time>2026-03-27T16:08:36.000Z</time></trkpt>
        <trkpt lat="29.5580701" lon="103.3439924"><ele>2032.89</ele><time>2026-03-27T16:09:04.000Z</time></trkpt>
        <trkpt lat="29.5579787" lon="103.3439533"><ele>2034.97</ele><time>2026-03-27T16:09:24.000Z</time></trkpt>
        <trkpt lat="29.5578824" lon="103.3439407"><ele>2036.58</ele><time>2026-03-27T16:09:38.000Z</time></trkpt>
        <trkpt lat="29.5577852" lon="103.343946"><ele>2036.79</ele><time>2026-03-27T16:09:52.000Z</time></trkpt>
        <trkpt lat="29.5576907" lon="103.3439625"><ele>2035.89</ele><time>2026-03-27T16:10:04.000Z</time></trkpt>
        <trkpt lat="29.5576055" lon="103.3440113"><ele>2031.32</ele><time>2026-03-27T16:10:12.000Z</time></trkpt>
        <trkpt lat="29.5575591" lon="103.343951"><ele>2030.65</ele><time>2026-03-27T16:10:48.000Z</time></trkpt>
        <trkpt lat="29.557505" lon="103.34387"><ele>2030.3</ele><time>2026-03-27T16:11:06.000Z</time></trkpt>
        <trkpt lat="29.5574562" lon="103.3437652"><ele>2029.07</ele><time>2026-03-27T16:11:20.000Z</time></trkpt>
        <trkpt lat="29.5573988" lon="103.3436665"><ele>2028.52</ele><time>2026-03-27T16:12:06.000Z</time></trkpt>
        <trkpt lat="29.5573164" lon="103.3436424"><ele>2028.65</ele><time>2026-03-27T16:12:41.000Z</time></trkpt>
        <trkpt lat="29.557225" lon="103.3436167"><ele>2029.8</ele><time>2026-03-27T16:13:16.000Z</time></trkpt>
        <trkpt lat="29.5571251" lon="103.3436095"><ele>2032.28</ele><time>2026-03-27T16:14:32.000Z</time></trkpt>
        <trkpt lat="29.5570445" lon="103.3436595"><ele>2036.4</ele><time>2026-03-27T16:15:02.000Z</time></trkpt>
        <trkpt lat="29.556958" lon="103.3437005"><ele>2040.59</ele><time>2026-03-27T16:15:27.000Z</time></trkpt>
        <trkpt lat="29.5568722" lon="103.3437359"><ele>2044.93</ele><time>2026-03-27T16:15:45.000Z</time></trkpt>
        <trkpt lat="29.5567775" lon="103.3437445"><ele>2048.14</ele><time>2026-03-27T16:16:12.000Z</time></trkpt>
        <trkpt lat="29.5566832" lon="103.3437323"><ele>2051.36</ele><time>2026-03-27T16:16:40.000Z</time></trkpt>
        <trkpt lat="29.5566055" lon="103.3437738"><ele>2055.61</ele><time>2026-03-27T16:17:22.000Z</time></trkpt>
        <trkpt lat="29.5565366" lon="103.3438401"><ele>2059.72</ele><time>2026-03-27T16:18:06.000Z</time></trkpt>
        <trkpt lat="29.5565152" lon="103.3439404"><ele>2064.4</ele><time>2026-03-27T16:18:54.000Z</time></trkpt>
        <trkpt lat="29.5564954" lon="103.3440459"><ele>2070.62</ele><time>2026-03-27T16:19:34.000Z</time></trkpt>
        <trkpt lat="29.5564484" lon="103.3441346"><ele>2076.42</ele><time>2026-03-27T16:19:54.000Z</time></trkpt>
        <trkpt lat="29.5563774" lon="103.3442046"><ele>2082</ele><time>2026-03-27T16:20:18.000Z</time></trkpt>
        <trkpt lat="29.5562861" lon="103.344232"><ele>2087.09</ele><time>2026-03-27T16:20:46.000Z</time></trkpt>
        <trkpt lat="29.5562114" lon="103.3442928"><ele>2091.58</ele><time>2026-03-27T16:21:14.000Z</time></trkpt>
        <trkpt lat="29.5561522" lon="103.3443805"><ele>2096.43</ele><time>2026-03-27T16:21:37.000Z</time></trkpt>
        <trkpt lat="29.5560936" lon="103.3444807"><ele>2100.08</ele><time>2026-03-27T16:29:18.000Z</time></trkpt>
        <trkpt lat="29.5560152" lon="103.3445507"><ele>2103.78</ele><time>2026-03-27T16:29:56.000Z</time></trkpt>
        <trkpt lat="29.5559679" lon="103.3446422"><ele>2107.24</ele><time>2026-03-27T16:30:20.000Z</time></trkpt>
        <trkpt lat="29.5559219" lon="103.3447339"><ele>2109.99</ele><time>2026-03-27T16:30:48.000Z</time></trkpt>
        <trkpt lat="29.5558745" lon="103.3448225"><ele>2112.86</ele><time>2026-03-27T16:31:20.000Z</time></trkpt>
        <trkpt lat="29.5558333" lon="103.3449246"><ele>2117.08</ele><time>2026-03-27T16:31:36.000Z</time></trkpt>
        <trkpt lat="29.5557591" lon="103.3449806"><ele>2119.47</ele><time>2026-03-27T16:32:02.000Z</time></trkpt>
        <trkpt lat="29.5556691" lon="103.3449866"><ele>2121.39</ele><time>2026-03-27T16:32:34.000Z</time></trkpt>
        <trkpt lat="29.5555747" lon="103.3449603"><ele>2124.56</ele><time>2026-03-27T16:33:12.000Z</time></trkpt>
        <trkpt lat="29.555508" lon="103.3450114"><ele>2129</ele><time>2026-03-27T16:34:06.000Z</time></trkpt>
        <trkpt lat="29.5554487" lon="103.3450923"><ele>2133.94</ele><time>2026-03-27T16:34:46.000Z</time></trkpt>
        <trkpt lat="29.5553673" lon="103.3451089"><ele>2139.51</ele><time>2026-03-27T16:35:22.000Z</time></trkpt>
        <trkpt lat="29.5553041" lon="103.3450411"><ele>2144.7</ele><time>2026-03-27T16:35:44.000Z</time></trkpt>
        <trkpt lat="29.5552193" lon="103.3450186"><ele>2149.36</ele><time>2026-03-27T16:36:04.000Z</time></trkpt>
        <trkpt lat="29.5551442" lon="103.3450773"><ele>2153.2</ele><time>2026-03-27T16:36:20.000Z</time></trkpt>
        <trkpt lat="29.5550552" lon="103.3451277"><ele>2156.02</ele><time>2026-03-27T16:37:04.000Z</time></trkpt>
        <trkpt lat="29.554963" lon="103.3451562"><ele>2158.73</ele><time>2026-03-27T16:37:24.000Z</time></trkpt>
        <trkpt lat="29.5548698" lon="103.3451822"><ele>2161.01</ele><time>2026-03-27T16:37:44.000Z</time></trkpt>
        <trkpt lat="29.5547897" lon="103.3452316"><ele>2163.64</ele><time>2026-03-27T16:38:06.000Z</time></trkpt>
        <trkpt lat="29.5547136" lon="103.3452953"><ele>2167.57</ele><time>2026-03-27T16:38:50.000Z</time></trkpt>
        <trkpt lat="29.5546288" lon="103.3453378"><ele>2171.39</ele><time>2026-03-27T16:39:26.000Z</time></trkpt>
        <trkpt lat="29.5545357" lon="103.3453628"><ele>2175.63</ele><time>2026-03-27T16:39:56.000Z</time></trkpt>
        <trkpt lat="29.5544446" lon="103.3453789"><ele>2180.65</ele><time>2026-03-27T16:40:32.000Z</time></trkpt>
        <trkpt lat="29.5543513" lon="103.3453966"><ele>2185.06</ele><time>2026-03-27T16:41:02.000Z</time></trkpt>
        <trkpt lat="29.5542598" lon="103.3454156"><ele>2189.37</ele><time>2026-03-27T16:41:42.000Z</time></trkpt>
        <trkpt lat="29.5541738" lon="103.3454497"><ele>2194.38</ele><time>2026-03-27T16:42:25.000Z</time></trkpt>
        <trkpt lat="29.5540823" lon="103.3454814"><ele>2198.71</ele><time>2026-03-27T16:42:54.000Z</time></trkpt>
        <trkpt lat="29.5539882" lon="103.34547"><ele>2202.68</ele><time>2026-03-27T16:43:24.000Z</time></trkpt>
        <trkpt lat="29.5538965" lon="103.3454231"><ele>2205.8</ele><time>2026-03-27T16:43:42.000Z</time></trkpt>
        <trkpt lat="29.5538022" lon="103.3453685"><ele>2208.69</ele><time>2026-03-27T16:43:58.000Z</time></trkpt>
        <trkpt lat="29.5537122" lon="103.3453322"><ele>2211.78</ele><time>2026-03-27T16:44:10.000Z</time></trkpt>
        <trkpt lat="29.5536154" lon="103.3453071"><ele>2214.76</ele><time>2026-03-27T16:44:24.000Z</time></trkpt>
        <trkpt lat="29.553522" lon="103.3453055"><ele>2217.42</ele><time>2026-03-27T16:44:36.000Z</time></trkpt>
        <trkpt lat="29.5534272" lon="103.3453185"><ele>2220.14</ele><time>2026-03-27T16:44:50.000Z</time></trkpt>
        <trkpt lat="29.5533329" lon="103.3453441"><ele>2222.9</ele><time>2026-03-27T16:45:14.000Z</time></trkpt>
        <trkpt lat="29.5532304" lon="103.3453827"><ele>2225.08</ele><time>2026-03-27T16:51:16.000Z</time></trkpt>
        <trkpt lat="29.5531365" lon="103.3453612"><ele>2226.85</ele><time>2026-03-27T16:51:28.000Z</time></trkpt>
        <trkpt lat="29.5530406" lon="103.3453635"><ele>2228</ele><time>2026-03-27T16:51:40.000Z</time></trkpt>
        <trkpt lat="29.5529429" lon="103.3453806"><ele>2228.75</ele><time>2026-03-27T16:51:52.000Z</time></trkpt>
        <trkpt lat="29.5528454" lon="103.3454013"><ele>2229.98</ele><time>2026-03-27T16:52:06.000Z</time></trkpt>
        <trkpt lat="29.5527524" lon="103.3454217"><ele>2231.58</ele><time>2026-03-27T16:52:16.000Z</time></trkpt>
        <trkpt lat="29.5526638" lon="103.3454057"><ele>2232.39</ele><time>2026-03-27T16:52:28.000Z</time></trkpt>
        <trkpt lat="29.5525693" lon="103.3454203"><ele>2233.52</ele><time>2026-03-27T16:52:40.000Z</time></trkpt>
        <trkpt lat="29.5524735" lon="103.3454215"><ele>2233.89</ele><time>2026-03-27T16:52:58.000Z</time></trkpt>
        <trkpt lat="29.5524275" lon="103.3453462"><ele>2234.72</ele><time>2026-03-27T16:53:20.000Z</time></trkpt>
        <trkpt lat="29.5523828" lon="103.3452459"><ele>2232.95</ele><time>2026-03-27T16:53:38.000Z</time></trkpt>
        <trkpt lat="29.5523137" lon="103.3451784"><ele>2231.55</ele><time>2026-03-27T16:53:50.000Z</time></trkpt>
        <trkpt lat="29.5522283" lon="103.3451092"><ele>2231.44</ele><time>2026-03-27T16:54:02.000Z</time></trkpt>
        <trkpt lat="29.5521367" lon="103.345096"><ele>2231.81</ele><time>2026-03-27T16:54:10.000Z</time></trkpt>
        <trkpt lat="29.5520437" lon="103.3450603"><ele>2231.83</ele><time>2026-03-27T16:54:22.000Z</time></trkpt>
        <trkpt lat="29.551987" lon="103.3449704"><ele>2232.94</ele><time>2026-03-27T16:54:38.000Z</time></trkpt>
        <trkpt lat="29.5519802" lon="103.3449282"><ele>2232.4</ele><time>2026-03-27T16:54:42.000Z</time></trkpt>
        <trkpt lat="29.5519461" lon="103.3448398"><ele>2231.46</ele><time>2026-03-27T16:54:58.000Z</time></trkpt>
        <trkpt lat="29.5518929" lon="103.3447456"><ele>2229.96</ele><time>2026-03-27T16:55:12.000Z</time></trkpt>
        <trkpt lat="29.5518418" lon="103.3446327"><ele>2227.43</ele><time>2026-03-27T16:55:22.000Z</time></trkpt>
        <trkpt lat="29.5517765" lon="103.3445426"><ele>2226.23</ele><time>2026-03-27T16:55:32.000Z</time></trkpt>
        <trkpt lat="29.5517159" lon="103.3444538"><ele>2224.85</ele><time>2026-03-27T16:55:44.000Z</time></trkpt>
        <trkpt lat="29.5516445" lon="103.3443712"><ele>2225.18</ele><time>2026-03-27T16:55:56.000Z</time></trkpt>
        <trkpt lat="29.5515717" lon="103.3442997"><ele>2225.86</ele><time>2026-03-27T16:56:08.000Z</time></trkpt>
        <trkpt lat="29.5514886" lon="103.3442556"><ele>2225.87</ele><time>2026-03-27T16:56:18.000Z</time></trkpt>
        <trkpt lat="29.5514076" lon="103.3442102"><ele>2225.63</ele><time>2026-03-27T16:56:30.000Z</time></trkpt>
        <trkpt lat="29.551318" lon="103.3441836"><ele>2225.09</ele><time>2026-03-27T16:56:42.000Z</time></trkpt>
        <trkpt lat="29.5512144" lon="103.34415"><ele>2224.09</ele><time>2026-03-27T16:56:54.000Z</time></trkpt>
        <trkpt lat="29.5511169" lon="103.3441761"><ele>2223.28</ele><time>2026-03-27T16:57:04.000Z</time></trkpt>
        <trkpt lat="29.551029" lon="103.3441471"><ele>2222.26</ele><time>2026-03-27T16:57:16.000Z</time></trkpt>
        <trkpt lat="29.5509376" lon="103.3441168"><ele>2222.69</ele><time>2026-03-27T16:57:28.000Z</time></trkpt>
        <trkpt lat="29.5508354" lon="103.3441044"><ele>2223.3</ele><time>2026-03-27T16:57:40.000Z</time></trkpt>
        <trkpt lat="29.5507458" lon="103.344065"><ele>2223.08</ele><time>2026-03-27T16:57:52.000Z</time></trkpt>
        <trkpt lat="29.5506981" lon="103.3439762"><ele>2222.57</ele><time>2026-03-27T16:58:08.000Z</time></trkpt>
        <trkpt lat="29.5506259" lon="103.3439137"><ele>2222.81</ele><time>2026-03-27T16:58:22.000Z</time></trkpt>
        <trkpt lat="29.5505531" lon="103.3438511"><ele>2224.12</ele><time>2026-03-27T16:58:32.000Z</time></trkpt>
        <trkpt lat="29.5504844" lon="103.3437762"><ele>2225.58</ele><time>2026-03-27T16:58:44.000Z</time></trkpt>
        <trkpt lat="29.5504114" lon="103.3437125"><ele>2225.55</ele><time>2026-03-27T16:58:54.000Z</time></trkpt>
        <trkpt lat="29.5503515" lon="103.3436321"><ele>2224.86</ele><time>2026-03-27T16:59:06.000Z</time></trkpt>
        <trkpt lat="29.5502985" lon="103.3435426"><ele>2224.27</ele><time>2026-03-27T16:59:18.000Z</time></trkpt>
        <trkpt lat="29.5502647" lon="103.3434321"><ele>2224.2</ele><time>2026-03-27T16:59:30.000Z</time></trkpt>
        <trkpt lat="29.5502215" lon="103.3433333"><ele>2225.51</ele><time>2026-03-27T16:59:40.000Z</time></trkpt>
        <trkpt lat="29.5501625" lon="103.3432488"><ele>2227.17</ele><time>2026-03-27T16:59:50.000Z</time></trkpt>
        <trkpt lat="29.5500827" lon="103.3431754"><ele>2228.08</ele><time>2026-03-27T17:00:04.000Z</time></trkpt>
        <trkpt lat="29.5500049" lon="103.3431029"><ele>2228.7</ele><time>2026-03-27T17:00:20.000Z</time></trkpt>
        <trkpt lat="29.5499483" lon="103.3430161"><ele>2229.16</ele><time>2026-03-27T17:00:30.000Z</time></trkpt>
        <trkpt lat="29.5498974" lon="103.3429252"><ele>2229.02</ele><time>2026-03-27T17:00:42.000Z</time></trkpt>
        <trkpt lat="29.5498495" lon="103.3428386"><ele>2229.02</ele><time>2026-03-27T17:00:52.000Z</time></trkpt>
        <trkpt lat="29.5498111" lon="103.3427284"><ele>2229.49</ele><time>2026-03-27T17:01:08.000Z</time></trkpt>
        <trkpt lat="29.5497573" lon="103.3426274"><ele>2229.76</ele><time>2026-03-27T17:01:20.000Z</time></trkpt>
        <trkpt lat="29.549686" lon="103.3425414"><ele>2229.79</ele><time>2026-03-27T17:01:30.000Z</time></trkpt>
        <trkpt lat="29.5496013" lon="103.3424676"><ele>2229.46</ele><time>2026-03-27T17:01:40.000Z</time></trkpt>
        <trkpt lat="29.5495349" lon="103.3423856"><ele>2228.98</ele><time>2026-03-27T17:01:51.000Z</time></trkpt>
        <trkpt lat="29.5494794" lon="103.3422984"><ele>2229.76</ele><time>2026-03-27T17:02:02.000Z</time></trkpt>
        <trkpt lat="29.5494117" lon="103.3422192"><ele>2232.03</ele><time>2026-03-27T17:02:14.000Z</time></trkpt>
        <trkpt lat="29.5493597" lon="103.3421322"><ele>2233.22</ele><time>2026-03-27T17:02:28.000Z</time></trkpt>
        <trkpt lat="29.5493321" lon="103.3420179"><ele>2234.09</ele><time>2026-03-27T17:02:42.000Z</time></trkpt>
        <trkpt lat="29.5493153" lon="103.3419046"><ele>2235.15</ele><time>2026-03-27T17:02:54.000Z</time></trkpt>
        <trkpt lat="29.5492935" lon="103.34179"><ele>2236.12</ele><time>2026-03-27T17:03:06.000Z</time></trkpt>
        <trkpt lat="29.5492622" lon="103.3416849"><ele>2236.15</ele><time>2026-03-27T17:03:18.000Z</time></trkpt>
        <trkpt lat="29.5492389" lon="103.3415717"><ele>2235.73</ele><time>2026-03-27T17:03:34.000Z</time></trkpt>
        <trkpt lat="29.5492164" lon="103.3414591"><ele>2235.19</ele><time>2026-03-27T17:03:54.000Z</time></trkpt>
        <trkpt lat="29.5491695" lon="103.3413659"><ele>2235.4</ele><time>2026-03-27T17:04:20.000Z</time></trkpt>
        <trkpt lat="29.5491051" lon="103.3412779"><ele>2238.14</ele><time>2026-03-27T17:04:40.000Z</time></trkpt>
        <trkpt lat="29.5490267" lon="103.3412031"><ele>2240.14</ele><time>2026-03-27T17:05:02.000Z</time></trkpt>
        <trkpt lat="29.5489355" lon="103.3411695"><ele>2242.52</ele><time>2026-03-27T17:05:16.000Z</time></trkpt>
        <trkpt lat="29.5488439" lon="103.3411481"><ele>2244.09</ele><time>2026-03-27T17:06:06.000Z</time></trkpt>
        <trkpt lat="29.5487473" lon="103.3411541"><ele>2246.79</ele><time>2026-03-27T17:06:38.000Z</time></trkpt>
        <trkpt lat="29.5486535" lon="103.3411492"><ele>2250.63</ele><time>2026-03-27T17:07:12.000Z</time></trkpt>
        <trkpt lat="29.548562" lon="103.3411776"><ele>2255.55</ele><time>2026-03-27T17:07:48.000Z</time></trkpt>
        <trkpt lat="29.548472" lon="103.3412109"><ele>2259.76</ele><time>2026-03-27T17:08:12.000Z</time></trkpt>
        <trkpt lat="29.5483822" lon="103.3412354"><ele>2263.39</ele><time>2026-03-27T17:08:46.000Z</time></trkpt>
        <trkpt lat="29.5482942" lon="103.3412176"><ele>2266.85</ele><time>2026-03-27T17:09:26.000Z</time></trkpt>
        <trkpt lat="29.5481926" lon="103.3412045"><ele>2270.64</ele><time>2026-03-27T17:09:52.000Z</time></trkpt>
        <trkpt lat="29.5480953" lon="103.3411831"><ele>2274.33</ele><time>2026-03-27T17:10:04.000Z</time></trkpt>
        <trkpt lat="29.5480032" lon="103.3412"><ele>2276.83</ele><time>2026-03-27T17:17:38.000Z</time></trkpt>
        <trkpt lat="29.5479111" lon="103.3411567"><ele>2277.09</ele><time>2026-03-27T17:17:54.000Z</time></trkpt>
        <trkpt lat="29.5478271" lon="103.3411117"><ele>2278.57</ele><time>2026-03-27T17:18:10.000Z</time></trkpt>
        <trkpt lat="29.5477449" lon="103.3410634"><ele>2279.28</ele><time>2026-03-27T17:18:24.000Z</time></trkpt>
        <trkpt lat="29.5476547" lon="103.341033"><ele>2280.62</ele><time>2026-03-27T17:18:40.000Z</time></trkpt>
        <trkpt lat="29.5475626" lon="103.3410378"><ele>2282.55</ele><time>2026-03-27T17:18:56.000Z</time></trkpt>
        <trkpt lat="29.547472" lon="103.3410286"><ele>2284.77</ele><time>2026-03-27T17:19:28.000Z</time></trkpt>
        <trkpt lat="29.547398" lon="103.3409672"><ele>2287.12</ele><time>2026-03-27T17:20:00.000Z</time></trkpt>
        <trkpt lat="29.5473489" lon="103.3408712"><ele>2290.54</ele><time>2026-03-27T17:20:14.000Z</time></trkpt>
        <trkpt lat="29.5473036" lon="103.3407617"><ele>2293.23</ele><time>2026-03-27T17:20:28.000Z</time></trkpt>
        <trkpt lat="29.5472663" lon="103.3406523"><ele>2295.32</ele><time>2026-03-27T17:20:44.000Z</time></trkpt>
        <trkpt lat="29.5472798" lon="103.3405466"><ele>2297.72</ele><time>2026-03-27T17:21:04.000Z</time></trkpt>
        <trkpt lat="29.5472687" lon="103.3404438"><ele>2300.8</ele><time>2026-03-27T17:21:38.000Z</time></trkpt>
        <trkpt lat="29.5472578" lon="103.34034"><ele>2303.57</ele><time>2026-03-27T17:22:44.000Z</time></trkpt>
        <trkpt lat="29.5472379" lon="103.3402339"><ele>2308.69</ele><time>2026-03-27T17:24:14.000Z</time></trkpt>
        <trkpt lat="29.5471688" lon="103.3401532"><ele>2315.13</ele><time>2026-03-27T17:24:44.000Z</time></trkpt>
        <trkpt lat="29.5471131" lon="103.3400672"><ele>2320.31</ele><time>2026-03-27T17:26:18.000Z</time></trkpt>
        <trkpt lat="29.5470705" lon="103.3399663"><ele>2323.65</ele><time>2026-03-27T17:26:44.000Z</time></trkpt>
        <trkpt lat="29.5470841" lon="103.3398575"><ele>2326.7</ele><time>2026-03-27T17:27:50.000Z</time></trkpt>
        <trkpt lat="29.5470781" lon="103.3397515"><ele>2330.75</ele><time>2026-03-27T17:28:22.000Z</time></trkpt>
        <trkpt lat="29.547029" lon="103.3396631"><ele>2334.98</ele><time>2026-03-27T17:30:02.000Z</time></trkpt>
        <trkpt lat="29.546954" lon="103.3396002"><ele>2338.46</ele><time>2026-03-27T17:30:56.000Z</time></trkpt>
        <trkpt lat="29.5468957" lon="103.339519"><ele>2342.62</ele><time>2026-03-27T17:31:34.000Z</time></trkpt>
        <trkpt lat="29.5468684" lon="103.3394199"><ele>2346.96</ele><time>2026-03-27T17:32:28.000Z</time></trkpt>
        <trkpt lat="29.5468179" lon="103.3393329"><ele>2351.79</ele><time>2026-03-27T17:33:30.000Z</time></trkpt>
        <trkpt lat="29.5467627" lon="103.3392496"><ele>2357.41</ele><time>2026-03-27T17:33:58.000Z</time></trkpt>
        <trkpt lat="29.5466934" lon="103.3391823"><ele>2360.82</ele><time>2026-03-27T17:35:08.000Z</time></trkpt>
        <trkpt lat="29.5466294" lon="103.3391014"><ele>2365.64</ele><time>2026-03-27T17:35:42.000Z</time></trkpt>
        <trkpt lat="29.5465747" lon="103.3390091"><ele>2369.74</ele><time>2026-03-27T17:36:04.000Z</time></trkpt>
        <trkpt lat="29.5465214" lon="103.338921"><ele>2373.97</ele><time>2026-03-27T17:36:36.000Z</time></trkpt>
        <trkpt lat="29.5464662" lon="103.3388343"><ele>2378.1</ele><time>2026-03-27T17:37:12.000Z</time></trkpt>
        <trkpt lat="29.5463964" lon="103.3387694"><ele>2382.11</ele><time>2026-03-27T17:38:06.000Z</time></trkpt>
        <trkpt lat="29.5463259" lon="103.3387015"><ele>2386.47</ele><time>2026-03-27T17:38:52.000Z</time></trkpt>
        <trkpt lat="29.5462692" lon="103.3386167"><ele>2391.2</ele><time>2026-03-27T17:39:18.000Z</time></trkpt>
        <trkpt lat="29.5462255" lon="103.3385175"><ele>2395.31</ele><time>2026-03-27T17:39:40.000Z</time></trkpt>
        <trkpt lat="29.5461915" lon="103.3384171"><ele>2398.3</ele><time>2026-03-27T17:40:02.000Z</time></trkpt>
        <trkpt lat="29.5461705" lon="103.3383119"><ele>2401.61</ele><time>2026-03-27T17:40:30.000Z</time></trkpt>
        <trkpt lat="29.5461784" lon="103.3382065"><ele>2404.14</ele><time>2026-03-27T17:41:04.000Z</time></trkpt>
        <trkpt lat="29.5462044" lon="103.3381045"><ele>2407.37</ele><time>2026-03-27T17:41:28.000Z</time></trkpt>
        <trkpt lat="29.5462433" lon="103.3380049"><ele>2410.59</ele><time>2026-03-27T17:41:46.000Z</time></trkpt>
        <trkpt lat="29.5463015" lon="103.3379159"><ele>2413.53</ele><time>2026-03-27T17:42:04.000Z</time></trkpt>
        <trkpt lat="29.5463633" lon="103.3378265"><ele>2415.12</ele><time>2026-03-27T17:42:16.000Z</time></trkpt>
        <trkpt lat="29.5464019" lon="103.3377298"><ele>2415.55</ele><time>2026-03-27T17:42:34.000Z</time></trkpt>
        <trkpt lat="29.5464264" lon="103.337618"><ele>2416.13</ele><time>2026-03-27T17:42:50.000Z</time></trkpt>
        <trkpt lat="29.5464695" lon="103.3375158"><ele>2416.76</ele><time>2026-03-27T17:43:02.000Z</time></trkpt>
        <trkpt lat="29.54654" lon="103.3374407"><ele>2416.86</ele><time>2026-03-27T17:43:14.000Z</time></trkpt>
        <trkpt lat="29.546582" lon="103.3373434"><ele>2417.25</ele><time>2026-03-27T17:43:30.000Z</time></trkpt>
        <trkpt lat="29.5466091" lon="103.3372333"><ele>2418.05</ele><time>2026-03-27T17:43:44.000Z</time></trkpt>
        <trkpt lat="29.546615" lon="103.3371245"><ele>2419.21</ele><time>2026-03-27T17:43:58.000Z</time></trkpt>
        <trkpt lat="29.546524" lon="103.3370498"><ele>2420.19</ele><time>2026-03-27T17:46:26.000Z</time></trkpt>
        <trkpt lat="29.5464685" lon="103.3369612"><ele>2420.82</ele><time>2026-03-27T17:47:04.000Z</time></trkpt>
        <trkpt lat="29.5464493" lon="103.3368515"><ele>2420.46</ele><time>2026-03-27T17:47:22.000Z</time></trkpt>
        <trkpt lat="29.5464335" lon="103.3367425"><ele>2420.08</ele><time>2026-03-27T17:47:42.000Z</time></trkpt>
        <trkpt lat="29.5464262" lon="103.3366349"><ele>2419.37</ele><time>2026-03-27T17:48:00.000Z</time></trkpt>
        <trkpt lat="29.5464458" lon="103.3365308"><ele>2418.88</ele><time>2026-03-27T17:48:20.000Z</time></trkpt>
        <trkpt lat="29.5464817" lon="103.3364266"><ele>2416.98</ele><time>2026-03-27T17:48:46.000Z</time></trkpt>
        <trkpt lat="29.5465067" lon="103.3363243"><ele>2414.31</ele><time>2026-03-27T17:49:06.000Z</time></trkpt>
        <trkpt lat="29.5464989" lon="103.3362198"><ele>2411.8</ele><time>2026-03-27T17:49:22.000Z</time></trkpt>
        <trkpt lat="29.5465337" lon="103.3361275"><ele>2409.1</ele><time>2026-03-27T17:49:42.000Z</time></trkpt>
        <trkpt lat="29.5465777" lon="103.3360354"><ele>2406.69</ele><time>2026-03-27T17:49:58.000Z</time></trkpt>
        <trkpt lat="29.5466119" lon="103.3359368"><ele>2404.32</ele><time>2026-03-27T17:50:12.000Z</time></trkpt>
        <trkpt lat="29.546636" lon="103.3358308"><ele>2402.12</ele><time>2026-03-27T17:50:26.000Z</time></trkpt>
        <trkpt lat="29.5466626" lon="103.335719"><ele>2400.16</ele><time>2026-03-27T17:50:38.000Z</time></trkpt>
        <trkpt lat="29.5466812" lon="103.335612"><ele>2399.07</ele><time>2026-03-27T17:50:58.000Z</time></trkpt>
        <trkpt lat="29.5467175" lon="103.3355051"><ele>2397.6</ele><time>2026-03-27T17:51:12.000Z</time></trkpt>
        <trkpt lat="29.5467481" lon="103.3353966"><ele>2396.93</ele><time>2026-03-27T17:51:24.000Z</time></trkpt>
        <trkpt lat="29.5467722" lon="103.3352909"><ele>2396.41</ele><time>2026-03-27T17:51:42.000Z</time></trkpt>
        <trkpt lat="29.5467994" lon="103.3351868"><ele>2395.96</ele><time>2026-03-27T17:52:00.000Z</time></trkpt>
        <trkpt lat="29.5467777" lon="103.3350887"><ele>2394.9</ele><time>2026-03-27T17:52:14.000Z</time></trkpt>
        <trkpt lat="29.5467398" lon="103.3349874"><ele>2393.3</ele><time>2026-03-27T17:52:30.000Z</time></trkpt>
        <trkpt lat="29.5466605" lon="103.3349355"><ele>2392.71</ele><time>2026-03-27T17:52:46.000Z</time></trkpt>
        <trkpt lat="29.5465738" lon="103.334877"><ele>2390.85</ele><time>2026-03-27T17:53:02.000Z</time></trkpt>
        <trkpt lat="29.5464848" lon="103.3348257"><ele>2389.51</ele><time>2026-03-27T17:53:16.000Z</time></trkpt>
        <trkpt lat="29.5463938" lon="103.334785"><ele>2388.98</ele><time>2026-03-27T17:53:30.000Z</time></trkpt>
        <trkpt lat="29.5463042" lon="103.3347449"><ele>2388.25</ele><time>2026-03-27T17:53:56.000Z</time></trkpt>
        <trkpt lat="29.5462089" lon="103.3347314"><ele>2389.69</ele><time>2026-03-27T17:54:28.000Z</time></trkpt>
        <trkpt lat="29.5461105" lon="103.3347504"><ele>2392.27</ele><time>2026-03-27T17:59:52.000Z</time></trkpt>
        <trkpt lat="29.5460082" lon="103.3347434"><ele>2394.5</ele><time>2026-03-27T18:00:08.000Z</time></trkpt>
        <trkpt lat="29.5459174" lon="103.3347283"><ele>2395.32</ele><time>2026-03-27T18:00:26.000Z</time></trkpt>
        <trkpt lat="29.5458625" lon="103.3346467"><ele>2395.21</ele><time>2026-03-27T18:00:52.000Z</time></trkpt>
        <trkpt lat="29.5458003" lon="103.3345607"><ele>2392.65</ele><time>2026-03-27T18:01:06.000Z</time></trkpt>
        <trkpt lat="29.5457232" lon="103.3344953"><ele>2390.62</ele><time>2026-03-27T18:01:24.000Z</time></trkpt>
        <trkpt lat="29.545641" lon="103.3344468"><ele>2388.37</ele><time>2026-03-27T18:01:36.000Z</time></trkpt>
        <trkpt lat="29.5455547" lon="103.3343953"><ele>2386.57</ele><time>2026-03-27T18:01:54.000Z</time></trkpt>
        <trkpt lat="29.545467" lon="103.3343609"><ele>2384.09</ele><time>2026-03-27T18:02:08.000Z</time></trkpt>
        <trkpt lat="29.5453729" lon="103.3343128"><ele>2383.02</ele><time>2026-03-27T18:02:40.000Z</time></trkpt>
        <trkpt lat="29.5452984" lon="103.3342422"><ele>2381.95</ele><time>2026-03-27T18:02:50.000Z</time></trkpt>
        <trkpt lat="29.5452305" lon="103.3341647"><ele>2383.26</ele><time>2026-03-27T18:03:04.000Z</time></trkpt>
        <trkpt lat="29.5451593" lon="103.3340965"><ele>2384.75</ele><time>2026-03-27T18:03:18.000Z</time></trkpt>
        <trkpt lat="29.5450743" lon="103.3340601"><ele>2386.2</ele><time>2026-03-27T18:03:30.000Z</time></trkpt>
        <trkpt lat="29.5449821" lon="103.3340465"><ele>2386.81</ele><time>2026-03-27T18:03:42.000Z</time></trkpt>
        <trkpt lat="29.5448802" lon="103.334039"><ele>2386.94</ele><time>2026-03-27T18:03:56.000Z</time></trkpt>
        <trkpt lat="29.5447903" lon="103.3340799"><ele>2386.11</ele><time>2026-03-27T18:04:12.000Z</time></trkpt>
        <trkpt lat="29.5447186" lon="103.3341678"><ele>2383.92</ele><time>2026-03-27T18:04:24.000Z</time></trkpt>
        <trkpt lat="29.5446425" lon="103.3342402"><ele>2383.25</ele><time>2026-03-27T18:04:36.000Z</time></trkpt>
        <trkpt lat="29.5445565" lon="103.3342427"><ele>2383.38</ele><time>2026-03-27T18:04:48.000Z</time></trkpt>
        <trkpt lat="29.5444643" lon="103.3342104"><ele>2383.39</ele><time>2026-03-27T18:04:58.000Z</time></trkpt>
        <trkpt lat="29.5443719" lon="103.3341798"><ele>2383.46</ele><time>2026-03-27T18:05:08.000Z</time></trkpt>
        <trkpt lat="29.5442775" lon="103.3341559"><ele>2384.21</ele><time>2026-03-27T18:05:20.000Z</time></trkpt>
        <trkpt lat="29.5441833" lon="103.3341557"><ele>2384.04</ele><time>2026-03-27T18:05:34.000Z</time></trkpt>
        <trkpt lat="29.5440885" lon="103.3341329"><ele>2383.88</ele><time>2026-03-27T18:05:46.000Z</time></trkpt>
        <trkpt lat="29.5440016" lon="103.3340863"><ele>2384.05</ele><time>2026-03-27T18:05:58.000Z</time></trkpt>
        <trkpt lat="29.5439567" lon="103.3340629"><ele>2384.38</ele><time>2026-03-27T18:06:06.000Z</time></trkpt>
        <trkpt lat="29.543899" lon="103.3340004"><ele>2384.86</ele><time>2026-03-27T18:06:26.000Z</time></trkpt>
        <trkpt lat="29.5438302" lon="103.333919"><ele>2385.23</ele><time>2026-03-27T18:06:38.000Z</time></trkpt>
        <trkpt lat="29.5437449" lon="103.3339072"><ele>2385.71</ele><time>2026-03-27T18:06:52.000Z</time></trkpt>
        <trkpt lat="29.5436463" lon="103.3339029"><ele>2385.62</ele><time>2026-03-27T18:07:04.000Z</time></trkpt>
        <trkpt lat="29.5435655" lon="103.3338454"><ele>2384.92</ele><time>2026-03-27T18:07:16.000Z</time></trkpt>
        <trkpt lat="29.5435085" lon="103.3337574"><ele>2385.01</ele><time>2026-03-27T18:07:34.000Z</time></trkpt>
        <trkpt lat="29.5434487" lon="103.3336649"><ele>2385.06</ele><time>2026-03-27T18:07:54.000Z</time></trkpt>
        <trkpt lat="29.5433855" lon="103.3335789"><ele>2384.31</ele><time>2026-03-27T18:08:12.000Z</time></trkpt>
        <trkpt lat="29.543345" lon="103.3334772"><ele>2382.97</ele><time>2026-03-27T18:08:34.000Z</time></trkpt>
        <trkpt lat="29.5433346" lon="103.333392"><ele>2381.53</ele><time>2026-03-27T18:08:44.000Z</time></trkpt>
        <trkpt lat="29.5433092" lon="103.333299"><ele>2380.48</ele><time>2026-03-27T18:08:56.000Z</time></trkpt>
        <trkpt lat="29.5432795" lon="103.333199"><ele>2380.61</ele><time>2026-03-27T18:09:12.000Z</time></trkpt>
        <trkpt lat="29.5432284" lon="103.3331136"><ele>2379.95</ele><time>2026-03-27T18:09:28.000Z</time></trkpt>
        <trkpt lat="29.5431691" lon="103.3330225"><ele>2379.94</ele><time>2026-03-27T18:09:48.000Z</time></trkpt>
        <trkpt lat="29.5430889" lon="103.3329703"><ele>2381.89</ele><time>2026-03-27T18:10:00.000Z</time></trkpt>
        <trkpt lat="29.5429946" lon="103.3329581"><ele>2381.45</ele><time>2026-03-27T18:10:12.000Z</time></trkpt>
        <trkpt lat="29.5429081" lon="103.3329214"><ele>2381.39</ele><time>2026-03-27T18:10:26.000Z</time></trkpt>
        <trkpt lat="29.5428177" lon="103.3329184"><ele>2381.7</ele><time>2026-03-27T18:10:44.000Z</time></trkpt>
        <trkpt lat="29.5427972" lon="103.3328383"><ele>2380.59</ele><time>2026-03-27T18:11:16.000Z</time></trkpt>
        <trkpt lat="29.5427567" lon="103.3327386"><ele>2380.25</ele><time>2026-03-27T18:11:30.000Z</time></trkpt>
        <trkpt lat="29.5427049" lon="103.3326378"><ele>2380.88</ele><time>2026-03-27T18:11:44.000Z</time></trkpt>
        <trkpt lat="29.5426231" lon="103.3326137"><ele>2381.54</ele><time>2026-03-27T18:11:54.000Z</time></trkpt>
        <trkpt lat="29.5425417" lon="103.3325632"><ele>2381.23</ele><time>2026-03-27T18:12:06.000Z</time></trkpt>
        <trkpt lat="29.5425142" lon="103.3324649"><ele>2381.05</ele><time>2026-03-27T18:12:22.000Z</time></trkpt>
        <trkpt lat="29.5424727" lon="103.3323554"><ele>2380.85</ele><time>2026-03-27T18:12:38.000Z</time></trkpt>
        <trkpt lat="29.5424352" lon="103.3322526"><ele>2379.88</ele><time>2026-03-27T18:12:48.000Z</time></trkpt>
        <trkpt lat="29.5424018" lon="103.3321451"><ele>2380</ele><time>2026-03-27T18:13:00.000Z</time></trkpt>
        <trkpt lat="29.5423455" lon="103.3320501"><ele>2380.98</ele><time>2026-03-27T18:13:12.000Z</time></trkpt>
        <trkpt lat="29.542266" lon="103.3319944"><ele>2381.81</ele><time>2026-03-27T18:13:24.000Z</time></trkpt>
        <trkpt lat="29.5421665" lon="103.3319626"><ele>2382.11</ele><time>2026-03-27T18:14:22.000Z</time></trkpt>
        <trkpt lat="29.5420659" lon="103.3319591"><ele>2382.48</ele><time>2026-03-27T18:14:38.000Z</time></trkpt>
        <trkpt lat="29.5419632" lon="103.3319756"><ele>2381.46</ele><time>2026-03-27T18:14:52.000Z</time></trkpt>
        <trkpt lat="29.5418663" lon="103.3319842"><ele>2380.41</ele><time>2026-03-27T18:15:02.000Z</time></trkpt>
        <trkpt lat="29.5418099" lon="103.3319887"><ele>2380.01</ele><time>2026-03-27T18:15:10.000Z</time></trkpt>
        <trkpt lat="29.5417236" lon="103.3319822"><ele>2379.37</ele><time>2026-03-27T18:15:24.000Z</time></trkpt>
        <trkpt lat="29.5417302" lon="103.3318987"><ele>2378.87</ele><time>2026-03-27T18:15:36.000Z</time></trkpt>
        <trkpt lat="29.5417831" lon="103.3318054"><ele>2378.65</ele><time>2026-03-27T18:15:46.000Z</time></trkpt>
        <trkpt lat="29.5417971" lon="103.3316896"><ele>2378.55</ele><time>2026-03-27T18:15:58.000Z</time></trkpt>
        <trkpt lat="29.5417345" lon="103.3316453"><ele>2378.56</ele><time>2026-03-27T18:16:08.000Z</time></trkpt>
        <trkpt lat="29.5416393" lon="103.3316225"><ele>2378.46</ele><time>2026-03-27T18:16:18.000Z</time></trkpt>
        <trkpt lat="29.5415375" lon="103.3316264"><ele>2378.83</ele><time>2026-03-27T18:16:28.000Z</time></trkpt>
        <trkpt lat="29.5414933" lon="103.3315543"><ele>2379.23</ele><time>2026-03-27T18:16:38.000Z</time></trkpt>
        <trkpt lat="29.5414583" lon="103.3314569"><ele>2379.25</ele><time>2026-03-27T18:16:50.000Z</time></trkpt>
        <trkpt lat="29.5413967" lon="103.3313705"><ele>2379.53</ele><time>2026-03-27T18:17:04.000Z</time></trkpt>
        <trkpt lat="29.5413081" lon="103.3313633"><ele>2379.24</ele><time>2026-03-27T18:17:16.000Z</time></trkpt>
        <trkpt lat="29.5413488" lon="103.3313362"><ele>2380</ele><time>2026-03-27T18:17:48.000Z</time></trkpt>
        <trkpt lat="29.5414155" lon="103.331262"><ele>2380.52</ele><time>2026-03-27T18:18:02.000Z</time></trkpt>
        <trkpt lat="29.5414394" lon="103.3314278"><ele>2380.45</ele><time>2026-03-27T18:20:46.000Z</time></trkpt>
        <trkpt lat="29.5415003" lon="103.3315106"><ele>2383.14</ele><time>2026-03-27T18:47:51.000Z</time></trkpt>
        <trkpt lat="29.5414643" lon="103.3316296"><ele>2382.38</ele><time>2026-03-27T18:48:03.000Z</time></trkpt>
        <trkpt lat="29.5413877" lon="103.3316945"><ele>2382.64</ele><time>2026-03-27T18:48:11.000Z</time></trkpt>
        <trkpt lat="29.5413357" lon="103.3317228"><ele>2382.58</ele><time>2026-03-27T18:48:17.000Z</time></trkpt>
        <trkpt lat="29.5412619" lon="103.3317643"><ele>2382.08</ele><time>2026-03-27T18:48:27.000Z</time></trkpt>
        <trkpt lat="29.5411682" lon="103.3318006"><ele>2381.97</ele><time>2026-03-27T18:48:37.000Z</time></trkpt>
        <trkpt lat="29.541071" lon="103.331816"><ele>2381.29</ele><time>2026-03-27T18:49:11.000Z</time></trkpt>
        <trkpt lat="29.5409747" lon="103.3318146"><ele>2380.08</ele><time>2026-03-27T18:49:29.000Z</time></trkpt>
        <trkpt lat="29.5408814" lon="103.3317831"><ele>2379.46</ele><time>2026-03-27T18:49:43.000Z</time></trkpt>
        <trkpt lat="29.5407881" lon="103.3317407"><ele>2380.52</ele><time>2026-03-27T18:49:57.000Z</time></trkpt>
        <trkpt lat="29.54069" lon="103.3317228"><ele>2381.31</ele><time>2026-03-27T18:50:09.000Z</time></trkpt>
        <trkpt lat="29.5406033" lon="103.3317672"><ele>2383.12</ele><time>2026-03-27T18:50:21.000Z</time></trkpt>
        <trkpt lat="29.5405188" lon="103.3318396"><ele>2384.12</ele><time>2026-03-27T18:50:35.000Z</time></trkpt>
        <trkpt lat="29.5404316" lon="103.3318884"><ele>2385.13</ele><time>2026-03-27T18:50:49.000Z</time></trkpt>
        <trkpt lat="29.5403336" lon="103.3319402"><ele>2384.98</ele><time>2026-03-27T18:50:59.000Z</time></trkpt>
        <trkpt lat="29.5402457" lon="103.3319916"><ele>2386.63</ele><time>2026-03-27T18:51:11.000Z</time></trkpt>
        <trkpt lat="29.5402035" lon="103.3320842"><ele>2387.16</ele><time>2026-03-27T18:51:45.000Z</time></trkpt>
        <trkpt lat="29.5401595" lon="103.3320947"><ele>2387.4</ele><time>2026-03-27T18:51:59.000Z</time></trkpt>
        <trkpt lat="29.5402384" lon="103.3321071"><ele>2387.64</ele><time>2026-03-27T18:52:19.000Z</time></trkpt>
        <trkpt lat="29.5403077" lon="103.3321813"><ele>2385.15</ele><time>2026-03-27T18:52:35.000Z</time></trkpt>
        <trkpt lat="29.5402606" lon="103.3322264"><ele>2384.37</ele><time>2026-03-27T18:52:43.000Z</time></trkpt>
        <trkpt lat="29.5402488" lon="103.3323424"><ele>2383.69</ele><time>2026-03-27T18:52:49.000Z</time></trkpt>
        <trkpt lat="29.5402197" lon="103.3323886"><ele>2383.23</ele><time>2026-03-27T18:52:51.000Z</time></trkpt>
        <trkpt lat="29.5401575" lon="103.3323444"><ele>2383.11</ele><time>2026-03-27T18:52:57.000Z</time></trkpt>
        <trkpt lat="29.5402681" lon="103.3321229"><ele>2383.16</ele><time>2026-03-27T18:53:54.000Z</time></trkpt>
        <trkpt lat="29.5402773" lon="103.3319653"><ele>2384.02</ele><time>2026-03-27T18:54:00.000Z</time></trkpt>
        <trkpt lat="29.5402871" lon="103.3320147"><ele>2384.54</ele><time>2026-03-27T18:54:08.000Z</time></trkpt>
        <trkpt lat="29.5402736" lon="103.3321832"><ele>2385.09</ele><time>2026-03-27T18:54:14.000Z</time></trkpt>
        <trkpt lat="29.5402165" lon="103.3323275"><ele>2386.32</ele><time>2026-03-27T18:54:18.000Z</time></trkpt>
        <trkpt lat="29.5401859" lon="103.3322832"><ele>2382.93</ele><time>2026-03-27T18:54:22.000Z</time></trkpt>
        <trkpt lat="29.5402195" lon="103.3321871"><ele>2381.31</ele><time>2026-03-27T18:54:42.000Z</time></trkpt>
        <trkpt lat="29.5402009" lon="103.3320764"><ele>2378.1</ele><time>2026-03-27T18:55:00.000Z</time></trkpt>
        <trkpt lat="29.540135" lon="103.3320843"><ele>2381.23</ele><time>2026-03-27T18:55:36.000Z</time></trkpt>
        <trkpt lat="29.5400534" lon="103.3321397"><ele>2383.12</ele><time>2026-03-27T18:55:44.000Z</time></trkpt>
        <trkpt lat="29.5399589" lon="103.3322133"><ele>2383.8</ele><time>2026-03-27T18:55:58.000Z</time></trkpt>
        <trkpt lat="29.5398649" lon="103.3322694"><ele>2383.49</ele><time>2026-03-27T18:56:06.000Z</time></trkpt>
        <trkpt lat="29.5397742" lon="103.3323228"><ele>2383.92</ele><time>2026-03-27T18:56:14.000Z</time></trkpt>
        <trkpt lat="29.5396922" lon="103.3323801"><ele>2383.77</ele><time>2026-03-27T18:56:24.000Z</time></trkpt>
        <trkpt lat="29.5396031" lon="103.332435"><ele>2384.15</ele><time>2026-03-27T18:56:42.000Z</time></trkpt>
        <trkpt lat="29.5395244" lon="103.3325038"><ele>2386.49</ele><time>2026-03-27T18:57:02.000Z</time></trkpt>
        <trkpt lat="29.5394448" lon="103.3325612"><ele>2389.16</ele><time>2026-03-27T18:57:24.000Z</time></trkpt>
        <trkpt lat="29.5393729" lon="103.3326294"><ele>2391.67</ele><time>2026-03-27T18:57:42.000Z</time></trkpt>
        <trkpt lat="29.5393066" lon="103.3327007"><ele>2394.96</ele><time>2026-03-27T18:57:56.000Z</time></trkpt>
        <trkpt lat="29.5392502" lon="103.3327907"><ele>2397.95</ele><time>2026-03-27T18:58:08.000Z</time></trkpt>
        <trkpt lat="29.5391793" lon="103.3328611"><ele>2401.1</ele><time>2026-03-27T18:58:20.000Z</time></trkpt>
        <trkpt lat="29.5390904" lon="103.3328961"><ele>2402.41</ele><time>2026-03-27T18:58:32.000Z</time></trkpt>
        <trkpt lat="29.5390167" lon="103.3329554"><ele>2403.46</ele><time>2026-03-27T18:58:42.000Z</time></trkpt>
        <trkpt lat="29.5389413" lon="103.3330111"><ele>2405.18</ele><time>2026-03-27T18:58:54.000Z</time></trkpt>
        <trkpt lat="29.5388644" lon="103.3330707"><ele>2405.92</ele><time>2026-03-27T18:59:02.000Z</time></trkpt>
        <trkpt lat="29.5387802" lon="103.3331177"><ele>2407.79</ele><time>2026-03-27T18:59:10.000Z</time></trkpt>
        <trkpt lat="29.53869" lon="103.3331501"><ele>2409.22</ele><time>2026-03-27T18:59:18.000Z</time></trkpt>
        <trkpt lat="29.5385981" lon="103.3331715"><ele>2410.1</ele><time>2026-03-27T18:59:28.000Z</time></trkpt>
        <trkpt lat="29.5385006" lon="103.3331849"><ele>2411.4</ele><time>2026-03-27T18:59:40.000Z</time></trkpt>
        <trkpt lat="29.5384068" lon="103.3331851"><ele>2412.04</ele><time>2026-03-27T18:59:50.000Z</time></trkpt>
        <trkpt lat="29.5383098" lon="103.3332076"><ele>2412.45</ele><time>2026-03-27T19:00:04.000Z</time></trkpt>
        <trkpt lat="29.5382227" lon="103.3332495"><ele>2411.97</ele><time>2026-03-27T19:00:18.000Z</time></trkpt>
        <trkpt lat="29.5381403" lon="103.3333096"><ele>2412.42</ele><time>2026-03-27T19:00:32.000Z</time></trkpt>
        <trkpt lat="29.5380716" lon="103.3333862"><ele>2412.87</ele><time>2026-03-27T19:00:42.000Z</time></trkpt>
        <trkpt lat="29.5379833" lon="103.3334381"><ele>2414.15</ele><time>2026-03-27T19:00:52.000Z</time></trkpt>
        <trkpt lat="29.5379031" lon="103.3334974"><ele>2414.75</ele><time>2026-03-27T19:01:06.000Z</time></trkpt>
        <trkpt lat="29.5378209" lon="103.3335479"><ele>2415.65</ele><time>2026-03-27T19:01:14.000Z</time></trkpt>
        <trkpt lat="29.5377392" lon="103.333598"><ele>2416.76</ele><time>2026-03-27T19:01:26.000Z</time></trkpt>
        <trkpt lat="29.5376679" lon="103.3336754"><ele>2417.57</ele><time>2026-03-27T19:01:38.000Z</time></trkpt>
        <trkpt lat="29.5375914" lon="103.333742"><ele>2418.13</ele><time>2026-03-27T19:01:54.000Z</time></trkpt>
        <trkpt lat="29.5375025" lon="103.3337759"><ele>2418.41</ele><time>2026-03-27T19:02:16.000Z</time></trkpt>
        <trkpt lat="29.5374051" lon="103.3337777"><ele>2418.38</ele><time>2026-03-27T19:02:38.000Z</time></trkpt>
        <trkpt lat="29.5373119" lon="103.3337847"><ele>2418.04</ele><time>2026-03-27T19:02:52.000Z</time></trkpt>
        <trkpt lat="29.5372552" lon="103.333861"><ele>2417.67</ele><time>2026-03-27T19:03:08.000Z</time></trkpt>
        <trkpt lat="29.5372197" lon="103.3339638"><ele>2420.45</ele><time>2026-03-27T19:03:44.000Z</time></trkpt>
        <trkpt lat="29.5371929" lon="103.3340705"><ele>2423.7</ele><time>2026-03-27T19:03:58.000Z</time></trkpt>
        <trkpt lat="29.5371742" lon="103.3341205"><ele>2426.57</ele><time>2026-03-27T19:04:04.000Z</time></trkpt>
        <trkpt lat="29.5371189" lon="103.3341778"><ele>2428.34</ele><time>2026-03-27T19:04:20.000Z</time></trkpt>
        <trkpt lat="29.5370336" lon="103.3342169"><ele>2430.39</ele><time>2026-03-27T19:04:40.000Z</time></trkpt>
        <trkpt lat="29.5369371" lon="103.3342418"><ele>2431.74</ele><time>2026-03-27T19:04:52.000Z</time></trkpt>
        <trkpt lat="29.5368416" lon="103.3342836"><ele>2433.87</ele><time>2026-03-27T19:08:16.000Z</time></trkpt>
        <trkpt lat="29.5367514" lon="103.3343331"><ele>2433.95</ele><time>2026-03-27T19:08:36.000Z</time></trkpt>
        <trkpt lat="29.5366632" lon="103.3343636"><ele>2436.29</ele><time>2026-03-27T19:08:46.000Z</time></trkpt>
        <trkpt lat="29.536574" lon="103.3343521"><ele>2440.68</ele><time>2026-03-27T19:09:00.000Z</time></trkpt>
        <trkpt lat="29.5364847" lon="103.3343309"><ele>2442.31</ele><time>2026-03-27T19:09:30.000Z</time></trkpt>
        <trkpt lat="29.5363972" lon="103.3343486"><ele>2443.08</ele><time>2026-03-27T19:10:38.000Z</time></trkpt>
        <trkpt lat="29.5363042" lon="103.3343506"><ele>2444.17</ele><time>2026-03-27T19:10:56.000Z</time></trkpt>
        <trkpt lat="29.5362148" lon="103.3343311"><ele>2445.41</ele><time>2026-03-27T19:11:16.000Z</time></trkpt>
        <trkpt lat="29.5361308" lon="103.3342862"><ele>2446.91</ele><time>2026-03-27T19:11:36.000Z</time></trkpt>
        <trkpt lat="29.5360414" lon="103.3342279"><ele>2449.38</ele><time>2026-03-27T19:11:50.000Z</time></trkpt>
        <trkpt lat="29.5359536" lon="103.3341691"><ele>2451.26</ele><time>2026-03-27T19:12:14.000Z</time></trkpt>
        <trkpt lat="29.5358732" lon="103.3341122"><ele>2453.89</ele><time>2026-03-27T19:12:32.000Z</time></trkpt>
        <trkpt lat="29.5357938" lon="103.3340618"><ele>2457.1</ele><time>2026-03-27T19:12:44.000Z</time></trkpt>
        <trkpt lat="29.5357052" lon="103.3340103"><ele>2458.99</ele><time>2026-03-27T19:12:54.000Z</time></trkpt>
        <trkpt lat="29.5356099" lon="103.3339622"><ele>2460.48</ele><time>2026-03-27T19:13:06.000Z</time></trkpt>
        <trkpt lat="29.5355544" lon="103.3338786"><ele>2461.54</ele><time>2026-03-27T19:13:26.000Z</time></trkpt>
        <trkpt lat="29.5355102" lon="103.3337853"><ele>2462.69</ele><time>2026-03-27T19:13:50.000Z</time></trkpt>
        <trkpt lat="29.5354406" lon="103.3337254"><ele>2463.44</ele><time>2026-03-27T19:14:12.000Z</time></trkpt>
        <trkpt lat="29.5353757" lon="103.333653"><ele>2464.05</ele><time>2026-03-27T19:14:22.000Z</time></trkpt>
        <trkpt lat="29.5353464" lon="103.3335499"><ele>2464.82</ele><time>2026-03-27T19:14:32.000Z</time></trkpt>
        <trkpt lat="29.5353068" lon="103.333443"><ele>2465.62</ele><time>2026-03-27T19:14:52.000Z</time></trkpt>
        <trkpt lat="29.5352678" lon="103.3333336"><ele>2467.12</ele><time>2026-03-27T19:15:10.000Z</time></trkpt>
        <trkpt lat="29.5352199" lon="103.3332307"><ele>2468.89</ele><time>2026-03-27T19:15:36.000Z</time></trkpt>
        <trkpt lat="29.5351789" lon="103.3331312"><ele>2471.3</ele><time>2026-03-27T19:15:58.000Z</time></trkpt>
        <trkpt lat="29.5351383" lon="103.3330349"><ele>2474.5</ele><time>2026-03-27T19:16:38.000Z</time></trkpt>
        <trkpt lat="29.5350964" lon="103.3329327"><ele>2478.16</ele><time>2026-03-27T19:16:58.000Z</time></trkpt>
        <trkpt lat="29.5350355" lon="103.3328539"><ele>2481.77</ele><time>2026-03-27T19:17:16.000Z</time></trkpt>
        <trkpt lat="29.5349516" lon="103.3327949"><ele>2484.04</ele><time>2026-03-27T19:17:32.000Z</time></trkpt>
        <trkpt lat="29.5348648" lon="103.3328881"><ele>2484.84</ele><time>2026-03-27T19:21:12.000Z</time></trkpt>
        <trkpt lat="29.5348018" lon="103.3329636"><ele>2486</ele><time>2026-03-27T19:21:30.000Z</time></trkpt>
        <trkpt lat="29.5347096" lon="103.3329844"><ele>2486.9</ele><time>2026-03-27T19:22:40.000Z</time></trkpt>
        <trkpt lat="29.5346163" lon="103.3330167"><ele>2488.43</ele><time>2026-03-27T19:23:04.000Z</time></trkpt>
        <trkpt lat="29.5345249" lon="103.3330423"><ele>2490.91</ele><time>2026-03-27T19:23:22.000Z</time></trkpt>
        <trkpt lat="29.5344739" lon="103.3330597"><ele>2493.25</ele><time>2026-03-27T19:23:32.000Z</time></trkpt>
        <trkpt lat="29.5344036" lon="103.333097"><ele>2494.91</ele><time>2026-03-27T19:23:58.000Z</time></trkpt>
        <trkpt lat="29.5343213" lon="103.3331452"><ele>2495.95</ele><time>2026-03-27T19:24:24.000Z</time></trkpt>
        <trkpt lat="29.5342391" lon="103.333123"><ele>2498.59</ele><time>2026-03-27T19:24:48.000Z</time></trkpt>
        <trkpt lat="29.5341565" lon="103.3331481"><ele>2500.56</ele><time>2026-03-27T19:25:22.000Z</time></trkpt>
        <trkpt lat="29.5340731" lon="103.3331862"><ele>2503.41</ele><time>2026-03-27T19:25:42.000Z</time></trkpt>
        <trkpt lat="29.5339744" lon="103.333204"><ele>2506.89</ele><time>2026-03-27T19:25:56.000Z</time></trkpt>
        <trkpt lat="29.5338764" lon="103.3332023"><ele>2509.22</ele><time>2026-03-27T19:26:22.000Z</time></trkpt>
        <trkpt lat="29.533798" lon="103.3331463"><ele>2513.74</ele><time>2026-03-27T19:26:50.000Z</time></trkpt>
        <trkpt lat="29.5337256" lon="103.3330689"><ele>2517.51</ele><time>2026-03-27T19:27:20.000Z</time></trkpt>
        <trkpt lat="29.5336609" lon="103.3329846"><ele>2521.69</ele><time>2026-03-27T19:27:46.000Z</time></trkpt>
        <trkpt lat="29.5335908" lon="103.3329106"><ele>2526.99</ele><time>2026-03-27T19:29:02.000Z</time></trkpt>
        <trkpt lat="29.5335198" lon="103.3328396"><ele>2531.41</ele><time>2026-03-27T19:29:20.000Z</time></trkpt>
        <trkpt lat="29.5334592" lon="103.3327613"><ele>2536.04</ele><time>2026-03-27T19:29:44.000Z</time></trkpt>
        <trkpt lat="29.5333775" lon="103.3327171"><ele>2540.77</ele><time>2026-03-27T19:31:16.000Z</time></trkpt>
        <trkpt lat="29.5332962" lon="103.3326701"><ele>2544.13</ele><time>2026-03-27T19:31:48.000Z</time></trkpt>
        <trkpt lat="29.5332176" lon="103.332616"><ele>2546.97</ele><time>2026-03-27T19:32:12.000Z</time></trkpt>
        <trkpt lat="29.5331447" lon="103.3325456"><ele>2550.98</ele><time>2026-03-27T19:32:36.000Z</time></trkpt>
        <trkpt lat="29.5330767" lon="103.3324712"><ele>2555.23</ele><time>2026-03-27T19:32:58.000Z</time></trkpt>
        <trkpt lat="29.5330005" lon="103.3324133"><ele>2559.23</ele><time>2026-03-27T19:34:20.000Z</time></trkpt>
        <trkpt lat="29.5329349" lon="103.3323336"><ele>2560.94</ele><time>2026-03-27T19:34:42.000Z</time></trkpt>
        <trkpt lat="29.5328721" lon="103.3322483"><ele>2562.52</ele><time>2026-03-27T19:35:06.000Z</time></trkpt>
        <trkpt lat="29.5328081" lon="103.332167"><ele>2565.09</ele><time>2026-03-27T19:35:36.000Z</time></trkpt>
        <trkpt lat="29.5327494" lon="103.3320798"><ele>2567.72</ele><time>2026-03-27T19:36:02.000Z</time></trkpt>
        <trkpt lat="29.5326723" lon="103.3320195"><ele>2570.45</ele><time>2026-03-27T19:42:48.000Z</time></trkpt>
        <trkpt lat="29.5325991" lon="103.3319565"><ele>2572.23</ele><time>2026-03-27T19:43:16.000Z</time></trkpt>
        <trkpt lat="29.5325614" lon="103.3318641"><ele>2575.12</ele><time>2026-03-27T19:43:48.000Z</time></trkpt>
        <trkpt lat="29.5325372" lon="103.3317585"><ele>2578.35</ele><time>2026-03-27T19:44:10.000Z</time></trkpt>
        <trkpt lat="29.5325227" lon="103.3316492"><ele>2582.76</ele><time>2026-03-27T19:44:32.000Z</time></trkpt>
        <trkpt lat="29.5324649" lon="103.3315741"><ele>2588.1</ele><time>2026-03-27T19:45:26.000Z</time></trkpt>
        <trkpt lat="29.5324276" lon="103.3314824"><ele>2591.5</ele><time>2026-03-27T19:45:48.000Z</time></trkpt>
        <trkpt lat="29.5324084" lon="103.331381"><ele>2595.05</ele><time>2026-03-27T19:46:08.000Z</time></trkpt>
        <trkpt lat="29.5323628" lon="103.33129"><ele>2599.43</ele><time>2026-03-27T19:46:32.000Z</time></trkpt>
        <trkpt lat="29.5323219" lon="103.3311945"><ele>2602.89</ele><time>2026-03-27T19:47:02.000Z</time></trkpt>
        <trkpt lat="29.5322635" lon="103.331287"><ele>2605.97</ele><time>2026-03-27T19:48:04.000Z</time></trkpt>
        <trkpt lat="29.5322068" lon="103.3313723"><ele>2609.08</ele><time>2026-03-27T19:48:24.000Z</time></trkpt>
        <trkpt lat="29.532161" lon="103.3313054"><ele>2613.22</ele><time>2026-03-27T19:49:06.000Z</time></trkpt>
        <trkpt lat="29.5321105" lon="103.3312141"><ele>2616.68</ele><time>2026-03-27T19:49:28.000Z</time></trkpt>
        <trkpt lat="29.5320748" lon="103.331103"><ele>2618.38</ele><time>2026-03-27T19:49:48.000Z</time></trkpt>
        <trkpt lat="29.5320848" lon="103.3309828"><ele>2619.74</ele><time>2026-03-27T19:50:36.000Z</time></trkpt>
        <trkpt lat="29.5320874" lon="103.3308605"><ele>2621.62</ele><time>2026-03-27T19:50:54.000Z</time></trkpt>
        <trkpt lat="29.5321131" lon="103.3307529"><ele>2623.31</ele><time>2026-03-27T19:51:06.000Z</time></trkpt>
        <trkpt lat="29.5321324" lon="103.3306427"><ele>2625.92</ele><time>2026-03-27T19:51:26.000Z</time></trkpt>
        <trkpt lat="29.5321465" lon="103.3305344"><ele>2628.22</ele><time>2026-03-27T19:51:46.000Z</time></trkpt>
        <trkpt lat="29.5321568" lon="103.3304303"><ele>2630.78</ele><time>2026-03-27T19:52:44.000Z</time></trkpt>
        <trkpt lat="29.5321178" lon="103.3303416"><ele>2633.83</ele><time>2026-03-27T19:53:18.000Z</time></trkpt>
        <trkpt lat="29.5321425" lon="103.3302594"><ele>2637.73</ele><time>2026-03-27T19:53:54.000Z</time></trkpt>
        <trkpt lat="29.5320635" lon="103.3302446"><ele>2643.57</ele><time>2026-03-27T19:55:46.000Z</time></trkpt>
        <trkpt lat="29.531967" lon="103.3302467"><ele>2649.36</ele><time>2026-03-27T19:56:16.000Z</time></trkpt>
        <trkpt lat="29.5318674" lon="103.3302444"><ele>2654.05</ele><time>2026-03-27T19:56:40.000Z</time></trkpt>
        <trkpt lat="29.531803" lon="103.3301682"><ele>2658.79</ele><time>2026-03-27T19:59:20.000Z</time></trkpt>
        <trkpt lat="29.5317474" lon="103.3300787"><ele>2664.08</ele><time>2026-03-27T19:59:40.000Z</time></trkpt>
        <trkpt lat="29.5316722" lon="103.3300223"><ele>2668.16</ele><time>2026-03-27T20:00:04.000Z</time></trkpt>
        <trkpt lat="29.5315877" lon="103.3299853"><ele>2670.95</ele><time>2026-03-27T20:00:30.000Z</time></trkpt>
        <trkpt lat="29.5314976" lon="103.3299501"><ele>2674.63</ele><time>2026-03-27T20:01:34.000Z</time></trkpt>
        <trkpt lat="29.5314283" lon="103.3298816"><ele>2678.36</ele><time>2026-03-27T20:02:06.000Z</time></trkpt>
        <trkpt lat="29.5313545" lon="103.329818"><ele>2682.77</ele><time>2026-03-27T20:03:14.000Z</time></trkpt>
        <trkpt lat="29.5312843" lon="103.3297511"><ele>2688.1</ele><time>2026-03-27T20:03:56.000Z</time></trkpt>
        <trkpt lat="29.531243" lon="103.329651"><ele>2694.47</ele><time>2026-03-27T20:05:08.000Z</time></trkpt>
        <trkpt lat="29.5311892" lon="103.3295601"><ele>2701.18</ele><time>2026-03-27T20:05:46.000Z</time></trkpt>
        <trkpt lat="29.5311291" lon="103.329482"><ele>2706.4</ele><time>2026-03-27T20:11:56.000Z</time></trkpt>
        <trkpt lat="29.5311115" lon="103.3293785"><ele>2710.14</ele><time>2026-03-27T20:12:28.000Z</time></trkpt>
        <trkpt lat="29.5311084" lon="103.32927"><ele>2713.23</ele><time>2026-03-27T20:12:46.000Z</time></trkpt>
        <trkpt lat="29.5310994" lon="103.3291585"><ele>2718.13</ele><time>2026-03-27T20:13:02.000Z</time></trkpt>
        <trkpt lat="29.531091" lon="103.3290425"><ele>2721.09</ele><time>2026-03-27T20:13:16.000Z</time></trkpt>
        <trkpt lat="29.5310758" lon="103.3289322"><ele>2723.76</ele><time>2026-03-27T20:13:36.000Z</time></trkpt>
        <trkpt lat="29.5310745" lon="103.3288243"><ele>2724.95</ele><time>2026-03-27T20:13:54.000Z</time></trkpt>
        <trkpt lat="29.5311006" lon="103.3287248"><ele>2725.85</ele><time>2026-03-27T20:14:10.000Z</time></trkpt>
        <trkpt lat="29.5311289" lon="103.3286187"><ele>2727.65</ele><time>2026-03-27T20:14:30.000Z</time></trkpt>
        <trkpt lat="29.531169" lon="103.3285128"><ele>2730.26</ele><time>2026-03-27T20:14:48.000Z</time></trkpt>
        <trkpt lat="29.5312064" lon="103.3284024"><ele>2733.33</ele><time>2026-03-27T20:15:36.000Z</time></trkpt>
        <trkpt lat="29.5312366" lon="103.3282942"><ele>2733.73</ele><time>2026-03-27T20:15:58.000Z</time></trkpt>
        <trkpt lat="29.5312405" lon="103.3281797"><ele>2734.9</ele><time>2026-03-27T20:16:14.000Z</time></trkpt>
        <trkpt lat="29.531252" lon="103.3280552"><ele>2735.84</ele><time>2026-03-27T20:16:26.000Z</time></trkpt>
        <trkpt lat="29.5312515" lon="103.3279428"><ele>2738.72</ele><time>2026-03-27T20:16:40.000Z</time></trkpt>
        <trkpt lat="29.5312627" lon="103.3278339"><ele>2740.07</ele><time>2026-03-27T20:16:56.000Z</time></trkpt>
        <trkpt lat="29.5312421" lon="103.32773"><ele>2743.21</ele><time>2026-03-27T20:17:16.000Z</time></trkpt>
        <trkpt lat="29.5312402" lon="103.3276189"><ele>2746.62</ele><time>2026-03-27T20:17:34.000Z</time></trkpt>
        <trkpt lat="29.5312173" lon="103.3275153"><ele>2749.81</ele><time>2026-03-27T20:18:02.000Z</time></trkpt>
        <trkpt lat="29.5311928" lon="103.3274131"><ele>2750.83</ele><time>2026-03-27T20:18:26.000Z</time></trkpt>
        <trkpt lat="29.5311961" lon="103.3273061"><ele>2751.29</ele><time>2026-03-27T20:18:52.000Z</time></trkpt>
        <trkpt lat="29.5311918" lon="103.3271967"><ele>2754.39</ele><time>2026-03-27T20:19:16.000Z</time></trkpt>
        <trkpt lat="29.5311543" lon="103.3271035"><ele>2758.2</ele><time>2026-03-27T20:19:36.000Z</time></trkpt>
        <trkpt lat="29.5310764" lon="103.3270468"><ele>2761.59</ele><time>2026-03-27T20:19:56.000Z</time></trkpt>
        <trkpt lat="29.5309806" lon="103.3270153"><ele>2764.81</ele><time>2026-03-27T20:20:22.000Z</time></trkpt>
        <trkpt lat="29.5308876" lon="103.3269783"><ele>2767.99</ele><time>2026-03-27T20:20:38.000Z</time></trkpt>
        <trkpt lat="29.5308123" lon="103.3269188"><ele>2770.06</ele><time>2026-03-27T20:20:56.000Z</time></trkpt>
        <trkpt lat="29.5307546" lon="103.3268367"><ele>2774.2</ele><time>2026-03-27T20:21:30.000Z</time></trkpt>
        <trkpt lat="29.5306777" lon="103.3268377"><ele>2776.96</ele><time>2026-03-27T20:22:08.000Z</time></trkpt>
        <trkpt lat="29.5305922" lon="103.326877"><ele>2780.72</ele><time>2026-03-27T20:22:30.000Z</time></trkpt>
        <trkpt lat="29.5305037" lon="103.3269165"><ele>2783.82</ele><time>2026-03-27T20:22:48.000Z</time></trkpt>
        <trkpt lat="29.5304145" lon="103.3269556"><ele>2787.67</ele><time>2026-03-27T20:23:06.000Z</time></trkpt>
        <trkpt lat="29.5303335" lon="103.3270105"><ele>2791.91</ele><time>2026-03-27T20:23:36.000Z</time></trkpt>
        <trkpt lat="29.5302477" lon="103.3270589"><ele>2796.76</ele><time>2026-03-27T20:23:54.000Z</time></trkpt>
        <trkpt lat="29.530163" lon="103.3271063"><ele>2800.4</ele><time>2026-03-27T20:24:06.000Z</time></trkpt>
        <trkpt lat="29.5300879" lon="103.3271731"><ele>2803.52</ele><time>2026-03-27T20:24:26.000Z</time></trkpt>
        <trkpt lat="29.5300121" lon="103.3272366"><ele>2803.78</ele><time>2026-03-27T20:24:36.000Z</time></trkpt>
        <trkpt lat="29.5299366" lon="103.3273045"><ele>2804.54</ele><time>2026-03-27T20:24:46.000Z</time></trkpt>
        <trkpt lat="29.5299004" lon="103.3274034"><ele>2805.22</ele><time>2026-03-27T20:25:02.000Z</time></trkpt>
        <trkpt lat="29.5298579" lon="103.3274965"><ele>2806.59</ele><time>2026-03-27T20:25:16.000Z</time></trkpt>
        <trkpt lat="29.5298152" lon="103.3275992"><ele>2807.98</ele><time>2026-03-27T20:25:32.000Z</time></trkpt>
        <trkpt lat="29.5297647" lon="103.3276897"><ele>2810.42</ele><time>2026-03-27T20:25:46.000Z</time></trkpt>
        <trkpt lat="29.529699" lon="103.3277813"><ele>2811.65</ele><time>2026-03-27T20:26:02.000Z</time></trkpt>
        <trkpt lat="29.5296046" lon="103.3278219"><ele>2812.32</ele><time>2026-03-27T20:26:14.000Z</time></trkpt>
        <trkpt lat="29.5294979" lon="103.3278047"><ele>2813.82</ele><time>2026-03-27T20:27:32.000Z</time></trkpt>
        <trkpt lat="29.5294012" lon="103.3277776"><ele>2813.18</ele><time>2026-03-27T20:27:44.000Z</time></trkpt>
        <trkpt lat="29.5293093" lon="103.327785"><ele>2812.13</ele><time>2026-03-27T20:28:00.000Z</time></trkpt>
        <trkpt lat="29.5292522" lon="103.3278657"><ele>2811.56</ele><time>2026-03-27T20:28:14.000Z</time></trkpt>
        <trkpt lat="29.5292201" lon="103.3279735"><ele>2812.83</ele><time>2026-03-27T20:28:30.000Z</time></trkpt>
        <trkpt lat="29.529176" lon="103.328075"><ele>2814.09</ele><time>2026-03-27T20:28:50.000Z</time></trkpt>
        <trkpt lat="29.5291684" lon="103.3281858"><ele>2812.65</ele><time>2026-03-27T20:29:02.000Z</time></trkpt>
        <trkpt lat="29.5291596" lon="103.3282942"><ele>2813.49</ele><time>2026-03-27T20:29:28.000Z</time></trkpt>
        <trkpt lat="29.5291309" lon="103.3284079"><ele>2816.74</ele><time>2026-03-27T20:29:50.000Z</time></trkpt>
        <trkpt lat="29.5290952" lon="103.328515"><ele>2819.5</ele><time>2026-03-27T20:30:06.000Z</time></trkpt>
        <trkpt lat="29.5290639" lon="103.3286167"><ele>2822.67</ele><time>2026-03-27T20:30:32.000Z</time></trkpt>
        <trkpt lat="29.5290123" lon="103.3287124"><ele>2825.53</ele><time>2026-03-27T20:30:46.000Z</time></trkpt>
        <trkpt lat="29.5289769" lon="103.3288111"><ele>2828.86</ele><time>2026-03-27T20:31:00.000Z</time></trkpt>
        <trkpt lat="29.5289357" lon="103.328908"><ele>2832.1</ele><time>2026-03-27T20:31:14.000Z</time></trkpt>
        <trkpt lat="29.5288911" lon="103.3290084"><ele>2834.9</ele><time>2026-03-27T20:31:28.000Z</time></trkpt>
        <trkpt lat="29.5288424" lon="103.3291043"><ele>2836.06</ele><time>2026-03-27T20:31:44.000Z</time></trkpt>
        <trkpt lat="29.5288002" lon="103.3292109"><ele>2838.69</ele><time>2026-03-27T20:32:02.000Z</time></trkpt>
        <trkpt lat="29.5287258" lon="103.3292809"><ele>2840.95</ele><time>2026-03-27T20:32:18.000Z</time></trkpt>
        <trkpt lat="29.5286735" lon="103.3293677"><ele>2842.47</ele><time>2026-03-27T20:32:28.000Z</time></trkpt>
        <trkpt lat="29.5286349" lon="103.3294627"><ele>2844.49</ele><time>2026-03-27T20:32:42.000Z</time></trkpt>
        <trkpt lat="29.5286124" lon="103.3295728"><ele>2846.31</ele><time>2026-03-27T20:32:58.000Z</time></trkpt>
        <trkpt lat="29.5286022" lon="103.3296911"><ele>2849.34</ele><time>2026-03-27T20:33:14.000Z</time></trkpt>
        <trkpt lat="29.5285885" lon="103.3298083"><ele>2850.48</ele><time>2026-03-27T20:33:30.000Z</time></trkpt>
        <trkpt lat="29.5285736" lon="103.3299204"><ele>2851.09</ele><time>2026-03-27T20:33:42.000Z</time></trkpt>
        <trkpt lat="29.5285264" lon="103.3300128"><ele>2853.17</ele><time>2026-03-27T20:33:56.000Z</time></trkpt>
        <trkpt lat="29.5284758" lon="103.3301044"><ele>2854.67</ele><time>2026-03-27T20:34:08.000Z</time></trkpt>
        <trkpt lat="29.5284011" lon="103.3301812"><ele>2856.35</ele><time>2026-03-27T20:34:22.000Z</time></trkpt>
        <trkpt lat="29.5283194" lon="103.3302607"><ele>2855.52</ele><time>2026-03-27T20:34:34.000Z</time></trkpt>
        <trkpt lat="29.5282736" lon="103.3303543"><ele>2855.44</ele><time>2026-03-27T20:34:44.000Z</time></trkpt>
        <trkpt lat="29.5282809" lon="103.3304584"><ele>2853.73</ele><time>2026-03-27T20:34:58.000Z</time></trkpt>
        <trkpt lat="29.5283115" lon="103.3305671"><ele>2852.91</ele><time>2026-03-27T20:35:12.000Z</time></trkpt>
        <trkpt lat="29.528293" lon="103.3306728"><ele>2853.96</ele><time>2026-03-27T20:35:38.000Z</time></trkpt>
        <trkpt lat="29.5282313" lon="103.3307541"><ele>2855.79</ele><time>2026-03-27T20:35:56.000Z</time></trkpt>
        <trkpt lat="29.5281482" lon="103.3308192"><ele>2858.47</ele><time>2026-03-27T20:36:14.000Z</time></trkpt>
        <trkpt lat="29.5280874" lon="103.3309105"><ele>2861.36</ele><time>2026-03-27T20:36:30.000Z</time></trkpt>
        <trkpt lat="29.5280438" lon="103.3310053"><ele>2863.92</ele><time>2026-03-27T20:36:44.000Z</time></trkpt>
        <trkpt lat="29.5280225" lon="103.3311115"><ele>2865.64</ele><time>2026-03-27T20:37:04.000Z</time></trkpt>
        <trkpt lat="29.5280031" lon="103.3312218"><ele>2869.17</ele><time>2026-03-27T20:37:20.000Z</time></trkpt>
        <trkpt lat="29.5279357" lon="103.3313097"><ele>2872.69</ele><time>2026-03-27T20:37:40.000Z</time></trkpt>
        <trkpt lat="29.5278519" lon="103.331383"><ele>2877.17</ele><time>2026-03-27T20:37:54.000Z</time></trkpt>
        <trkpt lat="29.527793" lon="103.3314755"><ele>2880.02</ele><time>2026-03-27T20:38:12.000Z</time></trkpt>
        <trkpt lat="29.5277457" lon="103.3315731"><ele>2881.59</ele><time>2026-03-27T20:38:34.000Z</time></trkpt>
        <trkpt lat="29.5277071" lon="103.3316738"><ele>2883.46</ele><time>2026-03-27T20:38:50.000Z</time></trkpt>
        <trkpt lat="29.527693" lon="103.3317894"><ele>2884.71</ele><time>2026-03-27T20:39:04.000Z</time></trkpt>
        <trkpt lat="29.5277083" lon="103.3318973"><ele>2886.45</ele><time>2026-03-27T20:39:12.000Z</time></trkpt>
        <trkpt lat="29.5276965" lon="103.3319999"><ele>2886.82</ele><time>2026-03-27T20:39:24.000Z</time></trkpt>
        <trkpt lat="29.5276791" lon="103.3320677"><ele>2886.77</ele><time>2026-03-27T20:39:38.000Z</time></trkpt>
        <trkpt lat="29.5276091" lon="103.3321092"><ele>2888.35</ele><time>2026-03-27T20:40:14.000Z</time></trkpt>
        <trkpt lat="29.5275249" lon="103.3321528"><ele>2889.57</ele><time>2026-03-27T20:40:30.000Z</time></trkpt>
        <trkpt lat="29.5275355" lon="103.3322409"><ele>2891.39</ele><time>2026-03-27T20:40:46.000Z</time></trkpt>
        <trkpt lat="29.5275658" lon="103.3323458"><ele>2891.65</ele><time>2026-03-27T20:41:00.000Z</time></trkpt>
        <trkpt lat="29.5275152" lon="103.3324174"><ele>2893.55</ele><time>2026-03-27T20:41:24.000Z</time></trkpt>
        <trkpt lat="29.5274338" lon="103.3324725"><ele>2896.27</ele><time>2026-03-27T20:42:16.000Z</time></trkpt>
        <trkpt lat="29.5273292" lon="103.332494"><ele>2898.87</ele><time>2026-03-27T20:42:36.000Z</time></trkpt>
        <trkpt lat="29.5272484" lon="103.3324324"><ele>2900.98</ele><time>2026-03-27T20:43:16.000Z</time></trkpt>
        <trkpt lat="29.527195" lon="103.3323223"><ele>2902.98</ele><time>2026-03-27T20:43:26.000Z</time></trkpt>
        <trkpt lat="29.5271219" lon="103.3322493"><ele>2903.4</ele><time>2026-03-27T20:43:38.000Z</time></trkpt>
        <trkpt lat="29.5270663" lon="103.3322971"><ele>2904.2</ele><time>2026-03-27T20:43:52.000Z</time></trkpt>
        <trkpt lat="29.527046" lon="103.3324045"><ele>2906.07</ele><time>2026-03-27T20:44:24.000Z</time></trkpt>
        <trkpt lat="29.5270433" lon="103.3325335"><ele>2906.45</ele><time>2026-03-27T20:44:40.000Z</time></trkpt>
        <trkpt lat="29.527062" lon="103.3326632"><ele>2908.42</ele><time>2026-03-27T20:44:56.000Z</time></trkpt>
        <trkpt lat="29.5270655" lon="103.33279"><ele>2910.75</ele><time>2026-03-27T20:45:16.000Z</time></trkpt>
        <trkpt lat="29.5270436" lon="103.3329053"><ele>2912.39</ele><time>2026-03-27T20:45:34.000Z</time></trkpt>
        <trkpt lat="29.5270253" lon="103.3330195"><ele>2913.44</ele><time>2026-03-27T20:45:50.000Z</time></trkpt>
        <trkpt lat="29.5270508" lon="103.3331263"><ele>2915.52</ele><time>2026-03-27T20:46:06.000Z</time></trkpt>
        <trkpt lat="29.5270891" lon="103.3332269"><ele>2916.76</ele><time>2026-03-27T20:46:22.000Z</time></trkpt>
        <trkpt lat="29.5270808" lon="103.3333293"><ele>2916.84</ele><time>2026-03-27T20:46:42.000Z</time></trkpt>
        <trkpt lat="29.5270298" lon="103.3334215"><ele>2918.2</ele><time>2026-03-27T20:46:56.000Z</time></trkpt>
        <trkpt lat="29.5269451" lon="103.3334814"><ele>2919.08</ele><time>2026-03-27T20:47:12.000Z</time></trkpt>
        <trkpt lat="29.5268489" lon="103.3334976"><ele>2921.48</ele><time>2026-03-27T20:47:46.000Z</time></trkpt>
        <trkpt lat="29.5267484" lon="103.3335031"><ele>2925.04</ele><time>2026-03-27T20:48:20.000Z</time></trkpt>
        <trkpt lat="29.5266488" lon="103.3335153"><ele>2928.73</ele><time>2026-03-27T20:48:40.000Z</time></trkpt>
        <trkpt lat="29.5265657" lon="103.3335651"><ele>2933.65</ele><time>2026-03-27T20:49:02.000Z</time></trkpt>
        <trkpt lat="29.5264749" lon="103.3336132"><ele>2937.23</ele><time>2026-03-27T20:49:18.000Z</time></trkpt>
        <trkpt lat="29.5263919" lon="103.3336668"><ele>2939.49</ele><time>2026-03-27T20:49:32.000Z</time></trkpt>
        <trkpt lat="29.5263054" lon="103.3337273"><ele>2941.49</ele><time>2026-03-27T20:49:46.000Z</time></trkpt>
        <trkpt lat="29.5262202" lon="103.3337906"><ele>2941.36</ele><time>2026-03-27T20:49:58.000Z</time></trkpt>
        <trkpt lat="29.5261292" lon="103.3338278"><ele>2941.58</ele><time>2026-03-27T20:50:12.000Z</time></trkpt>
        <trkpt lat="29.5260609" lon="103.3339073"><ele>2943.08</ele><time>2026-03-27T20:50:32.000Z</time></trkpt>
        <trkpt lat="29.525979" lon="103.3339719"><ele>2944.79</ele><time>2026-03-27T20:50:46.000Z</time></trkpt>
        <trkpt lat="29.5258871" lon="103.3340138"><ele>2948.8</ele><time>2026-03-27T20:51:04.000Z</time></trkpt>
        <trkpt lat="29.5257946" lon="103.3340454"><ele>2951.83</ele><time>2026-03-27T20:51:24.000Z</time></trkpt>
        <trkpt lat="29.5257106" lon="103.3340899"><ele>2954.67</ele><time>2026-03-27T20:51:40.000Z</time></trkpt>
        <trkpt lat="29.5256363" lon="103.33415"><ele>2955.95</ele><time>2026-03-27T20:52:06.000Z</time></trkpt>
        <trkpt lat="29.5255815" lon="103.3342328"><ele>2955.97</ele><time>2026-03-27T20:52:24.000Z</time></trkpt>
        <trkpt lat="29.5255216" lon="103.334323"><ele>2956.42</ele><time>2026-03-27T20:52:36.000Z</time></trkpt>
        <trkpt lat="29.5254674" lon="103.3344144"><ele>2956.17</ele><time>2026-03-27T20:52:52.000Z</time></trkpt>
        <trkpt lat="29.525413" lon="103.3345024"><ele>2955.91</ele><time>2026-03-27T20:53:08.000Z</time></trkpt>
        <trkpt lat="29.5253464" lon="103.3345746"><ele>2957.62</ele><time>2026-03-27T20:53:26.000Z</time></trkpt>
        <trkpt lat="29.5252932" lon="103.3346581"><ele>2960.36</ele><time>2026-03-27T20:53:42.000Z</time></trkpt>
        <trkpt lat="29.5252104" lon="103.3347129"><ele>2962.71</ele><time>2026-03-27T20:53:58.000Z</time></trkpt>
        <trkpt lat="29.5251251" lon="103.3347697"><ele>2964.65</ele><time>2026-03-27T20:54:10.000Z</time></trkpt>
        <trkpt lat="29.5250415" lon="103.3348181"><ele>2968.15</ele><time>2026-03-27T20:54:30.000Z</time></trkpt>
        <trkpt lat="29.5249394" lon="103.3348246"><ele>2972.53</ele><time>2026-03-27T20:55:16.000Z</time></trkpt>
        <trkpt lat="29.5248393" lon="103.334786"><ele>2975.58</ele><time>2026-03-27T20:55:28.000Z</time></trkpt>
        <trkpt lat="29.5247372" lon="103.33475"><ele>2977.1</ele><time>2026-03-27T20:55:52.000Z</time></trkpt>
        <trkpt lat="29.5246352" lon="103.3347459"><ele>2978.09</ele><time>2026-03-27T20:56:12.000Z</time></trkpt>
        <trkpt lat="29.5246483" lon="103.3348245"><ele>2979.78</ele><time>2026-03-27T20:56:40.000Z</time></trkpt>
        <trkpt lat="29.5247036" lon="103.3349192"><ele>2980.43</ele><time>2026-03-27T20:56:46.000Z</time></trkpt>
        <trkpt lat="29.5247609" lon="103.3350356"><ele>2981.42</ele><time>2026-03-27T20:57:00.000Z</time></trkpt>
        <trkpt lat="29.52478" lon="103.3351023"><ele>2980.82</ele><time>2026-03-27T20:57:07.000Z</time></trkpt>
        <trkpt lat="29.5247989" lon="103.3350313"><ele>2979.98</ele><time>2026-03-27T20:57:57.000Z</time></trkpt>
        <trkpt lat="29.5247855" lon="103.3349089"><ele>2980.63</ele><time>2026-03-27T20:58:03.000Z</time></trkpt>
        <trkpt lat="29.5247115" lon="103.3348184"><ele>2981.53</ele><time>2026-03-27T20:58:23.000Z</time></trkpt>
        <trkpt lat="29.5246374" lon="103.3347558"><ele>2980.2</ele><time>2026-03-27T20:58:35.000Z</time></trkpt>
        <trkpt lat="29.5245503" lon="103.3347831"><ele>2980.75</ele><time>2026-03-27T20:59:07.000Z</time></trkpt>
        <trkpt lat="29.5244578" lon="103.334841"><ele>2982.3</ele><time>2026-03-27T20:59:19.000Z</time></trkpt>
        <trkpt lat="29.524365" lon="103.3348942"><ele>2984.28</ele><time>2026-03-27T20:59:29.000Z</time></trkpt>
        <trkpt lat="29.5242699" lon="103.3349308"><ele>2985.89</ele><time>2026-03-27T20:59:39.000Z</time></trkpt>
        <trkpt lat="29.5241672" lon="103.3349469"><ele>2987.4</ele><time>2026-03-27T20:59:51.000Z</time></trkpt>
        <trkpt lat="29.5240601" lon="103.3349453"><ele>2987.95</ele><time>2026-03-27T21:00:03.000Z</time></trkpt>
        <trkpt lat="29.5239647" lon="103.3349242"><ele>2988.27</ele><time>2026-03-27T21:00:15.000Z</time></trkpt>
        <trkpt lat="29.5238616" lon="103.334916"><ele>2987.8</ele><time>2026-03-27T21:00:39.000Z</time></trkpt>
        <trkpt lat="29.5237678" lon="103.3349054"><ele>2988.71</ele><time>2026-03-27T21:00:49.000Z</time></trkpt>
        <trkpt lat="29.5236668" lon="103.3348868"><ele>2989.55</ele><time>2026-03-27T21:01:01.000Z</time></trkpt>
        <trkpt lat="29.5235693" lon="103.3348847"><ele>2990.26</ele><time>2026-03-27T21:01:15.000Z</time></trkpt>
        <trkpt lat="29.5234776" lon="103.3348694"><ele>2990.59</ele><time>2026-03-27T21:01:31.000Z</time></trkpt>
        <trkpt lat="29.5233899" lon="103.3348409"><ele>2990.68</ele><time>2026-03-27T21:01:43.000Z</time></trkpt>
        <trkpt lat="29.5232962" lon="103.3348132"><ele>2991.21</ele><time>2026-03-27T21:01:55.000Z</time></trkpt>
        <trkpt lat="29.5231971" lon="103.3347786"><ele>2991.62</ele><time>2026-03-27T21:02:07.000Z</time></trkpt>
        <trkpt lat="29.5231071" lon="103.3347287"><ele>2992.37</ele><time>2026-03-27T21:02:19.000Z</time></trkpt>
        <trkpt lat="29.5230085" lon="103.3347062"><ele>2992.64</ele><time>2026-03-27T21:02:33.000Z</time></trkpt>
        <trkpt lat="29.5229109" lon="103.3347122"><ele>2993.95</ele><time>2026-03-27T21:02:43.000Z</time></trkpt>
        <trkpt lat="29.5228169" lon="103.334746"><ele>2995.29</ele><time>2026-03-27T21:03:01.000Z</time></trkpt>
        <trkpt lat="29.522721" lon="103.3347852"><ele>2997.25</ele><time>2026-03-27T21:03:19.000Z</time></trkpt>
        <trkpt lat="29.5227212" lon="103.3348715"><ele>2999.19</ele><time>2026-03-27T21:03:41.000Z</time></trkpt>
        <trkpt lat="29.5227392" lon="103.3349776"><ele>3000.28</ele><time>2026-03-27T21:04:03.000Z</time></trkpt>
        <trkpt lat="29.5227563" lon="103.3350885"><ele>3000.38</ele><time>2026-03-27T21:04:19.000Z</time></trkpt>
        <trkpt lat="29.5227697" lon="103.3351989"><ele>3001.76</ele><time>2026-03-27T21:05:00.000Z</time></trkpt>
        <trkpt lat="29.5227639" lon="103.3353187"><ele>3004.18</ele><time>2026-03-27T21:05:22.000Z</time></trkpt>
        <trkpt lat="29.522784" lon="103.3354285"><ele>3006.55</ele><time>2026-03-27T21:06:29.000Z</time></trkpt>
        <trkpt lat="29.5227964" lon="103.335531"><ele>3009.67</ele><time>2026-03-27T21:07:30.000Z</time></trkpt>
        <trkpt lat="29.5228052" lon="103.335644"><ele>3011.96</ele><time>2026-03-27T21:08:17.000Z</time></trkpt>
        <trkpt lat="29.5228094" lon="103.3357488"><ele>3012.46</ele><time>2026-03-27T21:08:52.000Z</time></trkpt>
        <trkpt lat="29.522835" lon="103.3358532"><ele>3014.72</ele><time>2026-03-27T21:10:04.000Z</time></trkpt>
        <trkpt lat="29.522746" lon="103.3358804"><ele>3017.82</ele><time>2026-03-27T21:10:28.000Z</time></trkpt>
        <trkpt lat="29.5226532" lon="103.3359007"><ele>3019.79</ele><time>2026-03-27T21:10:44.000Z</time></trkpt>
        <trkpt lat="29.5225665" lon="103.3359482"><ele>3022.43</ele><time>2026-03-27T21:11:02.000Z</time></trkpt>
        <trkpt lat="29.5225665" lon="103.3359482"><ele>3022.43</ele><time>2026-03-27T21:14:17.000Z</time></trkpt>
      </trkseg>
  </trk>
</gpx>